<?xml version="1.0" encoding="UTF-8" standalone="no" ?>
<gpx xmlns="http://www.topografix.com/GPX/1/1" xmlns:xsi="http://www.w3.org/2001/XMLSchema-instance" xsi:schemaLocation="http://www.topografix.com/GPX/1/1 http://www.topografix.com/GPX/1/1/gpx.xsd" version="1.1" creator="VisuGPX - https://www.visugpx.com">
  <metadata>
    <name>Roppeviller - Altschlossfelsen</name>
    <desc><![CDATA[File with points/tracks from Locus Map/3.46.1]]></desc>
  </metadata>
  <trk>
    <name><![CDATA[Roppeviller 20km]]></name>
    <trkseg>
      <trkpt lat="49.10018" lon="7.51621">
        <ele>307.75</ele>
        <time>2020-06-07T07:09:06Z</time>
      </trkpt>
      <trkpt lat="49.10018" lon="7.51623">
        <ele>307.23</ele>
        <time>2020-06-07T07:10:31Z</time>
      </trkpt>
      <trkpt lat="49.10009" lon="7.51633">
        <ele>304</ele>
        <time>2020-06-07T07:10:41Z</time>
      </trkpt>
      <trkpt lat="49.10004" lon="7.51649">
        <ele>304.79</ele>
        <time>2020-06-07T07:10:51Z</time>
      </trkpt>
      <trkpt lat="49.10002" lon="7.51662">
        <ele>305.48</ele>
        <time>2020-06-07T07:11:01Z</time>
      </trkpt>
      <trkpt lat="49.09998" lon="7.51678">
        <ele>305.68</ele>
        <time>2020-06-07T07:11:11Z</time>
      </trkpt>
      <trkpt lat="49.09995" lon="7.51696">
        <ele>305.07</ele>
        <time>2020-06-07T07:11:21Z</time>
      </trkpt>
      <trkpt lat="49.09991" lon="7.51717">
        <ele>305.71</ele>
        <time>2020-06-07T07:11:31Z</time>
      </trkpt>
      <trkpt lat="49.09992" lon="7.51739">
        <ele>306.35</ele>
        <time>2020-06-07T07:11:41Z</time>
      </trkpt>
      <trkpt lat="49.09994" lon="7.51759">
        <ele>307.94</ele>
        <time>2020-06-07T07:11:51Z</time>
      </trkpt>
      <trkpt lat="49.09997" lon="7.51779">
        <ele>307.92</ele>
        <time>2020-06-07T07:12:01Z</time>
      </trkpt>
      <trkpt lat="49.09999" lon="7.51799">
        <ele>309.64</ele>
        <time>2020-06-07T07:12:11Z</time>
      </trkpt>
      <trkpt lat="49.10001" lon="7.51818">
        <ele>310.89</ele>
        <time>2020-06-07T07:12:21Z</time>
      </trkpt>
      <trkpt lat="49.10003" lon="7.51838">
        <ele>311.73</ele>
        <time>2020-06-07T07:12:31Z</time>
      </trkpt>
      <trkpt lat="49.10005" lon="7.51858">
        <ele>314.39</ele>
        <time>2020-06-07T07:12:41Z</time>
      </trkpt>
      <trkpt lat="49.10006" lon="7.51878">
        <ele>317.32</ele>
        <time>2020-06-07T07:12:51Z</time>
      </trkpt>
      <trkpt lat="49.10008" lon="7.51898">
        <ele>319.09</ele>
        <time>2020-06-07T07:13:01Z</time>
      </trkpt>
      <trkpt lat="49.10011" lon="7.51917">
        <ele>319.61</ele>
        <time>2020-06-07T07:13:11Z</time>
      </trkpt>
      <trkpt lat="49.10012" lon="7.51937">
        <ele>320.82</ele>
        <time>2020-06-07T07:13:21Z</time>
      </trkpt>
      <trkpt lat="49.10013" lon="7.51958">
        <ele>323.71</ele>
        <time>2020-06-07T07:13:31Z</time>
      </trkpt>
      <trkpt lat="49.10012" lon="7.51979">
        <ele>323.47</ele>
        <time>2020-06-07T07:13:41Z</time>
      </trkpt>
      <trkpt lat="49.10013" lon="7.51999">
        <ele>323.55</ele>
        <time>2020-06-07T07:13:51Z</time>
      </trkpt>
      <trkpt lat="49.10016" lon="7.52019">
        <ele>323.5</ele>
        <time>2020-06-07T07:14:01Z</time>
      </trkpt>
      <trkpt lat="49.10017" lon="7.52038">
        <ele>324.71</ele>
        <time>2020-06-07T07:14:11Z</time>
      </trkpt>
      <trkpt lat="49.10018" lon="7.52054">
        <ele>326.97</ele>
        <time>2020-06-07T07:14:21Z</time>
      </trkpt>
      <trkpt lat="49.10016" lon="7.52073">
        <ele>326.33</ele>
        <time>2020-06-07T07:14:31Z</time>
      </trkpt>
      <trkpt lat="49.10019" lon="7.52092">
        <ele>325.47</ele>
        <time>2020-06-07T07:14:41Z</time>
      </trkpt>
      <trkpt lat="49.10022" lon="7.52102">
        <ele>325.2</ele>
        <time>2020-06-07T07:14:51Z</time>
      </trkpt>
      <trkpt lat="49.10021" lon="7.52098">
        <ele>325.2</ele>
        <time>2020-06-07T07:15:19Z</time>
      </trkpt>
      <trkpt lat="49.1002" lon="7.52099">
        <ele>325.92</ele>
        <time>2020-06-07T07:16:22Z</time>
      </trkpt>
      <trkpt lat="49.1002" lon="7.52119">
        <ele>326.37</ele>
        <time>2020-06-07T07:16:32Z</time>
      </trkpt>
      <trkpt lat="49.1002" lon="7.52132">
        <ele>324.49</ele>
        <time>2020-06-07T07:16:42Z</time>
      </trkpt>
      <trkpt lat="49.10022" lon="7.52157">
        <ele>323.86</ele>
        <time>2020-06-07T07:16:52Z</time>
      </trkpt>
      <trkpt lat="49.10025" lon="7.52179">
        <ele>325.28</ele>
        <time>2020-06-07T07:17:02Z</time>
      </trkpt>
      <trkpt lat="49.10029" lon="7.52206">
        <ele>327.72</ele>
        <time>2020-06-07T07:17:12Z</time>
      </trkpt>
      <trkpt lat="49.10032" lon="7.52228">
        <ele>329.34</ele>
        <time>2020-06-07T07:17:22Z</time>
      </trkpt>
      <trkpt lat="49.10033" lon="7.5225">
        <ele>329.8</ele>
        <time>2020-06-07T07:17:32Z</time>
      </trkpt>
      <trkpt lat="49.10033" lon="7.5227">
        <ele>330.6</ele>
        <time>2020-06-07T07:17:42Z</time>
      </trkpt>
      <trkpt lat="49.10034" lon="7.5229">
        <ele>330.55</ele>
        <time>2020-06-07T07:17:52Z</time>
      </trkpt>
      <trkpt lat="49.10034" lon="7.52307">
        <ele>332.26</ele>
        <time>2020-06-07T07:18:02Z</time>
      </trkpt>
      <trkpt lat="49.10035" lon="7.52325">
        <ele>333.08</ele>
        <time>2020-06-07T07:18:12Z</time>
      </trkpt>
      <trkpt lat="49.10037" lon="7.52345">
        <ele>333.84</ele>
        <time>2020-06-07T07:18:22Z</time>
      </trkpt>
      <trkpt lat="49.10043" lon="7.52367">
        <ele>334.34</ele>
        <time>2020-06-07T07:18:32Z</time>
      </trkpt>
      <trkpt lat="49.10049" lon="7.52386">
        <ele>336.87</ele>
        <time>2020-06-07T07:18:42Z</time>
      </trkpt>
      <trkpt lat="49.10053" lon="7.52407">
        <ele>339.95</ele>
        <time>2020-06-07T07:18:52Z</time>
      </trkpt>
      <trkpt lat="49.10055" lon="7.52429">
        <ele>341.24</ele>
        <time>2020-06-07T07:19:02Z</time>
      </trkpt>
      <trkpt lat="49.10056" lon="7.52451">
        <ele>340.12</ele>
        <time>2020-06-07T07:19:12Z</time>
      </trkpt>
      <trkpt lat="49.1006" lon="7.5247">
        <ele>341.46</ele>
        <time>2020-06-07T07:19:22Z</time>
      </trkpt>
      <trkpt lat="49.10063" lon="7.5249">
        <ele>341.49</ele>
        <time>2020-06-07T07:19:32Z</time>
      </trkpt>
      <trkpt lat="49.10067" lon="7.52511">
        <ele>342.5</ele>
        <time>2020-06-07T07:19:42Z</time>
      </trkpt>
      <trkpt lat="49.10069" lon="7.5253">
        <ele>340.42</ele>
        <time>2020-06-07T07:19:52Z</time>
      </trkpt>
      <trkpt lat="49.10073" lon="7.52551">
        <ele>339.36</ele>
        <time>2020-06-07T07:20:02Z</time>
      </trkpt>
      <trkpt lat="49.10081" lon="7.52569">
        <ele>337.24</ele>
        <time>2020-06-07T07:20:12Z</time>
      </trkpt>
      <trkpt lat="49.10084" lon="7.52586">
        <ele>338.99</ele>
        <time>2020-06-07T07:20:22Z</time>
      </trkpt>
      <trkpt lat="49.10086" lon="7.52603">
        <ele>338.16</ele>
        <time>2020-06-07T07:20:32Z</time>
      </trkpt>
      <trkpt lat="49.10091" lon="7.52619">
        <ele>335.41</ele>
        <time>2020-06-07T07:20:42Z</time>
      </trkpt>
      <trkpt lat="49.10094" lon="7.52636">
        <ele>335.19</ele>
        <time>2020-06-07T07:20:52Z</time>
      </trkpt>
      <trkpt lat="49.10098" lon="7.52654">
        <ele>335.49</ele>
        <time>2020-06-07T07:21:02Z</time>
      </trkpt>
      <trkpt lat="49.10103" lon="7.52676">
        <ele>337.37</ele>
        <time>2020-06-07T07:21:12Z</time>
      </trkpt>
      <trkpt lat="49.10109" lon="7.52695">
        <ele>340.4</ele>
        <time>2020-06-07T07:21:22Z</time>
      </trkpt>
      <trkpt lat="49.10115" lon="7.52712">
        <ele>341.86</ele>
        <time>2020-06-07T07:21:32Z</time>
      </trkpt>
      <trkpt lat="49.10122" lon="7.52726">
        <ele>345.04</ele>
        <time>2020-06-07T07:21:42Z</time>
      </trkpt>
      <trkpt lat="49.10126" lon="7.52736">
        <ele>345.35</ele>
        <time>2020-06-07T07:21:52Z</time>
      </trkpt>
      <trkpt lat="49.10129" lon="7.52755">
        <ele>343.15</ele>
        <time>2020-06-07T07:22:02Z</time>
      </trkpt>
      <trkpt lat="49.10133" lon="7.52775">
        <ele>341.59</ele>
        <time>2020-06-07T07:22:12Z</time>
      </trkpt>
      <trkpt lat="49.10137" lon="7.52794">
        <ele>342.27</ele>
        <time>2020-06-07T07:22:22Z</time>
      </trkpt>
      <trkpt lat="49.10144" lon="7.52813">
        <ele>343.2</ele>
        <time>2020-06-07T07:22:32Z</time>
      </trkpt>
      <trkpt lat="49.1015" lon="7.5283">
        <ele>346.4</ele>
        <time>2020-06-07T07:22:42Z</time>
      </trkpt>
      <trkpt lat="49.10155" lon="7.52844">
        <ele>346.54</ele>
        <time>2020-06-07T07:22:52Z</time>
      </trkpt>
      <trkpt lat="49.10161" lon="7.52855">
        <ele>346.84</ele>
        <time>2020-06-07T07:23:02Z</time>
      </trkpt>
      <trkpt lat="49.1017" lon="7.52865">
        <ele>347.87</ele>
        <time>2020-06-07T07:23:12Z</time>
      </trkpt>
      <trkpt lat="49.10177" lon="7.52874">
        <ele>348.37</ele>
        <time>2020-06-07T07:23:22Z</time>
      </trkpt>
      <trkpt lat="49.10179" lon="7.52876">
        <ele>348.37</ele>
        <time>2020-06-07T07:23:32Z</time>
      </trkpt>
      <trkpt lat="49.10175" lon="7.52869">
        <ele>348.37</ele>
        <time>2020-06-07T07:26:31Z</time>
      </trkpt>
      <trkpt lat="49.10183" lon="7.52881">
        <ele>346.78</ele>
        <time>2020-06-07T07:26:41Z</time>
      </trkpt>
      <trkpt lat="49.10184" lon="7.52883">
        <ele>346.78</ele>
        <time>2020-06-07T07:26:51Z</time>
      </trkpt>
      <trkpt lat="49.10187" lon="7.52882">
        <ele>345.95</ele>
        <time>2020-06-07T07:28:32Z</time>
      </trkpt>
      <trkpt lat="49.10187" lon="7.52883">
        <ele>345.9</ele>
        <time>2020-06-07T07:28:42Z</time>
      </trkpt>
      <trkpt lat="49.10221" lon="7.52931">
        <ele>332.9</ele>
        <time>2020-06-07T07:36:02.773Z</time>
      </trkpt>
      <trkpt lat="49.10212" lon="7.52937">
        <ele>348.08</ele>
        <time>2020-06-07T07:36:12Z</time>
      </trkpt>
      <trkpt lat="49.10214" lon="7.52942">
        <ele>345.62</ele>
        <time>2020-06-07T07:36:22Z</time>
      </trkpt>
      <trkpt lat="49.10213" lon="7.52944">
        <ele>345.18</ele>
        <time>2020-06-07T07:36:55Z</time>
      </trkpt>
      <trkpt lat="49.10207" lon="7.52949">
        <ele>343.96</ele>
        <time>2020-06-07T07:37:05Z</time>
      </trkpt>
      <trkpt lat="49.10188" lon="7.52962">
        <ele>340.53</ele>
        <time>2020-06-07T07:37:15Z</time>
      </trkpt>
      <trkpt lat="49.10177" lon="7.52964">
        <ele>339.68</ele>
        <time>2020-06-07T07:37:25Z</time>
      </trkpt>
      <trkpt lat="49.1017" lon="7.52964">
        <ele>340.87</ele>
        <time>2020-06-07T07:37:35Z</time>
      </trkpt>
      <trkpt lat="49.10164" lon="7.52964">
        <ele>340.99</ele>
        <time>2020-06-07T07:37:45Z</time>
      </trkpt>
      <trkpt lat="49.10155" lon="7.52962">
        <ele>341.53</ele>
        <time>2020-06-07T07:37:55Z</time>
      </trkpt>
      <trkpt lat="49.10142" lon="7.5296">
        <ele>344.02</ele>
        <time>2020-06-07T07:38:05Z</time>
      </trkpt>
      <trkpt lat="49.10131" lon="7.52959">
        <ele>344.38</ele>
        <time>2020-06-07T07:38:15Z</time>
      </trkpt>
      <trkpt lat="49.10126" lon="7.52959">
        <ele>344.46</ele>
        <time>2020-06-07T07:38:25Z</time>
      </trkpt>
      <trkpt lat="49.10124" lon="7.52959">
        <ele>344.46</ele>
        <time>2020-06-07T07:38:35Z</time>
      </trkpt>
      <trkpt lat="49.10123" lon="7.52959">
        <ele>344.46</ele>
        <time>2020-06-07T07:39:32Z</time>
      </trkpt>
      <trkpt lat="49.10122" lon="7.52958">
        <ele>345.05</ele>
        <time>2020-06-07T07:39:49Z</time>
      </trkpt>
      <trkpt lat="49.10107" lon="7.52955">
        <ele>344.19</ele>
        <time>2020-06-07T07:39:59Z</time>
      </trkpt>
      <trkpt lat="49.1009" lon="7.52949">
        <ele>346.21</ele>
        <time>2020-06-07T07:40:09Z</time>
      </trkpt>
      <trkpt lat="49.10077" lon="7.52946">
        <ele>347.11</ele>
        <time>2020-06-07T07:40:19Z</time>
      </trkpt>
      <trkpt lat="49.10067" lon="7.52946">
        <ele>348.67</ele>
        <time>2020-06-07T07:40:29Z</time>
      </trkpt>
      <trkpt lat="49.10048" lon="7.52943">
        <ele>349.61</ele>
        <time>2020-06-07T07:40:39Z</time>
      </trkpt>
      <trkpt lat="49.10034" lon="7.5294">
        <ele>349.37</ele>
        <time>2020-06-07T07:40:49Z</time>
      </trkpt>
      <trkpt lat="49.10024" lon="7.52938">
        <ele>349.78</ele>
        <time>2020-06-07T07:40:59Z</time>
      </trkpt>
      <trkpt lat="49.10014" lon="7.52939">
        <ele>348.65</ele>
        <time>2020-06-07T07:41:09Z</time>
      </trkpt>
      <trkpt lat="49.1" lon="7.52939">
        <ele>350.23</ele>
        <time>2020-06-07T07:41:19Z</time>
      </trkpt>
      <trkpt lat="49.09986" lon="7.5294">
        <ele>349.31</ele>
        <time>2020-06-07T07:41:29Z</time>
      </trkpt>
      <trkpt lat="49.09971" lon="7.5294">
        <ele>348.71</ele>
        <time>2020-06-07T07:41:39Z</time>
      </trkpt>
      <trkpt lat="49.09957" lon="7.52938">
        <ele>349.18</ele>
        <time>2020-06-07T07:41:49Z</time>
      </trkpt>
      <trkpt lat="49.09945" lon="7.52933">
        <ele>347.39</ele>
        <time>2020-06-07T07:41:59Z</time>
      </trkpt>
      <trkpt lat="49.09933" lon="7.52927">
        <ele>348.52</ele>
        <time>2020-06-07T07:42:09Z</time>
      </trkpt>
      <trkpt lat="49.09927" lon="7.52928">
        <ele>348.89</ele>
        <time>2020-06-07T07:42:19Z</time>
      </trkpt>
      <trkpt lat="49.09922" lon="7.52925">
        <ele>348.25</ele>
        <time>2020-06-07T07:42:29Z</time>
      </trkpt>
      <trkpt lat="49.09913" lon="7.52924">
        <ele>349.02</ele>
        <time>2020-06-07T07:42:39Z</time>
      </trkpt>
      <trkpt lat="49.09912" lon="7.52926">
        <ele>349.03</ele>
        <time>2020-06-07T07:42:49Z</time>
      </trkpt>
      <trkpt lat="49.0991" lon="7.52926">
        <ele>348.93</ele>
        <time>2020-06-07T07:43:47Z</time>
      </trkpt>
      <trkpt lat="49.09906" lon="7.52927">
        <ele>349.11</ele>
        <time>2020-06-07T07:43:57Z</time>
      </trkpt>
      <trkpt lat="49.09898" lon="7.5293">
        <ele>349.87</ele>
        <time>2020-06-07T07:44:07Z</time>
      </trkpt>
      <trkpt lat="49.09891" lon="7.52929">
        <ele>349.97</ele>
        <time>2020-06-07T07:44:17Z</time>
      </trkpt>
      <trkpt lat="49.09885" lon="7.52928">
        <ele>349.89</ele>
        <time>2020-06-07T07:44:27Z</time>
      </trkpt>
      <trkpt lat="49.09877" lon="7.52925">
        <ele>350.4</ele>
        <time>2020-06-07T07:44:37Z</time>
      </trkpt>
      <trkpt lat="49.09866" lon="7.52922">
        <ele>351.44</ele>
        <time>2020-06-07T07:44:47Z</time>
      </trkpt>
      <trkpt lat="49.09853" lon="7.52917">
        <ele>352.87</ele>
        <time>2020-06-07T07:44:57Z</time>
      </trkpt>
      <trkpt lat="49.09841" lon="7.52915">
        <ele>355.39</ele>
        <time>2020-06-07T07:45:07Z</time>
      </trkpt>
      <trkpt lat="49.09829" lon="7.52917">
        <ele>356.79</ele>
        <time>2020-06-07T07:45:17Z</time>
      </trkpt>
      <trkpt lat="49.09821" lon="7.52918">
        <ele>358.06</ele>
        <time>2020-06-07T07:45:27Z</time>
      </trkpt>
      <trkpt lat="49.09813" lon="7.52917">
        <ele>357.95</ele>
        <time>2020-06-07T07:45:37Z</time>
      </trkpt>
      <trkpt lat="49.09793" lon="7.52913">
        <ele>358.75</ele>
        <time>2020-06-07T07:45:47Z</time>
      </trkpt>
      <trkpt lat="49.09781" lon="7.5291">
        <ele>361.22</ele>
        <time>2020-06-07T07:45:57Z</time>
      </trkpt>
      <trkpt lat="49.0977" lon="7.52906">
        <ele>363.22</ele>
        <time>2020-06-07T07:46:07Z</time>
      </trkpt>
      <trkpt lat="49.09763" lon="7.52902">
        <ele>364.38</ele>
        <time>2020-06-07T07:46:17Z</time>
      </trkpt>
      <trkpt lat="49.09758" lon="7.52899">
        <ele>364.22</ele>
        <time>2020-06-07T07:46:27Z</time>
      </trkpt>
      <trkpt lat="49.09755" lon="7.52898">
        <ele>364.17</ele>
        <time>2020-06-07T07:46:37Z</time>
      </trkpt>
      <trkpt lat="49.0975" lon="7.52897">
        <ele>365.99</ele>
        <time>2020-06-07T07:46:47Z</time>
      </trkpt>
      <trkpt lat="49.09749" lon="7.52896">
        <ele>365.99</ele>
        <time>2020-06-07T07:46:59Z</time>
      </trkpt>
      <trkpt lat="49.09748" lon="7.52896">
        <ele>366.19</ele>
        <time>2020-06-07T07:48:05Z</time>
      </trkpt>
      <trkpt lat="49.09737" lon="7.52889">
        <ele>369.61</ele>
        <time>2020-06-07T07:48:15Z</time>
      </trkpt>
      <trkpt lat="49.09732" lon="7.52887">
        <ele>369.56</ele>
        <time>2020-06-07T07:48:25Z</time>
      </trkpt>
      <trkpt lat="49.09722" lon="7.52888">
        <ele>369.21</ele>
        <time>2020-06-07T07:48:35Z</time>
      </trkpt>
      <trkpt lat="49.09715" lon="7.52889">
        <ele>369.62</ele>
        <time>2020-06-07T07:48:45Z</time>
      </trkpt>
      <trkpt lat="49.09712" lon="7.5289">
        <ele>369.62</ele>
        <time>2020-06-07T07:49:12Z</time>
      </trkpt>
      <trkpt lat="49.09711" lon="7.5289">
        <ele>369.96</ele>
        <time>2020-06-07T07:50:03Z</time>
      </trkpt>
      <trkpt lat="49.09709" lon="7.5289">
        <ele>370.52</ele>
        <time>2020-06-07T07:50:13Z</time>
      </trkpt>
      <trkpt lat="49.09709" lon="7.52886">
        <ele>371.13</ele>
        <time>2020-06-07T07:50:23Z</time>
      </trkpt>
      <trkpt lat="49.09712" lon="7.52889">
        <ele>373.58</ele>
        <time>2020-06-07T07:50:33Z</time>
      </trkpt>
      <trkpt lat="49.09716" lon="7.52898">
        <ele>376.18</ele>
        <time>2020-06-07T07:50:43Z</time>
      </trkpt>
      <trkpt lat="49.09719" lon="7.52905">
        <ele>376.03</ele>
        <time>2020-06-07T07:50:53Z</time>
      </trkpt>
      <trkpt lat="49.09719" lon="7.52907">
        <ele>376.03</ele>
        <time>2020-06-07T07:51:03Z</time>
      </trkpt>
      <trkpt lat="49.0972" lon="7.52909">
        <ele>375.96</ele>
        <time>2020-06-07T07:51:52Z</time>
      </trkpt>
      <trkpt lat="49.0972" lon="7.52912">
        <ele>375.95</ele>
        <time>2020-06-07T07:52:02Z</time>
      </trkpt>
      <trkpt lat="49.0972" lon="7.52914">
        <ele>375.95</ele>
        <time>2020-06-07T07:52:31Z</time>
      </trkpt>
      <trkpt lat="49.09721" lon="7.52916">
        <ele>376.04</ele>
        <time>2020-06-07T07:53:01Z</time>
      </trkpt>
      <trkpt lat="49.0972" lon="7.52927">
        <ele>375.74</ele>
        <time>2020-06-07T07:53:11Z</time>
      </trkpt>
      <trkpt lat="49.09714" lon="7.52939">
        <ele>375.41</ele>
        <time>2020-06-07T07:53:21Z</time>
      </trkpt>
      <trkpt lat="49.09708" lon="7.52944">
        <ele>374.64</ele>
        <time>2020-06-07T07:53:31Z</time>
      </trkpt>
      <trkpt lat="49.09707" lon="7.52946">
        <ele>374.55</ele>
        <time>2020-06-07T07:53:54Z</time>
      </trkpt>
      <trkpt lat="49.09708" lon="7.52948">
        <ele>374.52</ele>
        <time>2020-06-07T07:54:04Z</time>
      </trkpt>
      <trkpt lat="49.09707" lon="7.52949">
        <ele>375.09</ele>
        <time>2020-06-07T07:54:50Z</time>
      </trkpt>
      <trkpt lat="49.09705" lon="7.52948">
        <ele>375.02</ele>
        <time>2020-06-07T07:55:00Z</time>
      </trkpt>
      <trkpt lat="49.09704" lon="7.52948">
        <ele>373.73</ele>
        <time>2020-06-07T07:55:43Z</time>
      </trkpt>
      <trkpt lat="49.09702" lon="7.52947">
        <ele>372.87</ele>
        <time>2020-06-07T07:55:53Z</time>
      </trkpt>
      <trkpt lat="49.09706" lon="7.5295">
        <ele>374.97</ele>
        <time>2020-06-07T07:56:03Z</time>
      </trkpt>
      <trkpt lat="49.0971" lon="7.52951">
        <ele>375.65</ele>
        <time>2020-06-07T07:56:13Z</time>
      </trkpt>
      <trkpt lat="49.09711" lon="7.52952">
        <ele>375.65</ele>
        <time>2020-06-07T07:56:28Z</time>
      </trkpt>
      <trkpt lat="49.09711" lon="7.52953">
        <ele>373.81</ele>
        <time>2020-06-07T07:56:44Z</time>
      </trkpt>
      <trkpt lat="49.09714" lon="7.52961">
        <ele>372.59</ele>
        <time>2020-06-07T07:56:54Z</time>
      </trkpt>
      <trkpt lat="49.09714" lon="7.52962">
        <ele>372.59</ele>
        <time>2020-06-07T07:57:04Z</time>
      </trkpt>
      <trkpt lat="49.09715" lon="7.52964">
        <ele>372.36</ele>
        <time>2020-06-07T07:58:07Z</time>
      </trkpt>
      <trkpt lat="49.09719" lon="7.52974">
        <ele>366.84</ele>
        <time>2020-06-07T07:58:17Z</time>
      </trkpt>
      <trkpt lat="49.09723" lon="7.52986">
        <ele>364.85</ele>
        <time>2020-06-07T07:58:27Z</time>
      </trkpt>
      <trkpt lat="49.09725" lon="7.52992">
        <ele>364.77</ele>
        <time>2020-06-07T07:58:37Z</time>
      </trkpt>
      <trkpt lat="49.09726" lon="7.52997">
        <ele>367.05</ele>
        <time>2020-06-07T07:58:47Z</time>
      </trkpt>
      <trkpt lat="49.09726" lon="7.53003">
        <ele>367.12</ele>
        <time>2020-06-07T07:58:57Z</time>
      </trkpt>
      <trkpt lat="49.09726" lon="7.53004">
        <ele>367.16</ele>
        <time>2020-06-07T07:59:32Z</time>
      </trkpt>
      <trkpt lat="49.09731" lon="7.5302">
        <ele>368.08</ele>
        <time>2020-06-07T07:59:42Z</time>
      </trkpt>
      <trkpt lat="49.09736" lon="7.53028">
        <ele>373.12</ele>
        <time>2020-06-07T07:59:52Z</time>
      </trkpt>
      <trkpt lat="49.0974" lon="7.5304">
        <ele>380.61</ele>
        <time>2020-06-07T08:00:02Z</time>
      </trkpt>
      <trkpt lat="49.09742" lon="7.53042">
        <ele>380.62</ele>
        <time>2020-06-07T08:00:12Z</time>
      </trkpt>
      <trkpt lat="49.09742" lon="7.53044">
        <ele>380.59</ele>
        <time>2020-06-07T08:00:55Z</time>
      </trkpt>
      <trkpt lat="49.09742" lon="7.53047">
        <ele>380.79</ele>
        <time>2020-06-07T08:01:05Z</time>
      </trkpt>
      <trkpt lat="49.09742" lon="7.53049">
        <ele>380.68</ele>
        <time>2020-06-07T08:01:20Z</time>
      </trkpt>
      <trkpt lat="49.09745" lon="7.53061">
        <ele>379.41</ele>
        <time>2020-06-07T08:01:30Z</time>
      </trkpt>
      <trkpt lat="49.09746" lon="7.5307">
        <ele>377.13</ele>
        <time>2020-06-07T08:01:40Z</time>
      </trkpt>
      <trkpt lat="49.09747" lon="7.53075">
        <ele>377.13</ele>
        <time>2020-06-07T08:01:50Z</time>
      </trkpt>
      <trkpt lat="49.09747" lon="7.53077">
        <ele>377.13</ele>
        <time>2020-06-07T08:02:10Z</time>
      </trkpt>
      <trkpt lat="49.0975" lon="7.53083">
        <ele>376.44</ele>
        <time>2020-06-07T08:02:20Z</time>
      </trkpt>
      <trkpt lat="49.0975" lon="7.53085">
        <ele>376.44</ele>
        <time>2020-06-07T08:02:30Z</time>
      </trkpt>
      <trkpt lat="49.09751" lon="7.53084">
        <ele>375.86</ele>
        <time>2020-06-07T08:03:03Z</time>
      </trkpt>
      <trkpt lat="49.09752" lon="7.53084">
        <ele>375.83</ele>
        <time>2020-06-07T08:06:26Z</time>
      </trkpt>
      <trkpt lat="49.0976" lon="7.53091">
        <ele>374.71</ele>
        <time>2020-06-07T08:06:36Z</time>
      </trkpt>
      <trkpt lat="49.09763" lon="7.53092">
        <ele>374.42</ele>
        <time>2020-06-07T08:06:46Z</time>
      </trkpt>
      <trkpt lat="49.09763" lon="7.53093">
        <ele>375.12</ele>
        <time>2020-06-07T08:06:59Z</time>
      </trkpt>
      <trkpt lat="49.09763" lon="7.53096">
        <ele>375.2</ele>
        <time>2020-06-07T08:07:09Z</time>
      </trkpt>
      <trkpt lat="49.09763" lon="7.531">
        <ele>374.98</ele>
        <time>2020-06-07T08:07:33Z</time>
      </trkpt>
      <trkpt lat="49.09764" lon="7.53103">
        <ele>376.1</ele>
        <time>2020-06-07T08:07:43Z</time>
      </trkpt>
      <trkpt lat="49.09763" lon="7.53107">
        <ele>377.13</ele>
        <time>2020-06-07T08:07:53Z</time>
      </trkpt>
      <trkpt lat="49.09762" lon="7.5311">
        <ele>378.84</ele>
        <time>2020-06-07T08:08:03Z</time>
      </trkpt>
      <trkpt lat="49.09761" lon="7.53116">
        <ele>378.84</ele>
        <time>2020-06-07T08:08:22Z</time>
      </trkpt>
      <trkpt lat="49.09761" lon="7.53118">
        <ele>379.2</ele>
        <time>2020-06-07T08:09:45Z</time>
      </trkpt>
      <trkpt lat="49.09762" lon="7.53119">
        <ele>378.13</ele>
        <time>2020-06-07T08:10:10Z</time>
      </trkpt>
      <trkpt lat="49.09767" lon="7.53128">
        <ele>377.26</ele>
        <time>2020-06-07T08:10:20Z</time>
      </trkpt>
      <trkpt lat="49.09776" lon="7.53137">
        <ele>376.16</ele>
        <time>2020-06-07T08:10:30Z</time>
      </trkpt>
      <trkpt lat="49.0978" lon="7.53148">
        <ele>377.87</ele>
        <time>2020-06-07T08:10:40Z</time>
      </trkpt>
      <trkpt lat="49.09785" lon="7.53155">
        <ele>380.26</ele>
        <time>2020-06-07T08:10:50Z</time>
      </trkpt>
      <trkpt lat="49.09794" lon="7.53165">
        <ele>379.5</ele>
        <time>2020-06-07T08:11:00Z</time>
      </trkpt>
      <trkpt lat="49.09799" lon="7.5317">
        <ele>380.6</ele>
        <time>2020-06-07T08:11:10Z</time>
      </trkpt>
      <trkpt lat="49.09803" lon="7.53173">
        <ele>381.2</ele>
        <time>2020-06-07T08:11:20Z</time>
      </trkpt>
      <trkpt lat="49.09804" lon="7.53174">
        <ele>381.2</ele>
        <time>2020-06-07T08:11:30Z</time>
      </trkpt>
      <trkpt lat="49.09804" lon="7.53176">
        <ele>382.43</ele>
        <time>2020-06-07T08:12:03Z</time>
      </trkpt>
      <trkpt lat="49.09805" lon="7.53183">
        <ele>383.54</ele>
        <time>2020-06-07T08:12:13Z</time>
      </trkpt>
      <trkpt lat="49.09809" lon="7.53188">
        <ele>382.27</ele>
        <time>2020-06-07T08:12:23Z</time>
      </trkpt>
      <trkpt lat="49.09811" lon="7.53191">
        <ele>382.02</ele>
        <time>2020-06-07T08:12:33Z</time>
      </trkpt>
      <trkpt lat="49.09812" lon="7.53192">
        <ele>382.43</ele>
        <time>2020-06-07T08:13:52Z</time>
      </trkpt>
      <trkpt lat="49.09816" lon="7.53207">
        <ele>384.08</ele>
        <time>2020-06-07T08:14:02Z</time>
      </trkpt>
      <trkpt lat="49.09824" lon="7.53226">
        <ele>383.8</ele>
        <time>2020-06-07T08:14:12Z</time>
      </trkpt>
      <trkpt lat="49.09825" lon="7.53231">
        <ele>383.8</ele>
        <time>2020-06-07T08:14:22Z</time>
      </trkpt>
      <trkpt lat="49.09827" lon="7.53235">
        <ele>383.98</ele>
        <time>2020-06-07T08:14:45Z</time>
      </trkpt>
      <trkpt lat="49.0984" lon="7.53244">
        <ele>382.94</ele>
        <time>2020-06-07T08:14:55Z</time>
      </trkpt>
      <trkpt lat="49.09842" lon="7.53246">
        <ele>382.9</ele>
        <time>2020-06-07T08:15:05Z</time>
      </trkpt>
      <trkpt lat="49.09843" lon="7.53247">
        <ele>382.78</ele>
        <time>2020-06-07T08:15:15Z</time>
      </trkpt>
      <trkpt lat="49.09845" lon="7.53252">
        <ele>380.44</ele>
        <time>2020-06-07T08:15:25Z</time>
      </trkpt>
      <trkpt lat="49.09849" lon="7.53258">
        <ele>380.28</ele>
        <time>2020-06-07T08:15:35Z</time>
      </trkpt>
      <trkpt lat="49.09857" lon="7.53267">
        <ele>382.12</ele>
        <time>2020-06-07T08:15:45Z</time>
      </trkpt>
      <trkpt lat="49.09859" lon="7.53272">
        <ele>382.5</ele>
        <time>2020-06-07T08:15:55Z</time>
      </trkpt>
      <trkpt lat="49.09865" lon="7.53285">
        <ele>382.94</ele>
        <time>2020-06-07T08:16:05Z</time>
      </trkpt>
      <trkpt lat="49.0987" lon="7.53291">
        <ele>383.86</ele>
        <time>2020-06-07T08:16:15Z</time>
      </trkpt>
      <trkpt lat="49.09871" lon="7.53293">
        <ele>383.57</ele>
        <time>2020-06-07T08:16:26Z</time>
      </trkpt>
      <trkpt lat="49.09873" lon="7.53297">
        <ele>384.07</ele>
        <time>2020-06-07T08:16:36Z</time>
      </trkpt>
      <trkpt lat="49.09874" lon="7.53298">
        <ele>384.15</ele>
        <time>2020-06-07T08:16:46Z</time>
      </trkpt>
      <trkpt lat="49.09886" lon="7.53314">
        <ele>385.5</ele>
        <time>2020-06-07T08:16:56Z</time>
      </trkpt>
      <trkpt lat="49.09895" lon="7.53326">
        <ele>387.7</ele>
        <time>2020-06-07T08:17:06Z</time>
      </trkpt>
      <trkpt lat="49.09898" lon="7.53329">
        <ele>387.93</ele>
        <time>2020-06-07T08:17:16Z</time>
      </trkpt>
      <trkpt lat="49.09899" lon="7.53331">
        <ele>387.88</ele>
        <time>2020-06-07T08:17:38Z</time>
      </trkpt>
      <trkpt lat="49.09903" lon="7.53341">
        <ele>389.88</ele>
        <time>2020-06-07T08:17:48Z</time>
      </trkpt>
      <trkpt lat="49.09908" lon="7.53354">
        <ele>389.85</ele>
        <time>2020-06-07T08:17:58Z</time>
      </trkpt>
      <trkpt lat="49.09919" lon="7.53366">
        <ele>388.38</ele>
        <time>2020-06-07T08:18:08Z</time>
      </trkpt>
      <trkpt lat="49.09927" lon="7.5338">
        <ele>389.58</ele>
        <time>2020-06-07T08:18:18Z</time>
      </trkpt>
      <trkpt lat="49.09935" lon="7.53398">
        <ele>387.03</ele>
        <time>2020-06-07T08:18:28Z</time>
      </trkpt>
      <trkpt lat="49.0994" lon="7.53404">
        <ele>387.26</ele>
        <time>2020-06-07T08:18:38Z</time>
      </trkpt>
      <trkpt lat="49.09942" lon="7.53405">
        <ele>387.26</ele>
        <time>2020-06-07T08:19:02Z</time>
      </trkpt>
      <trkpt lat="49.09942" lon="7.53406">
        <ele>386.68</ele>
        <time>2020-06-07T08:19:54Z</time>
      </trkpt>
      <trkpt lat="49.09947" lon="7.53418">
        <ele>386.72</ele>
        <time>2020-06-07T08:20:04Z</time>
      </trkpt>
      <trkpt lat="49.09953" lon="7.53425">
        <ele>386.82</ele>
        <time>2020-06-07T08:20:14Z</time>
      </trkpt>
      <trkpt lat="49.0996" lon="7.53433">
        <ele>386.63</ele>
        <time>2020-06-07T08:20:24Z</time>
      </trkpt>
      <trkpt lat="49.09967" lon="7.53452">
        <ele>385.69</ele>
        <time>2020-06-07T08:20:34Z</time>
      </trkpt>
      <trkpt lat="49.09968" lon="7.53456">
        <ele>385.57</ele>
        <time>2020-06-07T08:20:44Z</time>
      </trkpt>
      <trkpt lat="49.09969" lon="7.53461">
        <ele>385.57</ele>
        <time>2020-06-07T08:21:01Z</time>
      </trkpt>
      <trkpt lat="49.09973" lon="7.53465">
        <ele>383.08</ele>
        <time>2020-06-07T08:21:11Z</time>
      </trkpt>
      <trkpt lat="49.09979" lon="7.53473">
        <ele>381.06</ele>
        <time>2020-06-07T08:21:21Z</time>
      </trkpt>
      <trkpt lat="49.0999" lon="7.53489">
        <ele>380.05</ele>
        <time>2020-06-07T08:21:31Z</time>
      </trkpt>
      <trkpt lat="49.09992" lon="7.53492">
        <ele>380.56</ele>
        <time>2020-06-07T08:21:41Z</time>
      </trkpt>
      <trkpt lat="49.09994" lon="7.53494">
        <ele>381.12</ele>
        <time>2020-06-07T08:22:02Z</time>
      </trkpt>
      <trkpt lat="49.09995" lon="7.53495">
        <ele>381.77</ele>
        <time>2020-06-07T08:22:12Z</time>
      </trkpt>
      <trkpt lat="49.09996" lon="7.53496">
        <ele>382.15</ele>
        <time>2020-06-07T08:22:32Z</time>
      </trkpt>
      <trkpt lat="49.09999" lon="7.53502">
        <ele>382.92</ele>
        <time>2020-06-07T08:22:42Z</time>
      </trkpt>
      <trkpt lat="49.10006" lon="7.53508">
        <ele>384.04</ele>
        <time>2020-06-07T08:22:52Z</time>
      </trkpt>
      <trkpt lat="49.10012" lon="7.5351">
        <ele>384.35</ele>
        <time>2020-06-07T08:23:02Z</time>
      </trkpt>
      <trkpt lat="49.10015" lon="7.5351">
        <ele>384.44</ele>
        <time>2020-06-07T08:23:12Z</time>
      </trkpt>
      <trkpt lat="49.10017" lon="7.53509">
        <ele>384.74</ele>
        <time>2020-06-07T08:23:22Z</time>
      </trkpt>
      <trkpt lat="49.10019" lon="7.53509">
        <ele>384.86</ele>
        <time>2020-06-07T08:23:47Z</time>
      </trkpt>
      <trkpt lat="49.10024" lon="7.53506">
        <ele>382.57</ele>
        <time>2020-06-07T08:23:57Z</time>
      </trkpt>
      <trkpt lat="49.10032" lon="7.53493">
        <ele>383.32</ele>
        <time>2020-06-07T08:24:07Z</time>
      </trkpt>
      <trkpt lat="49.10042" lon="7.53483">
        <ele>385.05</ele>
        <time>2020-06-07T08:24:17Z</time>
      </trkpt>
      <trkpt lat="49.10052" lon="7.53475">
        <ele>387.17</ele>
        <time>2020-06-07T08:24:27Z</time>
      </trkpt>
      <trkpt lat="49.10064" lon="7.53467">
        <ele>389.38</ele>
        <time>2020-06-07T08:24:37Z</time>
      </trkpt>
      <trkpt lat="49.10079" lon="7.53473">
        <ele>391.78</ele>
        <time>2020-06-07T08:24:47Z</time>
      </trkpt>
      <trkpt lat="49.10088" lon="7.53481">
        <ele>392.5</ele>
        <time>2020-06-07T08:24:57Z</time>
      </trkpt>
      <trkpt lat="49.10098" lon="7.5349">
        <ele>393.38</ele>
        <time>2020-06-07T08:25:07Z</time>
      </trkpt>
      <trkpt lat="49.101" lon="7.53492">
        <ele>393.38</ele>
        <time>2020-06-07T08:25:17Z</time>
      </trkpt>
      <trkpt lat="49.10101" lon="7.53493">
        <ele>393.38</ele>
        <time>2020-06-07T08:25:43Z</time>
      </trkpt>
      <trkpt lat="49.10105" lon="7.53495">
        <ele>394.64</ele>
        <time>2020-06-07T08:25:53Z</time>
      </trkpt>
      <trkpt lat="49.10116" lon="7.5351">
        <ele>395.47</ele>
        <time>2020-06-07T08:26:03Z</time>
      </trkpt>
      <trkpt lat="49.10121" lon="7.53516">
        <ele>395.76</ele>
        <time>2020-06-07T08:26:13Z</time>
      </trkpt>
      <trkpt lat="49.10134" lon="7.53526">
        <ele>395.55</ele>
        <time>2020-06-07T08:26:23Z</time>
      </trkpt>
      <trkpt lat="49.10142" lon="7.53538">
        <ele>395.69</ele>
        <time>2020-06-07T08:26:33Z</time>
      </trkpt>
      <trkpt lat="49.10147" lon="7.53553">
        <ele>393.96</ele>
        <time>2020-06-07T08:26:43Z</time>
      </trkpt>
      <trkpt lat="49.10149" lon="7.53563">
        <ele>393.94</ele>
        <time>2020-06-07T08:26:53Z</time>
      </trkpt>
      <trkpt lat="49.1015" lon="7.53564">
        <ele>393.94</ele>
        <time>2020-06-07T08:27:03Z</time>
      </trkpt>
      <trkpt lat="49.10149" lon="7.53566">
        <ele>392.94</ele>
        <time>2020-06-07T08:27:16Z</time>
      </trkpt>
      <trkpt lat="49.10147" lon="7.53567">
        <ele>392.81</ele>
        <time>2020-06-07T08:27:26Z</time>
      </trkpt>
      <trkpt lat="49.10148" lon="7.53568">
        <ele>391.41</ele>
        <time>2020-06-07T08:28:23Z</time>
      </trkpt>
      <trkpt lat="49.10155" lon="7.53575">
        <ele>389.64</ele>
        <time>2020-06-07T08:28:33Z</time>
      </trkpt>
      <trkpt lat="49.10163" lon="7.53587">
        <ele>385.24</ele>
        <time>2020-06-07T08:28:43Z</time>
      </trkpt>
      <trkpt lat="49.1017" lon="7.53595">
        <ele>382.83</ele>
        <time>2020-06-07T08:28:53Z</time>
      </trkpt>
      <trkpt lat="49.10174" lon="7.53599">
        <ele>381.83</ele>
        <time>2020-06-07T08:29:03Z</time>
      </trkpt>
      <trkpt lat="49.10183" lon="7.53612">
        <ele>382.68</ele>
        <time>2020-06-07T08:29:13Z</time>
      </trkpt>
      <trkpt lat="49.10188" lon="7.5362">
        <ele>381.27</ele>
        <time>2020-06-07T08:29:23Z</time>
      </trkpt>
      <trkpt lat="49.10189" lon="7.53622">
        <ele>381.26</ele>
        <time>2020-06-07T08:29:33Z</time>
      </trkpt>
      <trkpt lat="49.10191" lon="7.53624">
        <ele>381.26</ele>
        <time>2020-06-07T08:29:43Z</time>
      </trkpt>
      <trkpt lat="49.10191" lon="7.53625">
        <ele>382.59</ele>
        <time>2020-06-07T08:30:05Z</time>
      </trkpt>
      <trkpt lat="49.10195" lon="7.53641">
        <ele>382.07</ele>
        <time>2020-06-07T08:30:15Z</time>
      </trkpt>
      <trkpt lat="49.10198" lon="7.53654">
        <ele>382.17</ele>
        <time>2020-06-07T08:30:25Z</time>
      </trkpt>
      <trkpt lat="49.102" lon="7.53669">
        <ele>384.5</ele>
        <time>2020-06-07T08:30:35Z</time>
      </trkpt>
      <trkpt lat="49.102" lon="7.53674">
        <ele>384.55</ele>
        <time>2020-06-07T08:30:45Z</time>
      </trkpt>
      <trkpt lat="49.102" lon="7.53676">
        <ele>384.08</ele>
        <time>2020-06-07T08:31:04Z</time>
      </trkpt>
      <trkpt lat="49.102" lon="7.53678">
        <ele>384.08</ele>
        <time>2020-06-07T08:31:14Z</time>
      </trkpt>
      <trkpt lat="49.10199" lon="7.53684">
        <ele>382.01</ele>
        <time>2020-06-07T08:31:24Z</time>
      </trkpt>
      <trkpt lat="49.10199" lon="7.53688">
        <ele>381.1</ele>
        <time>2020-06-07T08:31:49Z</time>
      </trkpt>
      <trkpt lat="49.102" lon="7.53691">
        <ele>380.98</ele>
        <time>2020-06-07T08:31:59Z</time>
      </trkpt>
      <trkpt lat="49.10201" lon="7.53704">
        <ele>374.87</ele>
        <time>2020-06-07T08:32:09Z</time>
      </trkpt>
      <trkpt lat="49.10203" lon="7.5371">
        <ele>373.3</ele>
        <time>2020-06-07T08:32:19Z</time>
      </trkpt>
      <trkpt lat="49.10204" lon="7.53712">
        <ele>373.29</ele>
        <time>2020-06-07T08:32:30Z</time>
      </trkpt>
      <trkpt lat="49.10205" lon="7.53712">
        <ele>372.78</ele>
        <time>2020-06-07T08:32:46Z</time>
      </trkpt>
      <trkpt lat="49.10212" lon="7.53712">
        <ele>369.46</ele>
        <time>2020-06-07T08:32:56Z</time>
      </trkpt>
      <trkpt lat="49.10213" lon="7.53712">
        <ele>369.46</ele>
        <time>2020-06-07T08:33:06Z</time>
      </trkpt>
      <trkpt lat="49.10215" lon="7.53713">
        <ele>369.81</ele>
        <time>2020-06-07T08:35:10Z</time>
      </trkpt>
      <trkpt lat="49.10221" lon="7.53719">
        <ele>371.4</ele>
        <time>2020-06-07T08:35:20Z</time>
      </trkpt>
      <trkpt lat="49.10223" lon="7.53721">
        <ele>371.37</ele>
        <time>2020-06-07T08:35:30Z</time>
      </trkpt>
      <trkpt lat="49.10228" lon="7.53734">
        <ele>373.01</ele>
        <time>2020-06-07T08:35:40Z</time>
      </trkpt>
      <trkpt lat="49.10231" lon="7.53741">
        <ele>374.32</ele>
        <time>2020-06-07T08:35:50Z</time>
      </trkpt>
      <trkpt lat="49.10233" lon="7.53744">
        <ele>375.47</ele>
        <time>2020-06-07T08:36:00Z</time>
      </trkpt>
      <trkpt lat="49.10234" lon="7.53747">
        <ele>374.48</ele>
        <time>2020-06-07T08:36:11Z</time>
      </trkpt>
      <trkpt lat="49.10235" lon="7.53748">
        <ele>373.78</ele>
        <time>2020-06-07T08:36:21Z</time>
      </trkpt>
      <trkpt lat="49.10237" lon="7.53748">
        <ele>372.98</ele>
        <time>2020-06-07T08:36:31Z</time>
      </trkpt>
      <trkpt lat="49.10237" lon="7.53749">
        <ele>372.83</ele>
        <time>2020-06-07T08:37:06Z</time>
      </trkpt>
      <trkpt lat="49.10238" lon="7.53754">
        <ele>373.73</ele>
        <time>2020-06-07T08:37:16Z</time>
      </trkpt>
      <trkpt lat="49.10238" lon="7.53755">
        <ele>373.73</ele>
        <time>2020-06-07T08:37:43Z</time>
      </trkpt>
      <trkpt lat="49.10237" lon="7.53758">
        <ele>373.27</ele>
        <time>2020-06-07T08:38:42Z</time>
      </trkpt>
      <trkpt lat="49.10232" lon="7.5376">
        <ele>372.21</ele>
        <time>2020-06-07T08:38:52Z</time>
      </trkpt>
      <trkpt lat="49.10231" lon="7.5376">
        <ele>372.21</ele>
        <time>2020-06-07T08:39:02Z</time>
      </trkpt>
      <trkpt lat="49.10226" lon="7.53759">
        <ele>370.32</ele>
        <time>2020-06-07T08:39:12Z</time>
      </trkpt>
      <trkpt lat="49.10224" lon="7.53757">
        <ele>370.32</ele>
        <time>2020-06-07T08:39:22Z</time>
      </trkpt>
      <trkpt lat="49.10219" lon="7.53756">
        <ele>369.29</ele>
        <time>2020-06-07T08:39:35Z</time>
      </trkpt>
      <trkpt lat="49.10217" lon="7.53755">
        <ele>369.28</ele>
        <time>2020-06-07T08:39:45Z</time>
      </trkpt>
      <trkpt lat="49.10217" lon="7.53754">
        <ele>367.78</ele>
        <time>2020-06-07T08:40:07Z</time>
      </trkpt>
      <trkpt lat="49.10216" lon="7.53753">
        <ele>368.14</ele>
        <time>2020-06-07T08:40:17Z</time>
      </trkpt>
      <trkpt lat="49.10216" lon="7.53751">
        <ele>368.43</ele>
        <time>2020-06-07T08:41:23Z</time>
      </trkpt>
      <trkpt lat="49.10214" lon="7.53749">
        <ele>368.76</ele>
        <time>2020-06-07T08:41:33Z</time>
      </trkpt>
      <trkpt lat="49.10209" lon="7.53743">
        <ele>368.98</ele>
        <time>2020-06-07T08:41:43Z</time>
      </trkpt>
      <trkpt lat="49.10207" lon="7.5374">
        <ele>369</ele>
        <time>2020-06-07T08:41:53Z</time>
      </trkpt>
      <trkpt lat="49.10206" lon="7.53738">
        <ele>369.56</ele>
        <time>2020-06-07T08:42:38Z</time>
      </trkpt>
      <trkpt lat="49.10205" lon="7.5373">
        <ele>370.67</ele>
        <time>2020-06-07T08:42:48Z</time>
      </trkpt>
      <trkpt lat="49.10205" lon="7.53729">
        <ele>370.67</ele>
        <time>2020-06-07T08:42:58Z</time>
      </trkpt>
      <trkpt lat="49.10205" lon="7.53726">
        <ele>370.37</ele>
        <time>2020-06-07T08:43:17Z</time>
      </trkpt>
      <trkpt lat="49.10207" lon="7.53725">
        <ele>370.38</ele>
        <time>2020-06-07T08:44:36Z</time>
      </trkpt>
      <trkpt lat="49.10207" lon="7.53727">
        <ele>370.39</ele>
        <time>2020-06-07T08:44:46Z</time>
      </trkpt>
      <trkpt lat="49.10207" lon="7.53725">
        <ele>371.76</ele>
        <time>2020-06-07T08:45:05Z</time>
      </trkpt>
      <trkpt lat="49.10206" lon="7.53722">
        <ele>372.72</ele>
        <time>2020-06-07T08:45:15Z</time>
      </trkpt>
      <trkpt lat="49.10205" lon="7.53721">
        <ele>372.72</ele>
        <time>2020-06-07T08:46:18Z</time>
      </trkpt>
      <trkpt lat="49.10204" lon="7.5372">
        <ele>373.07</ele>
        <time>2020-06-07T08:46:36Z</time>
      </trkpt>
      <trkpt lat="49.10203" lon="7.53718">
        <ele>373.08</ele>
        <time>2020-06-07T08:46:46Z</time>
      </trkpt>
      <trkpt lat="49.10216" lon="7.53715">
        <ele>367.66</ele>
        <time>2020-06-07T08:47:53Z</time>
      </trkpt>
      <trkpt lat="49.10224" lon="7.53739">
        <ele>364.5</ele>
        <time>2020-06-07T08:48:03Z</time>
      </trkpt>
      <trkpt lat="49.10226" lon="7.53749">
        <ele>365.45</ele>
        <time>2020-06-07T08:48:13Z</time>
      </trkpt>
      <trkpt lat="49.10234" lon="7.53737">
        <ele>369.15</ele>
        <time>2020-06-07T08:48:23Z</time>
      </trkpt>
      <trkpt lat="49.10238" lon="7.53736">
        <ele>371.37</ele>
        <time>2020-06-07T08:49:08Z</time>
      </trkpt>
      <trkpt lat="49.10238" lon="7.53732">
        <ele>371.3</ele>
        <time>2020-06-07T08:50:29Z</time>
      </trkpt>
      <trkpt lat="49.10242" lon="7.53714">
        <ele>368.96</ele>
        <time>2020-06-07T08:50:39Z</time>
      </trkpt>
      <trkpt lat="49.10242" lon="7.53706">
        <ele>368.87</ele>
        <time>2020-06-07T08:50:49Z</time>
      </trkpt>
      <trkpt lat="49.10242" lon="7.53704">
        <ele>368.87</ele>
        <time>2020-06-07T08:50:59Z</time>
      </trkpt>
      <trkpt lat="49.10243" lon="7.53703">
        <ele>370.01</ele>
        <time>2020-06-07T08:51:58Z</time>
      </trkpt>
      <trkpt lat="49.10247" lon="7.53698">
        <ele>372.41</ele>
        <time>2020-06-07T08:52:08Z</time>
      </trkpt>
      <trkpt lat="49.10256" lon="7.53692">
        <ele>374.99</ele>
        <time>2020-06-07T08:52:18Z</time>
      </trkpt>
      <trkpt lat="49.10275" lon="7.53691">
        <ele>381.83</ele>
        <time>2020-06-07T08:52:28Z</time>
      </trkpt>
      <trkpt lat="49.10282" lon="7.53692">
        <ele>384.15</ele>
        <time>2020-06-07T08:52:38Z</time>
      </trkpt>
      <trkpt lat="49.10293" lon="7.537">
        <ele>388.8</ele>
        <time>2020-06-07T08:52:48Z</time>
      </trkpt>
      <trkpt lat="49.10308" lon="7.53716">
        <ele>390</ele>
        <time>2020-06-07T08:52:58Z</time>
      </trkpt>
      <trkpt lat="49.10312" lon="7.53725">
        <ele>388.53</ele>
        <time>2020-06-07T08:53:08Z</time>
      </trkpt>
      <trkpt lat="49.10319" lon="7.53732">
        <ele>386.56</ele>
        <time>2020-06-07T08:53:18Z</time>
      </trkpt>
      <trkpt lat="49.10331" lon="7.53735">
        <ele>384.53</ele>
        <time>2020-06-07T08:53:28Z</time>
      </trkpt>
      <trkpt lat="49.10341" lon="7.5375">
        <ele>382.83</ele>
        <time>2020-06-07T08:53:38Z</time>
      </trkpt>
      <trkpt lat="49.10348" lon="7.53771">
        <ele>385.06</ele>
        <time>2020-06-07T08:53:48Z</time>
      </trkpt>
      <trkpt lat="49.10355" lon="7.5378">
        <ele>384.18</ele>
        <time>2020-06-07T08:53:58Z</time>
      </trkpt>
      <trkpt lat="49.1036" lon="7.53785">
        <ele>382.92</ele>
        <time>2020-06-07T08:54:08Z</time>
      </trkpt>
      <trkpt lat="49.10361" lon="7.53787">
        <ele>382.9</ele>
        <time>2020-06-07T08:54:18Z</time>
      </trkpt>
      <trkpt lat="49.10361" lon="7.53789">
        <ele>382.84</ele>
        <time>2020-06-07T08:54:36Z</time>
      </trkpt>
      <trkpt lat="49.1036" lon="7.53791">
        <ele>382.87</ele>
        <time>2020-06-07T08:54:54Z</time>
      </trkpt>
      <trkpt lat="49.10363" lon="7.53798">
        <ele>383.67</ele>
        <time>2020-06-07T08:55:04Z</time>
      </trkpt>
      <trkpt lat="49.1037" lon="7.5381">
        <ele>384.01</ele>
        <time>2020-06-07T08:55:14Z</time>
      </trkpt>
      <trkpt lat="49.10376" lon="7.53825">
        <ele>382.8</ele>
        <time>2020-06-07T08:55:24Z</time>
      </trkpt>
      <trkpt lat="49.10377" lon="7.5383">
        <ele>383.1</ele>
        <time>2020-06-07T08:55:34Z</time>
      </trkpt>
      <trkpt lat="49.10377" lon="7.53837">
        <ele>384.33</ele>
        <time>2020-06-07T08:55:44Z</time>
      </trkpt>
      <trkpt lat="49.10376" lon="7.53839">
        <ele>384.35</ele>
        <time>2020-06-07T08:55:54Z</time>
      </trkpt>
      <trkpt lat="49.10376" lon="7.5384">
        <ele>384.02</ele>
        <time>2020-06-07T08:56:06Z</time>
      </trkpt>
      <trkpt lat="49.10378" lon="7.53841">
        <ele>382.52</ele>
        <time>2020-06-07T08:56:16Z</time>
      </trkpt>
      <trkpt lat="49.10378" lon="7.53838">
        <ele>382.52</ele>
        <time>2020-06-07T08:56:26Z</time>
      </trkpt>
      <trkpt lat="49.10379" lon="7.5384">
        <ele>381.63</ele>
        <time>2020-06-07T08:56:36Z</time>
      </trkpt>
      <trkpt lat="49.1038" lon="7.5384">
        <ele>380.77</ele>
        <time>2020-06-07T08:56:46Z</time>
      </trkpt>
      <trkpt lat="49.10382" lon="7.5384">
        <ele>380.96</ele>
        <time>2020-06-07T08:56:56Z</time>
      </trkpt>
      <trkpt lat="49.10381" lon="7.53843">
        <ele>381.03</ele>
        <time>2020-06-07T08:57:06Z</time>
      </trkpt>
      <trkpt lat="49.10379" lon="7.53847">
        <ele>380.65</ele>
        <time>2020-06-07T08:58:02Z</time>
      </trkpt>
      <trkpt lat="49.10381" lon="7.53852">
        <ele>379.74</ele>
        <time>2020-06-07T08:58:12Z</time>
      </trkpt>
      <trkpt lat="49.10389" lon="7.53865">
        <ele>376.86</ele>
        <time>2020-06-07T08:58:22Z</time>
      </trkpt>
      <trkpt lat="49.10389" lon="7.53868">
        <ele>376.82</ele>
        <time>2020-06-07T08:58:32Z</time>
      </trkpt>
      <trkpt lat="49.10389" lon="7.5387">
        <ele>376.77</ele>
        <time>2020-06-07T08:59:08Z</time>
      </trkpt>
      <trkpt lat="49.10394" lon="7.53877">
        <ele>375.97</ele>
        <time>2020-06-07T08:59:18Z</time>
      </trkpt>
      <trkpt lat="49.10394" lon="7.53879">
        <ele>375.94</ele>
        <time>2020-06-07T08:59:28Z</time>
      </trkpt>
      <trkpt lat="49.10392" lon="7.53878">
        <ele>376.67</ele>
        <time>2020-06-07T08:59:38Z</time>
      </trkpt>
      <trkpt lat="49.10387" lon="7.53869">
        <ele>375.92</ele>
        <time>2020-06-07T08:59:48Z</time>
      </trkpt>
      <trkpt lat="49.1038" lon="7.53875">
        <ele>375.69</ele>
        <time>2020-06-07T09:00:00Z</time>
      </trkpt>
      <trkpt lat="49.10368" lon="7.53873">
        <ele>373.98</ele>
        <time>2020-06-07T09:00:10Z</time>
      </trkpt>
      <trkpt lat="49.10365" lon="7.53861">
        <ele>373.24</ele>
        <time>2020-06-07T09:00:20Z</time>
      </trkpt>
      <trkpt lat="49.10375" lon="7.53858">
        <ele>370.26</ele>
        <time>2020-06-07T09:00:30Z</time>
      </trkpt>
      <trkpt lat="49.10428" lon="7.53852">
        <ele>370.84</ele>
        <time>2020-06-07T09:00:40Z</time>
      </trkpt>
      <trkpt lat="49.10431" lon="7.53852">
        <ele>369.85</ele>
        <time>2020-06-07T09:00:50Z</time>
      </trkpt>
      <trkpt lat="49.10419" lon="7.5386">
        <ele>368.99</ele>
        <time>2020-06-07T09:01:00Z</time>
      </trkpt>
      <trkpt lat="49.10407" lon="7.53874">
        <ele>370.05</ele>
        <time>2020-06-07T09:01:10Z</time>
      </trkpt>
      <trkpt lat="49.10386" lon="7.53903">
        <ele>380.19</ele>
        <time>2020-06-07T09:01:20Z</time>
      </trkpt>
      <trkpt lat="49.10394" lon="7.5391">
        <ele>383.39</ele>
        <time>2020-06-07T09:01:30Z</time>
      </trkpt>
      <trkpt lat="49.10396" lon="7.53913">
        <ele>385.7</ele>
        <time>2020-06-07T09:01:40Z</time>
      </trkpt>
      <trkpt lat="49.10398" lon="7.53912">
        <ele>387.93</ele>
        <time>2020-06-07T09:01:50Z</time>
      </trkpt>
      <trkpt lat="49.10399" lon="7.53912">
        <ele>387.93</ele>
        <time>2020-06-07T09:02:12Z</time>
      </trkpt>
      <trkpt lat="49.10405" lon="7.53915">
        <ele>383.61</ele>
        <time>2020-06-07T09:02:22Z</time>
      </trkpt>
      <trkpt lat="49.10414" lon="7.53919">
        <ele>383.95</ele>
        <time>2020-06-07T09:02:32Z</time>
      </trkpt>
      <trkpt lat="49.10416" lon="7.5392">
        <ele>384.12</ele>
        <time>2020-06-07T09:02:42Z</time>
      </trkpt>
      <trkpt lat="49.10418" lon="7.53921">
        <ele>384.12</ele>
        <time>2020-06-07T09:02:52Z</time>
      </trkpt>
      <trkpt lat="49.10422" lon="7.53924">
        <ele>384.32</ele>
        <time>2020-06-07T09:03:02Z</time>
      </trkpt>
      <trkpt lat="49.10423" lon="7.53926">
        <ele>384.89</ele>
        <time>2020-06-07T09:05:05Z</time>
      </trkpt>
      <trkpt lat="49.10424" lon="7.53925">
        <ele>381.28</ele>
        <time>2020-06-07T09:05:15Z</time>
      </trkpt>
      <trkpt lat="49.10423" lon="7.53924">
        <ele>381.26</ele>
        <time>2020-06-07T09:05:25Z</time>
      </trkpt>
      <trkpt lat="49.10424" lon="7.53934">
        <ele>378.62</ele>
        <time>2020-06-07T09:05:35Z</time>
      </trkpt>
      <trkpt lat="49.10427" lon="7.5394">
        <ele>377.28</ele>
        <time>2020-06-07T09:05:45Z</time>
      </trkpt>
      <trkpt lat="49.10428" lon="7.53942">
        <ele>377.28</ele>
        <time>2020-06-07T09:05:55Z</time>
      </trkpt>
      <trkpt lat="49.10427" lon="7.53944">
        <ele>375.72</ele>
        <time>2020-06-07T09:06:30Z</time>
      </trkpt>
      <trkpt lat="49.10425" lon="7.53952">
        <ele>375.48</ele>
        <time>2020-06-07T09:06:40Z</time>
      </trkpt>
      <trkpt lat="49.10424" lon="7.53952">
        <ele>375.43</ele>
        <time>2020-06-07T09:07:31Z</time>
      </trkpt>
      <trkpt lat="49.10423" lon="7.53952">
        <ele>374.36</ele>
        <time>2020-06-07T09:08:13Z</time>
      </trkpt>
      <trkpt lat="49.10421" lon="7.53962">
        <ele>371.85</ele>
        <time>2020-06-07T09:08:23Z</time>
      </trkpt>
      <trkpt lat="49.10422" lon="7.53963">
        <ele>371.44</ele>
        <time>2020-06-07T09:08:44Z</time>
      </trkpt>
      <trkpt lat="49.10423" lon="7.53966">
        <ele>371.43</ele>
        <time>2020-06-07T09:08:54Z</time>
      </trkpt>
      <trkpt lat="49.10423" lon="7.53968">
        <ele>371.43</ele>
        <time>2020-06-07T09:09:16Z</time>
      </trkpt>
      <trkpt lat="49.10424" lon="7.53969">
        <ele>370.07</ele>
        <time>2020-06-07T09:09:43Z</time>
      </trkpt>
      <trkpt lat="49.10428" lon="7.5398">
        <ele>367.66</ele>
        <time>2020-06-07T09:09:53Z</time>
      </trkpt>
      <trkpt lat="49.1043" lon="7.53984">
        <ele>367.66</ele>
        <time>2020-06-07T09:10:32Z</time>
      </trkpt>
      <trkpt lat="49.10435" lon="7.53992">
        <ele>366.62</ele>
        <time>2020-06-07T09:10:42Z</time>
      </trkpt>
      <trkpt lat="49.10438" lon="7.54003">
        <ele>365.53</ele>
        <time>2020-06-07T09:10:52Z</time>
      </trkpt>
      <trkpt lat="49.10439" lon="7.54007">
        <ele>365.53</ele>
        <time>2020-06-07T09:11:02Z</time>
      </trkpt>
      <trkpt lat="49.1044" lon="7.54008">
        <ele>365.53</ele>
        <time>2020-06-07T09:11:17Z</time>
      </trkpt>
      <trkpt lat="49.10437" lon="7.54011">
        <ele>365.05</ele>
        <time>2020-06-07T09:12:08.001Z</time>
      </trkpt>
      <trkpt lat="49.10443" lon="7.54021">
        <ele>364.61</ele>
        <time>2020-06-07T09:12:18.001Z</time>
      </trkpt>
      <trkpt lat="49.10445" lon="7.54027">
        <ele>365.05</ele>
        <time>2020-06-07T09:12:28.001Z</time>
      </trkpt>
      <trkpt lat="49.10446" lon="7.54028">
        <ele>365.05</ele>
        <time>2020-06-07T09:12:38.001Z</time>
      </trkpt>
      <trkpt lat="49.10446" lon="7.5403">
        <ele>363.87</ele>
        <time>2020-06-07T09:12:52.001Z</time>
      </trkpt>
      <trkpt lat="49.10445" lon="7.54033">
        <ele>363.5</ele>
        <time>2020-06-07T09:13:02Z</time>
      </trkpt>
      <trkpt lat="49.10446" lon="7.54035">
        <ele>364.92</ele>
        <time>2020-06-07T09:14:28.001Z</time>
      </trkpt>
      <trkpt lat="49.10447" lon="7.54036">
        <ele>364.93</ele>
        <time>2020-06-07T09:14:38.001Z</time>
      </trkpt>
      <trkpt lat="49.10449" lon="7.54036">
        <ele>365.39</ele>
        <time>2020-06-07T09:14:57.001Z</time>
      </trkpt>
      <trkpt lat="49.10458" lon="7.54042">
        <ele>365.98</ele>
        <time>2020-06-07T09:15:07.001Z</time>
      </trkpt>
      <trkpt lat="49.10472" lon="7.54055">
        <ele>366.21</ele>
        <time>2020-06-07T09:15:17.001Z</time>
      </trkpt>
      <trkpt lat="49.10476" lon="7.54062">
        <ele>366.3</ele>
        <time>2020-06-07T09:15:27.001Z</time>
      </trkpt>
      <trkpt lat="49.10485" lon="7.54084">
        <ele>365.78</ele>
        <time>2020-06-07T09:15:37.001Z</time>
      </trkpt>
      <trkpt lat="49.10489" lon="7.54098">
        <ele>365.81</ele>
        <time>2020-06-07T09:15:47.001Z</time>
      </trkpt>
      <trkpt lat="49.10492" lon="7.5411">
        <ele>363.02</ele>
        <time>2020-06-07T09:15:57.001Z</time>
      </trkpt>
      <trkpt lat="49.10494" lon="7.54119">
        <ele>361.08</ele>
        <time>2020-06-07T09:16:07.001Z</time>
      </trkpt>
      <trkpt lat="49.10494" lon="7.54123">
        <ele>361</ele>
        <time>2020-06-07T09:16:17.001Z</time>
      </trkpt>
      <trkpt lat="49.10499" lon="7.54135">
        <ele>361.86</ele>
        <time>2020-06-07T09:16:27.001Z</time>
      </trkpt>
      <trkpt lat="49.10505" lon="7.54147">
        <ele>362.09</ele>
        <time>2020-06-07T09:16:37.001Z</time>
      </trkpt>
      <trkpt lat="49.1051" lon="7.54158">
        <ele>360.91</ele>
        <time>2020-06-07T09:16:47.001Z</time>
      </trkpt>
      <trkpt lat="49.10515" lon="7.5417">
        <ele>360.21</ele>
        <time>2020-06-07T09:16:57.001Z</time>
      </trkpt>
      <trkpt lat="49.10515" lon="7.54171">
        <ele>360.21</ele>
        <time>2020-06-07T09:17:07.001Z</time>
      </trkpt>
      <trkpt lat="49.10517" lon="7.54174">
        <ele>359</ele>
        <time>2020-06-07T09:18:55.001Z</time>
      </trkpt>
      <trkpt lat="49.10518" lon="7.54176">
        <ele>358.75</ele>
        <time>2020-06-07T09:19:05.001Z</time>
      </trkpt>
      <trkpt lat="49.10521" lon="7.54179">
        <ele>358.75</ele>
        <time>2020-06-07T09:19:17.001Z</time>
      </trkpt>
      <trkpt lat="49.10521" lon="7.54181">
        <ele>358.59</ele>
        <time>2020-06-07T09:19:31.001Z</time>
      </trkpt>
      <trkpt lat="49.10515" lon="7.54194">
        <ele>356.81</ele>
        <time>2020-06-07T09:19:41.001Z</time>
      </trkpt>
      <trkpt lat="49.10496" lon="7.54205">
        <ele>355.79</ele>
        <time>2020-06-07T09:19:51.001Z</time>
      </trkpt>
      <trkpt lat="49.10479" lon="7.54208">
        <ele>357.6</ele>
        <time>2020-06-07T09:20:01.001Z</time>
      </trkpt>
      <trkpt lat="49.10468" lon="7.54206">
        <ele>357.47</ele>
        <time>2020-06-07T09:20:11.001Z</time>
      </trkpt>
      <trkpt lat="49.10461" lon="7.54204">
        <ele>356.64</ele>
        <time>2020-06-07T09:20:21.001Z</time>
      </trkpt>
      <trkpt lat="49.10453" lon="7.54198">
        <ele>355.36</ele>
        <time>2020-06-07T09:20:31.001Z</time>
      </trkpt>
      <trkpt lat="49.10446" lon="7.54189">
        <ele>357.22</ele>
        <time>2020-06-07T09:21:56.001Z</time>
      </trkpt>
      <trkpt lat="49.10445" lon="7.54189">
        <ele>356.87</ele>
        <time>2020-06-07T09:22:14.001Z</time>
      </trkpt>
      <trkpt lat="49.10437" lon="7.54187">
        <ele>356.2</ele>
        <time>2020-06-07T09:22:24.001Z</time>
      </trkpt>
      <trkpt lat="49.1042" lon="7.54176">
        <ele>354.56</ele>
        <time>2020-06-07T09:22:34.001Z</time>
      </trkpt>
      <trkpt lat="49.10408" lon="7.54167">
        <ele>355.07</ele>
        <time>2020-06-07T09:22:44.001Z</time>
      </trkpt>
      <trkpt lat="49.10397" lon="7.5415">
        <ele>355.54</ele>
        <time>2020-06-07T09:22:54.001Z</time>
      </trkpt>
      <trkpt lat="49.10387" lon="7.5413">
        <ele>354.27</ele>
        <time>2020-06-07T09:23:04.001Z</time>
      </trkpt>
      <trkpt lat="49.1038" lon="7.54113">
        <ele>354.03</ele>
        <time>2020-06-07T09:23:14.001Z</time>
      </trkpt>
      <trkpt lat="49.10372" lon="7.54094">
        <ele>350.59</ele>
        <time>2020-06-07T09:23:24.001Z</time>
      </trkpt>
      <trkpt lat="49.10364" lon="7.54078">
        <ele>350.32</ele>
        <time>2020-06-07T09:23:34.001Z</time>
      </trkpt>
      <trkpt lat="49.10357" lon="7.5406">
        <ele>349.37</ele>
        <time>2020-06-07T09:23:44.001Z</time>
      </trkpt>
      <trkpt lat="49.10353" lon="7.5404">
        <ele>348.51</ele>
        <time>2020-06-07T09:23:54.001Z</time>
      </trkpt>
      <trkpt lat="49.10349" lon="7.54021">
        <ele>344.51</ele>
        <time>2020-06-07T09:24:04.001Z</time>
      </trkpt>
      <trkpt lat="49.10344" lon="7.54">
        <ele>342.46</ele>
        <time>2020-06-07T09:24:14.001Z</time>
      </trkpt>
      <trkpt lat="49.10344" lon="7.53988">
        <ele>343.16</ele>
        <time>2020-06-07T09:24:24.001Z</time>
      </trkpt>
      <trkpt lat="49.10345" lon="7.5399">
        <ele>343.16</ele>
        <time>2020-06-07T09:24:34.001Z</time>
      </trkpt>
      <trkpt lat="49.1034" lon="7.53982">
        <ele>344.93</ele>
        <time>2020-06-07T09:24:44.001Z</time>
      </trkpt>
      <trkpt lat="49.10336" lon="7.53968">
        <ele>345.66</ele>
        <time>2020-06-07T09:24:54.001Z</time>
      </trkpt>
      <trkpt lat="49.1033" lon="7.53945">
        <ele>347.07</ele>
        <time>2020-06-07T09:25:04.001Z</time>
      </trkpt>
      <trkpt lat="49.10321" lon="7.53922">
        <ele>348.72</ele>
        <time>2020-06-07T09:25:14.001Z</time>
      </trkpt>
      <trkpt lat="49.1031" lon="7.53915">
        <ele>350.72</ele>
        <time>2020-06-07T09:25:24.001Z</time>
      </trkpt>
      <trkpt lat="49.10298" lon="7.53923">
        <ele>352.52</ele>
        <time>2020-06-07T09:25:34.001Z</time>
      </trkpt>
      <trkpt lat="49.1029" lon="7.53929">
        <ele>355.14</ele>
        <time>2020-06-07T09:25:44.001Z</time>
      </trkpt>
      <trkpt lat="49.10283" lon="7.53931">
        <ele>356.69</ele>
        <time>2020-06-07T09:25:54.001Z</time>
      </trkpt>
      <trkpt lat="49.10273" lon="7.5393">
        <ele>359.47</ele>
        <time>2020-06-07T09:26:04.001Z</time>
      </trkpt>
      <trkpt lat="49.10259" lon="7.53929">
        <ele>358.89</ele>
        <time>2020-06-07T09:26:14.001Z</time>
      </trkpt>
      <trkpt lat="49.10243" lon="7.53929">
        <ele>357.16</ele>
        <time>2020-06-07T09:26:24.001Z</time>
      </trkpt>
      <trkpt lat="49.10228" lon="7.53926">
        <ele>358.29</ele>
        <time>2020-06-07T09:26:34.001Z</time>
      </trkpt>
      <trkpt lat="49.10215" lon="7.53918">
        <ele>357.09</ele>
        <time>2020-06-07T09:26:44.001Z</time>
      </trkpt>
      <trkpt lat="49.10202" lon="7.53903">
        <ele>355.27</ele>
        <time>2020-06-07T09:26:54.001Z</time>
      </trkpt>
      <trkpt lat="49.10193" lon="7.53886">
        <ele>353.13</ele>
        <time>2020-06-07T09:27:04.001Z</time>
      </trkpt>
      <trkpt lat="49.10191" lon="7.53874">
        <ele>350.75</ele>
        <time>2020-06-07T09:27:14.001Z</time>
      </trkpt>
      <trkpt lat="49.10185" lon="7.53854">
        <ele>348.35</ele>
        <time>2020-06-07T09:27:24.001Z</time>
      </trkpt>
      <trkpt lat="49.10178" lon="7.53832">
        <ele>345.76</ele>
        <time>2020-06-07T09:27:34.001Z</time>
      </trkpt>
      <trkpt lat="49.1017" lon="7.53819">
        <ele>346.33</ele>
        <time>2020-06-07T09:27:44.001Z</time>
      </trkpt>
      <trkpt lat="49.1016" lon="7.53811">
        <ele>345.86</ele>
        <time>2020-06-07T09:27:54.001Z</time>
      </trkpt>
      <trkpt lat="49.10145" lon="7.53796">
        <ele>347.07</ele>
        <time>2020-06-07T09:28:04.001Z</time>
      </trkpt>
      <trkpt lat="49.10133" lon="7.53774">
        <ele>345.58</ele>
        <time>2020-06-07T09:28:14.001Z</time>
      </trkpt>
      <trkpt lat="49.10122" lon="7.53752">
        <ele>346.65</ele>
        <time>2020-06-07T09:28:24.001Z</time>
      </trkpt>
      <trkpt lat="49.10112" lon="7.53732">
        <ele>347.46</ele>
        <time>2020-06-07T09:28:34.001Z</time>
      </trkpt>
      <trkpt lat="49.10104" lon="7.53716">
        <ele>345.97</ele>
        <time>2020-06-07T09:28:44.001Z</time>
      </trkpt>
      <trkpt lat="49.10094" lon="7.53704">
        <ele>347.14</ele>
        <time>2020-06-07T09:28:54.001Z</time>
      </trkpt>
      <trkpt lat="49.10087" lon="7.53696">
        <ele>347.45</ele>
        <time>2020-06-07T09:29:04.001Z</time>
      </trkpt>
      <trkpt lat="49.10076" lon="7.53694">
        <ele>348</ele>
        <time>2020-06-07T09:29:14.001Z</time>
      </trkpt>
      <trkpt lat="49.10067" lon="7.53701">
        <ele>351.31</ele>
        <time>2020-06-07T09:29:24.001Z</time>
      </trkpt>
      <trkpt lat="49.10067" lon="7.53702">
        <ele>351.95</ele>
        <time>2020-06-07T09:29:34.001Z</time>
      </trkpt>
      <trkpt lat="49.10068" lon="7.537">
        <ele>351.83</ele>
        <time>2020-06-07T09:30:00.001Z</time>
      </trkpt>
      <trkpt lat="49.10057" lon="7.53707">
        <ele>351.99</ele>
        <time>2020-06-07T09:30:10.001Z</time>
      </trkpt>
      <trkpt lat="49.10054" lon="7.53716">
        <ele>349.48</ele>
        <time>2020-06-07T09:30:20.001Z</time>
      </trkpt>
      <trkpt lat="49.10054" lon="7.53728">
        <ele>351.64</ele>
        <time>2020-06-07T09:30:30.001Z</time>
      </trkpt>
      <trkpt lat="49.10051" lon="7.53738">
        <ele>353.19</ele>
        <time>2020-06-07T09:30:40.001Z</time>
      </trkpt>
      <trkpt lat="49.10041" lon="7.5375">
        <ele>353.66</ele>
        <time>2020-06-07T09:30:50.001Z</time>
      </trkpt>
      <trkpt lat="49.10025" lon="7.53758">
        <ele>359.95</ele>
        <time>2020-06-07T09:31:00.001Z</time>
      </trkpt>
      <trkpt lat="49.10016" lon="7.53757">
        <ele>360.19</ele>
        <time>2020-06-07T09:31:10.001Z</time>
      </trkpt>
      <trkpt lat="49.10005" lon="7.5375">
        <ele>360.8</ele>
        <time>2020-06-07T09:31:20.001Z</time>
      </trkpt>
      <trkpt lat="49.09991" lon="7.53742">
        <ele>362.55</ele>
        <time>2020-06-07T09:31:30.001Z</time>
      </trkpt>
      <trkpt lat="49.09981" lon="7.53733">
        <ele>360.3</ele>
        <time>2020-06-07T09:31:40.001Z</time>
      </trkpt>
      <trkpt lat="49.0997" lon="7.53719">
        <ele>359.82</ele>
        <time>2020-06-07T09:31:50.001Z</time>
      </trkpt>
      <trkpt lat="49.09958" lon="7.53701">
        <ele>360.87</ele>
        <time>2020-06-07T09:32:00.001Z</time>
      </trkpt>
      <trkpt lat="49.09951" lon="7.53691">
        <ele>361.57</ele>
        <time>2020-06-07T09:32:10.001Z</time>
      </trkpt>
      <trkpt lat="49.09942" lon="7.53673">
        <ele>361.27</ele>
        <time>2020-06-07T09:32:20.001Z</time>
      </trkpt>
      <trkpt lat="49.09932" lon="7.53657">
        <ele>360.38</ele>
        <time>2020-06-07T09:32:30.001Z</time>
      </trkpt>
      <trkpt lat="49.09925" lon="7.53645">
        <ele>361.13</ele>
        <time>2020-06-07T09:32:40.001Z</time>
      </trkpt>
      <trkpt lat="49.09919" lon="7.5363">
        <ele>361.56</ele>
        <time>2020-06-07T09:32:50.001Z</time>
      </trkpt>
      <trkpt lat="49.09909" lon="7.53625">
        <ele>362.81</ele>
        <time>2020-06-07T09:33:00.001Z</time>
      </trkpt>
      <trkpt lat="49.09905" lon="7.53626">
        <ele>362.81</ele>
        <time>2020-06-07T09:33:15.001Z</time>
      </trkpt>
      <trkpt lat="49.09904" lon="7.53618">
        <ele>363.63</ele>
        <time>2020-06-07T09:33:25.001Z</time>
      </trkpt>
      <trkpt lat="49.09904" lon="7.53616">
        <ele>364.06</ele>
        <time>2020-06-07T09:33:35.001Z</time>
      </trkpt>
      <trkpt lat="49.09898" lon="7.53607">
        <ele>365.84</ele>
        <time>2020-06-07T09:33:45.001Z</time>
      </trkpt>
      <trkpt lat="49.09884" lon="7.53592">
        <ele>366.47</ele>
        <time>2020-06-07T09:33:55.001Z</time>
      </trkpt>
      <trkpt lat="49.09874" lon="7.53579">
        <ele>365.85</ele>
        <time>2020-06-07T09:34:05.001Z</time>
      </trkpt>
      <trkpt lat="49.09863" lon="7.53567">
        <ele>367.02</ele>
        <time>2020-06-07T09:34:15.001Z</time>
      </trkpt>
      <trkpt lat="49.09853" lon="7.53557">
        <ele>367.57</ele>
        <time>2020-06-07T09:34:25.001Z</time>
      </trkpt>
      <trkpt lat="49.09843" lon="7.53553">
        <ele>366.67</ele>
        <time>2020-06-07T09:34:35.001Z</time>
      </trkpt>
      <trkpt lat="49.0984" lon="7.53548">
        <ele>366.9</ele>
        <time>2020-06-07T09:34:45.001Z</time>
      </trkpt>
      <trkpt lat="49.09837" lon="7.53548">
        <ele>365.87</ele>
        <time>2020-06-07T09:34:55.001Z</time>
      </trkpt>
      <trkpt lat="49.09831" lon="7.53548">
        <ele>364.71</ele>
        <time>2020-06-07T09:35:05.001Z</time>
      </trkpt>
      <trkpt lat="49.09812" lon="7.53572">
        <ele>362.15</ele>
        <time>2020-06-07T09:35:15.001Z</time>
      </trkpt>
      <trkpt lat="49.09803" lon="7.5358">
        <ele>361.45</ele>
        <time>2020-06-07T09:35:25.001Z</time>
      </trkpt>
      <trkpt lat="49.09792" lon="7.53585">
        <ele>360.05</ele>
        <time>2020-06-07T09:35:35.001Z</time>
      </trkpt>
      <trkpt lat="49.09777" lon="7.53591">
        <ele>357.04</ele>
        <time>2020-06-07T09:35:45.001Z</time>
      </trkpt>
      <trkpt lat="49.09772" lon="7.53595">
        <ele>356.52</ele>
        <time>2020-06-07T09:35:55.001Z</time>
      </trkpt>
      <trkpt lat="49.09755" lon="7.53613">
        <ele>356.36</ele>
        <time>2020-06-07T09:36:05.001Z</time>
      </trkpt>
      <trkpt lat="49.09748" lon="7.53623">
        <ele>356.04</ele>
        <time>2020-06-07T09:36:15.001Z</time>
      </trkpt>
      <trkpt lat="49.0974" lon="7.53641">
        <ele>358.15</ele>
        <time>2020-06-07T09:36:25.001Z</time>
      </trkpt>
      <trkpt lat="49.09727" lon="7.5366">
        <ele>358.84</ele>
        <time>2020-06-07T09:36:35.001Z</time>
      </trkpt>
      <trkpt lat="49.09719" lon="7.53676">
        <ele>358.12</ele>
        <time>2020-06-07T09:36:45.001Z</time>
      </trkpt>
      <trkpt lat="49.09725" lon="7.53676">
        <ele>357</ele>
        <time>2020-06-07T09:36:55.001Z</time>
      </trkpt>
      <trkpt lat="49.09726" lon="7.53673">
        <ele>357.38</ele>
        <time>2020-06-07T09:37:18.001Z</time>
      </trkpt>
      <trkpt lat="49.09724" lon="7.53679">
        <ele>359.27</ele>
        <time>2020-06-07T09:37:28.001Z</time>
      </trkpt>
      <trkpt lat="49.09724" lon="7.53681">
        <ele>359.27</ele>
        <time>2020-06-07T09:37:38.001Z</time>
      </trkpt>
      <trkpt lat="49.09722" lon="7.53682">
        <ele>358.36</ele>
        <time>2020-06-07T09:38:12.001Z</time>
      </trkpt>
      <trkpt lat="49.0972" lon="7.53683">
        <ele>356.42</ele>
        <time>2020-06-07T09:38:22.001Z</time>
      </trkpt>
      <trkpt lat="49.09717" lon="7.53688">
        <ele>356.42</ele>
        <time>2020-06-07T09:39:00.001Z</time>
      </trkpt>
      <trkpt lat="49.09717" lon="7.53693">
        <ele>356.09</ele>
        <time>2020-06-07T09:39:10.001Z</time>
      </trkpt>
      <trkpt lat="49.09707" lon="7.53715">
        <ele>356.48</ele>
        <time>2020-06-07T09:39:20.001Z</time>
      </trkpt>
      <trkpt lat="49.09703" lon="7.53724">
        <ele>356.47</ele>
        <time>2020-06-07T09:39:30.001Z</time>
      </trkpt>
      <trkpt lat="49.097" lon="7.53729">
        <ele>355.33</ele>
        <time>2020-06-07T09:39:40.001Z</time>
      </trkpt>
      <trkpt lat="49.09693" lon="7.53738">
        <ele>355.6</ele>
        <time>2020-06-07T09:39:50.001Z</time>
      </trkpt>
      <trkpt lat="49.09688" lon="7.5375">
        <ele>351.59</ele>
        <time>2020-06-07T09:40:00.001Z</time>
      </trkpt>
      <trkpt lat="49.0968" lon="7.53779">
        <ele>351.51</ele>
        <time>2020-06-07T09:40:10.001Z</time>
      </trkpt>
      <trkpt lat="49.09676" lon="7.53806">
        <ele>354.97</ele>
        <time>2020-06-07T09:40:20.001Z</time>
      </trkpt>
      <trkpt lat="49.09674" lon="7.53824">
        <ele>358.47</ele>
        <time>2020-06-07T09:40:30.001Z</time>
      </trkpt>
      <trkpt lat="49.09672" lon="7.53821">
        <ele>358.6</ele>
        <time>2020-06-07T09:40:40.001Z</time>
      </trkpt>
      <trkpt lat="49.09674" lon="7.53821">
        <ele>358.05</ele>
        <time>2020-06-07T09:42:15.001Z</time>
      </trkpt>
      <trkpt lat="49.09673" lon="7.5382">
        <ele>357.79</ele>
        <time>2020-06-07T09:43:31.001Z</time>
      </trkpt>
      <trkpt lat="49.0966" lon="7.53798">
        <ele>355.08</ele>
        <time>2020-06-07T09:43:41.001Z</time>
      </trkpt>
      <trkpt lat="49.09656" lon="7.53772">
        <ele>350.71</ele>
        <time>2020-06-07T09:43:51.001Z</time>
      </trkpt>
      <trkpt lat="49.09653" lon="7.53751">
        <ele>348.14</ele>
        <time>2020-06-07T09:44:01.001Z</time>
      </trkpt>
      <trkpt lat="49.09652" lon="7.53741">
        <ele>348.62</ele>
        <time>2020-06-07T09:44:11.001Z</time>
      </trkpt>
      <trkpt lat="49.09652" lon="7.53738">
        <ele>348.62</ele>
        <time>2020-06-07T09:44:21.001Z</time>
      </trkpt>
      <trkpt lat="49.09651" lon="7.53737">
        <ele>348.62</ele>
        <time>2020-06-07T09:45:34.001Z</time>
      </trkpt>
      <trkpt lat="49.09651" lon="7.53739">
        <ele>348.72</ele>
        <time>2020-06-07T09:45:44.001Z</time>
      </trkpt>
      <trkpt lat="49.09646" lon="7.53743">
        <ele>349.93</ele>
        <time>2020-06-07T09:45:54.001Z</time>
      </trkpt>
      <trkpt lat="49.09644" lon="7.53743">
        <ele>349.93</ele>
        <time>2020-06-07T09:46:19.001Z</time>
      </trkpt>
      <trkpt lat="49.09645" lon="7.53742">
        <ele>350</ele>
        <time>2020-06-07T09:46:39.001Z</time>
      </trkpt>
      <trkpt lat="49.0966" lon="7.53749">
        <ele>351.29</ele>
        <time>2020-06-07T09:46:49.001Z</time>
      </trkpt>
      <trkpt lat="49.09674" lon="7.5377">
        <ele>354.3</ele>
        <time>2020-06-07T09:46:59.001Z</time>
      </trkpt>
      <trkpt lat="49.09678" lon="7.53784">
        <ele>356.73</ele>
        <time>2020-06-07T09:47:09.001Z</time>
      </trkpt>
      <trkpt lat="49.09677" lon="7.5379">
        <ele>357.41</ele>
        <time>2020-06-07T09:47:19.001Z</time>
      </trkpt>
      <trkpt lat="49.09678" lon="7.53795">
        <ele>360.62</ele>
        <time>2020-06-07T09:47:29.001Z</time>
      </trkpt>
      <trkpt lat="49.09677" lon="7.53797">
        <ele>363.01</ele>
        <time>2020-06-07T09:47:39.001Z</time>
      </trkpt>
      <trkpt lat="49.09668" lon="7.53802">
        <ele>362.84</ele>
        <time>2020-06-07T09:47:49.001Z</time>
      </trkpt>
      <trkpt lat="49.09659" lon="7.5382">
        <ele>360.39</ele>
        <time>2020-06-07T09:47:59.001Z</time>
      </trkpt>
      <trkpt lat="49.09655" lon="7.53832">
        <ele>359.48</ele>
        <time>2020-06-07T09:48:09.001Z</time>
      </trkpt>
      <trkpt lat="49.09654" lon="7.53834">
        <ele>359.48</ele>
        <time>2020-06-07T09:48:19.001Z</time>
      </trkpt>
      <trkpt lat="49.09653" lon="7.53835">
        <ele>356.13</ele>
        <time>2020-06-07T09:49:06.001Z</time>
      </trkpt>
      <trkpt lat="49.09632" lon="7.53834">
        <ele>355.63</ele>
        <time>2020-06-07T09:49:16Z</time>
      </trkpt>
      <trkpt lat="49.09619" lon="7.53823">
        <ele>357.4</ele>
        <time>2020-06-07T09:49:25.001Z</time>
      </trkpt>
      <trkpt lat="49.09599" lon="7.53794">
        <ele>356.01</ele>
        <time>2020-06-07T09:49:35.001Z</time>
      </trkpt>
      <trkpt lat="49.09593" lon="7.53785">
        <ele>356.01</ele>
        <time>2020-06-07T09:49:45.001Z</time>
      </trkpt>
      <trkpt lat="49.09592" lon="7.53784">
        <ele>356.01</ele>
        <time>2020-06-07T09:49:55.001Z</time>
      </trkpt>
      <trkpt lat="49.09591" lon="7.53783">
        <ele>356.06</ele>
        <time>2020-06-07T09:50:17.001Z</time>
      </trkpt>
      <trkpt lat="49.09581" lon="7.53771">
        <ele>356.55</ele>
        <time>2020-06-07T09:50:27.001Z</time>
      </trkpt>
      <trkpt lat="49.09578" lon="7.53768">
        <ele>356.55</ele>
        <time>2020-06-07T09:50:37.001Z</time>
      </trkpt>
      <trkpt lat="49.09577" lon="7.53767">
        <ele>358.05</ele>
        <time>2020-06-07T09:50:49.001Z</time>
      </trkpt>
      <trkpt lat="49.09561" lon="7.53755">
        <ele>361.3</ele>
        <time>2020-06-07T09:50:59.001Z</time>
      </trkpt>
      <trkpt lat="49.09552" lon="7.53749">
        <ele>361.38</ele>
        <time>2020-06-07T09:51:09.001Z</time>
      </trkpt>
      <trkpt lat="49.09543" lon="7.53742">
        <ele>363.31</ele>
        <time>2020-06-07T09:51:19.001Z</time>
      </trkpt>
      <trkpt lat="49.09529" lon="7.53725">
        <ele>362.36</ele>
        <time>2020-06-07T09:51:29.001Z</time>
      </trkpt>
      <trkpt lat="49.09526" lon="7.53718">
        <ele>362.36</ele>
        <time>2020-06-07T09:52:00.001Z</time>
      </trkpt>
      <trkpt lat="49.09524" lon="7.53716">
        <ele>362.73</ele>
        <time>2020-06-07T09:52:20.001Z</time>
      </trkpt>
      <trkpt lat="49.09518" lon="7.53713">
        <ele>364.77</ele>
        <time>2020-06-07T09:52:30.001Z</time>
      </trkpt>
      <trkpt lat="49.09514" lon="7.53711">
        <ele>367.34</ele>
        <time>2020-06-07T09:52:40.001Z</time>
      </trkpt>
      <trkpt lat="49.09505" lon="7.53707">
        <ele>368.89</ele>
        <time>2020-06-07T09:52:50.001Z</time>
      </trkpt>
      <trkpt lat="49.09497" lon="7.53704">
        <ele>372.08</ele>
        <time>2020-06-07T09:53:00.001Z</time>
      </trkpt>
      <trkpt lat="49.09486" lon="7.53692">
        <ele>377.17</ele>
        <time>2020-06-07T09:53:10.001Z</time>
      </trkpt>
      <trkpt lat="49.09481" lon="7.53688">
        <ele>377.58</ele>
        <time>2020-06-07T09:53:20.001Z</time>
      </trkpt>
      <trkpt lat="49.09471" lon="7.53682">
        <ele>380.07</ele>
        <time>2020-06-07T09:53:30.001Z</time>
      </trkpt>
      <trkpt lat="49.09457" lon="7.53672">
        <ele>386.44</ele>
        <time>2020-06-07T09:53:40.001Z</time>
      </trkpt>
      <trkpt lat="49.09448" lon="7.53666">
        <ele>388.44</ele>
        <time>2020-06-07T09:53:50.001Z</time>
      </trkpt>
      <trkpt lat="49.09439" lon="7.5366">
        <ele>390</ele>
        <time>2020-06-07T09:54:00.001Z</time>
      </trkpt>
      <trkpt lat="49.09429" lon="7.53652">
        <ele>389.18</ele>
        <time>2020-06-07T09:54:10.001Z</time>
      </trkpt>
      <trkpt lat="49.09418" lon="7.53641">
        <ele>388.4</ele>
        <time>2020-06-07T09:54:20.001Z</time>
      </trkpt>
      <trkpt lat="49.09404" lon="7.53625">
        <ele>389.93</ele>
        <time>2020-06-07T09:54:30.001Z</time>
      </trkpt>
      <trkpt lat="49.09383" lon="7.53613">
        <ele>389.58</ele>
        <time>2020-06-07T09:54:40.001Z</time>
      </trkpt>
      <trkpt lat="49.09371" lon="7.5361">
        <ele>387.97</ele>
        <time>2020-06-07T09:54:50.001Z</time>
      </trkpt>
      <trkpt lat="49.0936" lon="7.53612">
        <ele>386.74</ele>
        <time>2020-06-07T09:55:00.001Z</time>
      </trkpt>
      <trkpt lat="49.0935" lon="7.53619">
        <ele>385.19</ele>
        <time>2020-06-07T09:55:10.001Z</time>
      </trkpt>
      <trkpt lat="49.09342" lon="7.53631">
        <ele>382.05</ele>
        <time>2020-06-07T09:55:20.001Z</time>
      </trkpt>
      <trkpt lat="49.09332" lon="7.5365">
        <ele>379.4</ele>
        <time>2020-06-07T09:55:30.001Z</time>
      </trkpt>
      <trkpt lat="49.09328" lon="7.53667">
        <ele>376.64</ele>
        <time>2020-06-07T09:55:40.001Z</time>
      </trkpt>
      <trkpt lat="49.09325" lon="7.53676">
        <ele>375.46</ele>
        <time>2020-06-07T09:55:50.001Z</time>
      </trkpt>
      <trkpt lat="49.0932" lon="7.53686">
        <ele>374.34</ele>
        <time>2020-06-07T09:56:00.001Z</time>
      </trkpt>
      <trkpt lat="49.09312" lon="7.53704">
        <ele>372.3</ele>
        <time>2020-06-07T09:56:10.001Z</time>
      </trkpt>
      <trkpt lat="49.09306" lon="7.53719">
        <ele>370.76</ele>
        <time>2020-06-07T09:56:20.001Z</time>
      </trkpt>
      <trkpt lat="49.09299" lon="7.53736">
        <ele>369.52</ele>
        <time>2020-06-07T09:56:30.001Z</time>
      </trkpt>
      <trkpt lat="49.09289" lon="7.53747">
        <ele>368.28</ele>
        <time>2020-06-07T09:56:40.001Z</time>
      </trkpt>
      <trkpt lat="49.0928" lon="7.53761">
        <ele>367.7</ele>
        <time>2020-06-07T09:56:50.001Z</time>
      </trkpt>
      <trkpt lat="49.09275" lon="7.53771">
        <ele>367.93</ele>
        <time>2020-06-07T09:57:00.001Z</time>
      </trkpt>
      <trkpt lat="49.09268" lon="7.53785">
        <ele>366.88</ele>
        <time>2020-06-07T09:57:10.001Z</time>
      </trkpt>
      <trkpt lat="49.0926" lon="7.53801">
        <ele>363.46</ele>
        <time>2020-06-07T09:57:20.001Z</time>
      </trkpt>
      <trkpt lat="49.09254" lon="7.53815">
        <ele>363.28</ele>
        <time>2020-06-07T09:57:30.001Z</time>
      </trkpt>
      <trkpt lat="49.09246" lon="7.53833">
        <ele>363.02</ele>
        <time>2020-06-07T09:57:40.001Z</time>
      </trkpt>
      <trkpt lat="49.09241" lon="7.53848">
        <ele>364.56</ele>
        <time>2020-06-07T09:57:50.001Z</time>
      </trkpt>
      <trkpt lat="49.09235" lon="7.53869">
        <ele>363.15</ele>
        <time>2020-06-07T09:58:00.001Z</time>
      </trkpt>
      <trkpt lat="49.0923" lon="7.53889">
        <ele>362.16</ele>
        <time>2020-06-07T09:58:10.001Z</time>
      </trkpt>
      <trkpt lat="49.09226" lon="7.53907">
        <ele>361.92</ele>
        <time>2020-06-07T09:58:20.001Z</time>
      </trkpt>
      <trkpt lat="49.09229" lon="7.53913">
        <ele>362.62</ele>
        <time>2020-06-07T09:58:30.001Z</time>
      </trkpt>
      <trkpt lat="49.09226" lon="7.53927">
        <ele>363.09</ele>
        <time>2020-06-07T09:58:40.001Z</time>
      </trkpt>
      <trkpt lat="49.09222" lon="7.53944">
        <ele>364.46</ele>
        <time>2020-06-07T09:58:50.001Z</time>
      </trkpt>
      <trkpt lat="49.09218" lon="7.53967">
        <ele>362.77</ele>
        <time>2020-06-07T09:59:00.001Z</time>
      </trkpt>
      <trkpt lat="49.09213" lon="7.53988">
        <ele>361.4</ele>
        <time>2020-06-07T09:59:10.001Z</time>
      </trkpt>
      <trkpt lat="49.09209" lon="7.53994">
        <ele>360.86</ele>
        <time>2020-06-07T09:59:20.001Z</time>
      </trkpt>
      <trkpt lat="49.092" lon="7.54002">
        <ele>360.32</ele>
        <time>2020-06-07T09:59:30.001Z</time>
      </trkpt>
      <trkpt lat="49.09193" lon="7.54014">
        <ele>361.3</ele>
        <time>2020-06-07T09:59:40.001Z</time>
      </trkpt>
      <trkpt lat="49.09191" lon="7.54019">
        <ele>361.3</ele>
        <time>2020-06-07T09:59:50.001Z</time>
      </trkpt>
      <trkpt lat="49.09193" lon="7.54024">
        <ele>362.93</ele>
        <time>2020-06-07T10:00:00.001Z</time>
      </trkpt>
      <trkpt lat="49.09192" lon="7.54025">
        <ele>362.93</ele>
        <time>2020-06-07T10:00:10.001Z</time>
      </trkpt>
      <trkpt lat="49.09191" lon="7.54026">
        <ele>364.24</ele>
        <time>2020-06-07T10:00:25.001Z</time>
      </trkpt>
      <trkpt lat="49.09181" lon="7.54032">
        <ele>366.46</ele>
        <time>2020-06-07T10:00:35.001Z</time>
      </trkpt>
      <trkpt lat="49.09165" lon="7.54046">
        <ele>371.36</ele>
        <time>2020-06-07T10:00:45.001Z</time>
      </trkpt>
      <trkpt lat="49.09157" lon="7.54054">
        <ele>369.78</ele>
        <time>2020-06-07T10:00:55.001Z</time>
      </trkpt>
      <trkpt lat="49.09147" lon="7.54065">
        <ele>370.24</ele>
        <time>2020-06-07T10:01:05.001Z</time>
      </trkpt>
      <trkpt lat="49.09142" lon="7.54071">
        <ele>370.95</ele>
        <time>2020-06-07T10:01:15.001Z</time>
      </trkpt>
      <trkpt lat="49.09138" lon="7.54079">
        <ele>370.15</ele>
        <time>2020-06-07T10:01:24.002Z</time>
      </trkpt>
      <trkpt lat="49.09128" lon="7.54091">
        <ele>376.89</ele>
        <time>2020-06-07T10:01:34.001Z</time>
      </trkpt>
      <trkpt lat="49.09123" lon="7.54095">
        <ele>377.04</ele>
        <time>2020-06-07T10:01:44.001Z</time>
      </trkpt>
      <trkpt lat="49.0912" lon="7.54097">
        <ele>377.04</ele>
        <time>2020-06-07T10:02:12.001Z</time>
      </trkpt>
      <trkpt lat="49.0912" lon="7.54099">
        <ele>378.39</ele>
        <time>2020-06-07T10:03:05.001Z</time>
      </trkpt>
      <trkpt lat="49.0912" lon="7.54107">
        <ele>380.47</ele>
        <time>2020-06-07T10:03:15.001Z</time>
      </trkpt>
      <trkpt lat="49.09119" lon="7.54109">
        <ele>380.55</ele>
        <time>2020-06-07T10:03:25.001Z</time>
      </trkpt>
      <trkpt lat="49.09117" lon="7.54112">
        <ele>380.08</ele>
        <time>2020-06-07T10:03:35.001Z</time>
      </trkpt>
      <trkpt lat="49.09114" lon="7.54117">
        <ele>379.99</ele>
        <time>2020-06-07T10:03:45.001Z</time>
      </trkpt>
      <trkpt lat="49.09104" lon="7.5413">
        <ele>381</ele>
        <time>2020-06-07T10:03:55.001Z</time>
      </trkpt>
      <trkpt lat="49.0909" lon="7.54143">
        <ele>381.49</ele>
        <time>2020-06-07T10:04:05.001Z</time>
      </trkpt>
      <trkpt lat="49.09086" lon="7.54145">
        <ele>381.49</ele>
        <time>2020-06-07T10:04:15.001Z</time>
      </trkpt>
      <trkpt lat="49.09088" lon="7.5415">
        <ele>382.42</ele>
        <time>2020-06-07T10:04:25.001Z</time>
      </trkpt>
      <trkpt lat="49.09089" lon="7.54159">
        <ele>381.35</ele>
        <time>2020-06-07T10:04:35.001Z</time>
      </trkpt>
      <trkpt lat="49.09086" lon="7.54171">
        <ele>378.77</ele>
        <time>2020-06-07T10:04:45.001Z</time>
      </trkpt>
      <trkpt lat="49.0908" lon="7.54182">
        <ele>378.1</ele>
        <time>2020-06-07T10:04:55.001Z</time>
      </trkpt>
      <trkpt lat="49.09079" lon="7.54184">
        <ele>378.1</ele>
        <time>2020-06-07T10:05:05.001Z</time>
      </trkpt>
      <trkpt lat="49.09078" lon="7.54185">
        <ele>377.66</ele>
        <time>2020-06-07T10:05:21.001Z</time>
      </trkpt>
      <trkpt lat="49.09059" lon="7.54208">
        <ele>373.51</ele>
        <time>2020-06-07T10:05:31.001Z</time>
      </trkpt>
      <trkpt lat="49.09036" lon="7.54217">
        <ele>371.78</ele>
        <time>2020-06-07T10:05:41.001Z</time>
      </trkpt>
      <trkpt lat="49.09029" lon="7.54221">
        <ele>371.38</ele>
        <time>2020-06-07T10:05:51.001Z</time>
      </trkpt>
      <trkpt lat="49.09028" lon="7.54222">
        <ele>370.35</ele>
        <time>2020-06-07T10:06:01.001Z</time>
      </trkpt>
      <trkpt lat="49.09026" lon="7.54223">
        <ele>369.75</ele>
        <time>2020-06-07T10:06:11.001Z</time>
      </trkpt>
      <trkpt lat="49.09021" lon="7.54227">
        <ele>369.05</ele>
        <time>2020-06-07T10:06:21.001Z</time>
      </trkpt>
      <trkpt lat="49.0902" lon="7.54228">
        <ele>369.05</ele>
        <time>2020-06-07T10:06:31.001Z</time>
      </trkpt>
      <trkpt lat="49.09018" lon="7.54229">
        <ele>369.05</ele>
        <time>2020-06-07T10:06:41.001Z</time>
      </trkpt>
      <trkpt lat="49.09018" lon="7.54231">
        <ele>369.08</ele>
        <time>2020-06-07T10:07:44.001Z</time>
      </trkpt>
      <trkpt lat="49.09016" lon="7.54233">
        <ele>369.09</ele>
        <time>2020-06-07T10:07:54.001Z</time>
      </trkpt>
      <trkpt lat="49.09016" lon="7.54234">
        <ele>369.09</ele>
        <time>2020-06-07T10:08:20.001Z</time>
      </trkpt>
      <trkpt lat="49.09015" lon="7.54236">
        <ele>367.02</ele>
        <time>2020-06-07T10:11:47.001Z</time>
      </trkpt>
      <trkpt lat="49.09007" lon="7.54247">
        <ele>365.93</ele>
        <time>2020-06-07T10:11:57.001Z</time>
      </trkpt>
      <trkpt lat="49.09004" lon="7.54251">
        <ele>365.93</ele>
        <time>2020-06-07T10:12:17.001Z</time>
      </trkpt>
      <trkpt lat="49.09003" lon="7.54253">
        <ele>365</ele>
        <time>2020-06-07T10:12:31.001Z</time>
      </trkpt>
      <trkpt lat="49.08994" lon="7.54267">
        <ele>362.44</ele>
        <time>2020-06-07T10:12:41.001Z</time>
      </trkpt>
      <trkpt lat="49.08984" lon="7.54283">
        <ele>359.35</ele>
        <time>2020-06-07T10:12:51.001Z</time>
      </trkpt>
      <trkpt lat="49.08979" lon="7.54291">
        <ele>359.13</ele>
        <time>2020-06-07T10:13:01.001Z</time>
      </trkpt>
      <trkpt lat="49.08977" lon="7.54295">
        <ele>359.2</ele>
        <time>2020-06-07T10:13:11.001Z</time>
      </trkpt>
      <trkpt lat="49.08974" lon="7.54301">
        <ele>359.2</ele>
        <time>2020-06-07T10:13:21.001Z</time>
      </trkpt>
      <trkpt lat="49.08971" lon="7.54303">
        <ele>358.46</ele>
        <time>2020-06-07T10:13:31.001Z</time>
      </trkpt>
      <trkpt lat="49.08956" lon="7.54319">
        <ele>357.68</ele>
        <time>2020-06-07T10:13:41.001Z</time>
      </trkpt>
      <trkpt lat="49.0895" lon="7.54329">
        <ele>357.97</ele>
        <time>2020-06-07T10:13:51.001Z</time>
      </trkpt>
      <trkpt lat="49.08935" lon="7.54338">
        <ele>357.68</ele>
        <time>2020-06-07T10:14:01.001Z</time>
      </trkpt>
      <trkpt lat="49.08931" lon="7.54343">
        <ele>359.39</ele>
        <time>2020-06-07T10:14:11.001Z</time>
      </trkpt>
      <trkpt lat="49.08924" lon="7.54359">
        <ele>360.11</ele>
        <time>2020-06-07T10:14:21.001Z</time>
      </trkpt>
      <trkpt lat="49.0892" lon="7.54365">
        <ele>360.62</ele>
        <time>2020-06-07T10:14:31.001Z</time>
      </trkpt>
      <trkpt lat="49.08912" lon="7.5438">
        <ele>360.71</ele>
        <time>2020-06-07T10:14:41.001Z</time>
      </trkpt>
      <trkpt lat="49.08901" lon="7.54397">
        <ele>361.92</ele>
        <time>2020-06-07T10:14:51.001Z</time>
      </trkpt>
      <trkpt lat="49.08894" lon="7.5441">
        <ele>363.02</ele>
        <time>2020-06-07T10:15:01.001Z</time>
      </trkpt>
      <trkpt lat="49.08883" lon="7.54428">
        <ele>361.39</ele>
        <time>2020-06-07T10:15:11.001Z</time>
      </trkpt>
      <trkpt lat="49.08873" lon="7.54443">
        <ele>362.1</ele>
        <time>2020-06-07T10:15:21.001Z</time>
      </trkpt>
      <trkpt lat="49.08863" lon="7.54455">
        <ele>362.78</ele>
        <time>2020-06-07T10:15:31.001Z</time>
      </trkpt>
      <trkpt lat="49.0885" lon="7.54468">
        <ele>361.79</ele>
        <time>2020-06-07T10:15:41.001Z</time>
      </trkpt>
      <trkpt lat="49.08842" lon="7.54479">
        <ele>360.62</ele>
        <time>2020-06-07T10:15:51.001Z</time>
      </trkpt>
      <trkpt lat="49.08839" lon="7.54497">
        <ele>361.26</ele>
        <time>2020-06-07T10:16:01.001Z</time>
      </trkpt>
      <trkpt lat="49.08834" lon="7.54516">
        <ele>362.61</ele>
        <time>2020-06-07T10:16:11.001Z</time>
      </trkpt>
      <trkpt lat="49.0883" lon="7.54531">
        <ele>363.42</ele>
        <time>2020-06-07T10:16:21.001Z</time>
      </trkpt>
      <trkpt lat="49.08825" lon="7.54541">
        <ele>363.38</ele>
        <time>2020-06-07T10:16:31.001Z</time>
      </trkpt>
      <trkpt lat="49.08816" lon="7.54551">
        <ele>360.09</ele>
        <time>2020-06-07T10:16:41.001Z</time>
      </trkpt>
      <trkpt lat="49.08806" lon="7.54566">
        <ele>357.92</ele>
        <time>2020-06-07T10:16:51.001Z</time>
      </trkpt>
      <trkpt lat="49.08798" lon="7.54584">
        <ele>355.68</ele>
        <time>2020-06-07T10:17:01.001Z</time>
      </trkpt>
      <trkpt lat="49.08795" lon="7.546">
        <ele>356.75</ele>
        <time>2020-06-07T10:17:11.001Z</time>
      </trkpt>
      <trkpt lat="49.08795" lon="7.54604">
        <ele>356.76</ele>
        <time>2020-06-07T10:17:21.001Z</time>
      </trkpt>
      <trkpt lat="49.08792" lon="7.54605">
        <ele>355.18</ele>
        <time>2020-06-07T10:17:31.001Z</time>
      </trkpt>
      <trkpt lat="49.08779" lon="7.54616">
        <ele>351.86</ele>
        <time>2020-06-07T10:17:41.001Z</time>
      </trkpt>
      <trkpt lat="49.0877" lon="7.54629">
        <ele>351.64</ele>
        <time>2020-06-07T10:17:51.001Z</time>
      </trkpt>
      <trkpt lat="49.08761" lon="7.54644">
        <ele>348.25</ele>
        <time>2020-06-07T10:18:01.001Z</time>
      </trkpt>
      <trkpt lat="49.08752" lon="7.54654">
        <ele>348.2</ele>
        <time>2020-06-07T10:18:11.001Z</time>
      </trkpt>
      <trkpt lat="49.08751" lon="7.54659">
        <ele>349.2</ele>
        <time>2020-06-07T10:18:21.001Z</time>
      </trkpt>
      <trkpt lat="49.08746" lon="7.54671">
        <ele>348.1</ele>
        <time>2020-06-07T10:18:31.001Z</time>
      </trkpt>
      <trkpt lat="49.08742" lon="7.54684">
        <ele>350.25</ele>
        <time>2020-06-07T10:18:41.001Z</time>
      </trkpt>
      <trkpt lat="49.08735" lon="7.547">
        <ele>350.44</ele>
        <time>2020-06-07T10:18:51.001Z</time>
      </trkpt>
      <trkpt lat="49.08726" lon="7.54722">
        <ele>351.33</ele>
        <time>2020-06-07T10:19:01.001Z</time>
      </trkpt>
      <trkpt lat="49.08717" lon="7.54737">
        <ele>351.84</ele>
        <time>2020-06-07T10:19:11.001Z</time>
      </trkpt>
      <trkpt lat="49.08711" lon="7.54745">
        <ele>353.55</ele>
        <time>2020-06-07T10:19:21.001Z</time>
      </trkpt>
      <trkpt lat="49.08708" lon="7.54756">
        <ele>353.72</ele>
        <time>2020-06-07T10:19:31.001Z</time>
      </trkpt>
      <trkpt lat="49.08703" lon="7.5477">
        <ele>355.6</ele>
        <time>2020-06-07T10:19:41.001Z</time>
      </trkpt>
      <trkpt lat="49.08696" lon="7.54786">
        <ele>356.76</ele>
        <time>2020-06-07T10:19:51.001Z</time>
      </trkpt>
      <trkpt lat="49.0869" lon="7.54798">
        <ele>357.21</ele>
        <time>2020-06-07T10:20:01.001Z</time>
      </trkpt>
      <trkpt lat="49.0868" lon="7.54816">
        <ele>358.32</ele>
        <time>2020-06-07T10:20:11.001Z</time>
      </trkpt>
      <trkpt lat="49.0867" lon="7.54833">
        <ele>360.47</ele>
        <time>2020-06-07T10:20:21.001Z</time>
      </trkpt>
      <trkpt lat="49.08665" lon="7.54846">
        <ele>363.47</ele>
        <time>2020-06-07T10:20:31.001Z</time>
      </trkpt>
      <trkpt lat="49.08661" lon="7.54857">
        <ele>366.86</ele>
        <time>2020-06-07T10:20:41.001Z</time>
      </trkpt>
      <trkpt lat="49.08655" lon="7.54869">
        <ele>367.86</ele>
        <time>2020-06-07T10:20:51.001Z</time>
      </trkpt>
      <trkpt lat="49.08646" lon="7.54883">
        <ele>367.7</ele>
        <time>2020-06-07T10:21:01.001Z</time>
      </trkpt>
      <trkpt lat="49.08638" lon="7.54897">
        <ele>368.67</ele>
        <time>2020-06-07T10:21:11.001Z</time>
      </trkpt>
      <trkpt lat="49.08632" lon="7.54913">
        <ele>370.12</ele>
        <time>2020-06-07T10:21:21.001Z</time>
      </trkpt>
      <trkpt lat="49.08625" lon="7.54926">
        <ele>369</ele>
        <time>2020-06-07T10:21:31.001Z</time>
      </trkpt>
      <trkpt lat="49.08619" lon="7.54938">
        <ele>369.31</ele>
        <time>2020-06-07T10:21:41.001Z</time>
      </trkpt>
      <trkpt lat="49.08611" lon="7.54955">
        <ele>369.16</ele>
        <time>2020-06-07T10:21:51.001Z</time>
      </trkpt>
      <trkpt lat="49.08605" lon="7.5497">
        <ele>369.29</ele>
        <time>2020-06-07T10:22:01.001Z</time>
      </trkpt>
      <trkpt lat="49.08608" lon="7.54975">
        <ele>369.4</ele>
        <time>2020-06-07T10:22:11.001Z</time>
      </trkpt>
      <trkpt lat="49.08606" lon="7.54973">
        <ele>369.4</ele>
        <time>2020-06-07T10:23:40.001Z</time>
      </trkpt>
      <trkpt lat="49.08607" lon="7.54975">
        <ele>369.4</ele>
        <time>2020-06-07T10:23:50.001Z</time>
      </trkpt>
      <trkpt lat="49.08606" lon="7.54972">
        <ele>369.4</ele>
        <time>2020-06-07T10:24:51.001Z</time>
      </trkpt>
      <trkpt lat="49.08607" lon="7.54973">
        <ele>369.95</ele>
        <time>2020-06-07T10:25:01.001Z</time>
      </trkpt>
      <trkpt lat="49.08606" lon="7.54974">
        <ele>370.32</ele>
        <time>2020-06-07T10:26:24.001Z</time>
      </trkpt>
      <trkpt lat="49.08594" lon="7.54988">
        <ele>372.36</ele>
        <time>2020-06-07T10:26:34.001Z</time>
      </trkpt>
      <trkpt lat="49.0859" lon="7.54997">
        <ele>373.28</ele>
        <time>2020-06-07T10:26:44.001Z</time>
      </trkpt>
      <trkpt lat="49.08586" lon="7.55003">
        <ele>374.09</ele>
        <time>2020-06-07T10:27:15.001Z</time>
      </trkpt>
      <trkpt lat="49.08586" lon="7.55005">
        <ele>374.09</ele>
        <time>2020-06-07T10:27:27.001Z</time>
      </trkpt>
      <trkpt lat="49.08584" lon="7.55008">
        <ele>374.05</ele>
        <time>2020-06-07T10:27:37.001Z</time>
      </trkpt>
      <trkpt lat="49.08579" lon="7.55024">
        <ele>375.36</ele>
        <time>2020-06-07T10:27:47.001Z</time>
      </trkpt>
      <trkpt lat="49.08572" lon="7.55041">
        <ele>375.8</ele>
        <time>2020-06-07T10:27:57.001Z</time>
      </trkpt>
      <trkpt lat="49.08568" lon="7.55058">
        <ele>375.74</ele>
        <time>2020-06-07T10:28:07.001Z</time>
      </trkpt>
      <trkpt lat="49.08563" lon="7.55075">
        <ele>378.44</ele>
        <time>2020-06-07T10:28:17.001Z</time>
      </trkpt>
      <trkpt lat="49.08555" lon="7.55089">
        <ele>378.3</ele>
        <time>2020-06-07T10:28:27.001Z</time>
      </trkpt>
      <trkpt lat="49.08548" lon="7.55103">
        <ele>380.21</ele>
        <time>2020-06-07T10:28:37.001Z</time>
      </trkpt>
      <trkpt lat="49.0854" lon="7.55115">
        <ele>381.31</ele>
        <time>2020-06-07T10:28:47.001Z</time>
      </trkpt>
      <trkpt lat="49.08535" lon="7.5513">
        <ele>383.3</ele>
        <time>2020-06-07T10:28:57.001Z</time>
      </trkpt>
      <trkpt lat="49.08532" lon="7.55143">
        <ele>386.23</ele>
        <time>2020-06-07T10:29:07.001Z</time>
      </trkpt>
      <trkpt lat="49.08527" lon="7.55153">
        <ele>387.08</ele>
        <time>2020-06-07T10:29:17.001Z</time>
      </trkpt>
      <trkpt lat="49.08521" lon="7.55163">
        <ele>386.62</ele>
        <time>2020-06-07T10:29:27.001Z</time>
      </trkpt>
      <trkpt lat="49.08514" lon="7.5518">
        <ele>386.85</ele>
        <time>2020-06-07T10:29:37.001Z</time>
      </trkpt>
      <trkpt lat="49.08511" lon="7.55189">
        <ele>386.85</ele>
        <time>2020-06-07T10:29:47.001Z</time>
      </trkpt>
      <trkpt lat="49.08509" lon="7.55196">
        <ele>386.16</ele>
        <time>2020-06-07T10:29:57.001Z</time>
      </trkpt>
      <trkpt lat="49.08506" lon="7.55199">
        <ele>386.56</ele>
        <time>2020-06-07T10:30:07.001Z</time>
      </trkpt>
      <trkpt lat="49.08503" lon="7.55206">
        <ele>387.3</ele>
        <time>2020-06-07T10:30:17.001Z</time>
      </trkpt>
      <trkpt lat="49.08505" lon="7.5521">
        <ele>387.3</ele>
        <time>2020-06-07T10:30:27.001Z</time>
      </trkpt>
      <trkpt lat="49.08505" lon="7.55208">
        <ele>387.31</ele>
        <time>2020-06-07T10:31:28.001Z</time>
      </trkpt>
      <trkpt lat="49.08501" lon="7.55212">
        <ele>387.46</ele>
        <time>2020-06-07T10:31:38.001Z</time>
      </trkpt>
      <trkpt lat="49.08494" lon="7.5523">
        <ele>390.9</ele>
        <time>2020-06-07T10:31:48.001Z</time>
      </trkpt>
      <trkpt lat="49.0849" lon="7.55245">
        <ele>393.01</ele>
        <time>2020-06-07T10:31:58.001Z</time>
      </trkpt>
      <trkpt lat="49.08489" lon="7.55258">
        <ele>394.47</ele>
        <time>2020-06-07T10:32:08.001Z</time>
      </trkpt>
      <trkpt lat="49.0849" lon="7.55259">
        <ele>397.57</ele>
        <time>2020-06-07T10:32:18.001Z</time>
      </trkpt>
      <trkpt lat="49.0849" lon="7.55257">
        <ele>397.8</ele>
        <time>2020-06-07T10:32:54.001Z</time>
      </trkpt>
      <trkpt lat="49.08488" lon="7.55257">
        <ele>400.02</ele>
        <time>2020-06-07T10:33:04.001Z</time>
      </trkpt>
      <trkpt lat="49.08487" lon="7.55256">
        <ele>400.79</ele>
        <time>2020-06-07T10:33:17.001Z</time>
      </trkpt>
      <trkpt lat="49.08486" lon="7.55255">
        <ele>401.84</ele>
        <time>2020-06-07T10:33:40.001Z</time>
      </trkpt>
      <trkpt lat="49.08483" lon="7.5526">
        <ele>403.06</ele>
        <time>2020-06-07T10:33:50.001Z</time>
      </trkpt>
      <trkpt lat="49.08482" lon="7.55266">
        <ele>403.2</ele>
        <time>2020-06-07T10:34:00.001Z</time>
      </trkpt>
      <trkpt lat="49.0848" lon="7.55275">
        <ele>402.95</ele>
        <time>2020-06-07T10:34:10.001Z</time>
      </trkpt>
      <trkpt lat="49.08478" lon="7.55285">
        <ele>402.61</ele>
        <time>2020-06-07T10:34:20.001Z</time>
      </trkpt>
      <trkpt lat="49.08476" lon="7.55288">
        <ele>402.61</ele>
        <time>2020-06-07T10:34:30.001Z</time>
      </trkpt>
      <trkpt lat="49.08476" lon="7.55289">
        <ele>402.78</ele>
        <time>2020-06-07T10:34:44.001Z</time>
      </trkpt>
      <trkpt lat="49.08471" lon="7.553">
        <ele>405.01</ele>
        <time>2020-06-07T10:34:54.001Z</time>
      </trkpt>
      <trkpt lat="49.08466" lon="7.55309">
        <ele>407.86</ele>
        <time>2020-06-07T10:35:04.001Z</time>
      </trkpt>
      <trkpt lat="49.08464" lon="7.55311">
        <ele>407.86</ele>
        <time>2020-06-07T10:35:14.001Z</time>
      </trkpt>
      <trkpt lat="49.08462" lon="7.5531">
        <ele>408.55</ele>
        <time>2020-06-07T10:35:40.001Z</time>
      </trkpt>
      <trkpt lat="49.08461" lon="7.55308">
        <ele>408.55</ele>
        <time>2020-06-07T10:35:50.001Z</time>
      </trkpt>
      <trkpt lat="49.08461" lon="7.55311">
        <ele>408.6</ele>
        <time>2020-06-07T10:36:04.001Z</time>
      </trkpt>
      <trkpt lat="49.08457" lon="7.55327">
        <ele>410.29</ele>
        <time>2020-06-07T10:36:14.001Z</time>
      </trkpt>
      <trkpt lat="49.08453" lon="7.55346">
        <ele>411.38</ele>
        <time>2020-06-07T10:36:24.001Z</time>
      </trkpt>
      <trkpt lat="49.0845" lon="7.55359">
        <ele>411.9</ele>
        <time>2020-06-07T10:36:34.001Z</time>
      </trkpt>
      <trkpt lat="49.08442" lon="7.55372">
        <ele>413.41</ele>
        <time>2020-06-07T10:36:44.001Z</time>
      </trkpt>
      <trkpt lat="49.08432" lon="7.55392">
        <ele>415.11</ele>
        <time>2020-06-07T10:36:54.001Z</time>
      </trkpt>
      <trkpt lat="49.08425" lon="7.55412">
        <ele>417.06</ele>
        <time>2020-06-07T10:37:04.001Z</time>
      </trkpt>
      <trkpt lat="49.08419" lon="7.55429">
        <ele>419.63</ele>
        <time>2020-06-07T10:37:14.001Z</time>
      </trkpt>
      <trkpt lat="49.08414" lon="7.55441">
        <ele>421.01</ele>
        <time>2020-06-07T10:37:24.001Z</time>
      </trkpt>
      <trkpt lat="49.08413" lon="7.55437">
        <ele>421.01</ele>
        <time>2020-06-07T10:37:34.001Z</time>
      </trkpt>
      <trkpt lat="49.08416" lon="7.55435">
        <ele>421.01</ele>
        <time>2020-06-07T10:37:44.001Z</time>
      </trkpt>
      <trkpt lat="49.08414" lon="7.5544">
        <ele>421.54</ele>
        <time>2020-06-07T10:37:54.001Z</time>
      </trkpt>
      <trkpt lat="49.0841" lon="7.55457">
        <ele>423.04</ele>
        <time>2020-06-07T10:38:04.001Z</time>
      </trkpt>
      <trkpt lat="49.08403" lon="7.55471">
        <ele>424.9</ele>
        <time>2020-06-07T10:38:14.001Z</time>
      </trkpt>
      <trkpt lat="49.08397" lon="7.55483">
        <ele>426.13</ele>
        <time>2020-06-07T10:38:24.001Z</time>
      </trkpt>
      <trkpt lat="49.08391" lon="7.55503">
        <ele>424.32</ele>
        <time>2020-06-07T10:38:34.001Z</time>
      </trkpt>
      <trkpt lat="49.08383" lon="7.55532">
        <ele>422.03</ele>
        <time>2020-06-07T10:38:44.001Z</time>
      </trkpt>
      <trkpt lat="49.08381" lon="7.55548">
        <ele>418.73</ele>
        <time>2020-06-07T10:38:54.001Z</time>
      </trkpt>
      <trkpt lat="49.08382" lon="7.5555">
        <ele>418.73</ele>
        <time>2020-06-07T10:39:04.001Z</time>
      </trkpt>
      <trkpt lat="49.0838" lon="7.55547">
        <ele>418.73</ele>
        <time>2020-06-07T10:39:14.001Z</time>
      </trkpt>
      <trkpt lat="49.08378" lon="7.55553">
        <ele>416.36</ele>
        <time>2020-06-07T10:39:24.001Z</time>
      </trkpt>
      <trkpt lat="49.08367" lon="7.55567">
        <ele>415.9</ele>
        <time>2020-06-07T10:39:34.001Z</time>
      </trkpt>
      <trkpt lat="49.08359" lon="7.55575">
        <ele>415.82</ele>
        <time>2020-06-07T10:39:44.001Z</time>
      </trkpt>
      <trkpt lat="49.08355" lon="7.55579">
        <ele>414.96</ele>
        <time>2020-06-07T10:39:54.001Z</time>
      </trkpt>
      <trkpt lat="49.08347" lon="7.55593">
        <ele>412.71</ele>
        <time>2020-06-07T10:40:04.001Z</time>
      </trkpt>
      <trkpt lat="49.0834" lon="7.55606">
        <ele>410.44</ele>
        <time>2020-06-07T10:40:14.001Z</time>
      </trkpt>
      <trkpt lat="49.08335" lon="7.55626">
        <ele>407.36</ele>
        <time>2020-06-07T10:40:24.001Z</time>
      </trkpt>
      <trkpt lat="49.08331" lon="7.55637">
        <ele>404.93</ele>
        <time>2020-06-07T10:40:34.001Z</time>
      </trkpt>
      <trkpt lat="49.08326" lon="7.55647">
        <ele>402.69</ele>
        <time>2020-06-07T10:40:44.001Z</time>
      </trkpt>
      <trkpt lat="49.08318" lon="7.55661">
        <ele>400.72</ele>
        <time>2020-06-07T10:40:54.001Z</time>
      </trkpt>
      <trkpt lat="49.0831" lon="7.5568">
        <ele>397.46</ele>
        <time>2020-06-07T10:41:04.001Z</time>
      </trkpt>
      <trkpt lat="49.08305" lon="7.55697">
        <ele>395.99</ele>
        <time>2020-06-07T10:41:14.001Z</time>
      </trkpt>
      <trkpt lat="49.08301" lon="7.55712">
        <ele>395.78</ele>
        <time>2020-06-07T10:41:24.001Z</time>
      </trkpt>
      <trkpt lat="49.083" lon="7.55722">
        <ele>395.33</ele>
        <time>2020-06-07T10:41:34.001Z</time>
      </trkpt>
      <trkpt lat="49.08299" lon="7.55734">
        <ele>395.38</ele>
        <time>2020-06-07T10:41:44.001Z</time>
      </trkpt>
      <trkpt lat="49.08297" lon="7.55749">
        <ele>394.26</ele>
        <time>2020-06-07T10:41:54.001Z</time>
      </trkpt>
      <trkpt lat="49.08296" lon="7.55755">
        <ele>394.24</ele>
        <time>2020-06-07T10:42:04.001Z</time>
      </trkpt>
      <trkpt lat="49.08295" lon="7.55777">
        <ele>392.94</ele>
        <time>2020-06-07T10:42:14.001Z</time>
      </trkpt>
      <trkpt lat="49.08295" lon="7.55811">
        <ele>390.85</ele>
        <time>2020-06-07T10:42:24.001Z</time>
      </trkpt>
      <trkpt lat="49.08293" lon="7.55827">
        <ele>386.73</ele>
        <time>2020-06-07T10:42:34.001Z</time>
      </trkpt>
      <trkpt lat="49.08286" lon="7.55838">
        <ele>383.71</ele>
        <time>2020-06-07T10:42:44.001Z</time>
      </trkpt>
      <trkpt lat="49.08279" lon="7.55847">
        <ele>382.27</ele>
        <time>2020-06-07T10:42:54.001Z</time>
      </trkpt>
      <trkpt lat="49.08263" lon="7.55867">
        <ele>379.92</ele>
        <time>2020-06-07T10:43:04.001Z</time>
      </trkpt>
      <trkpt lat="49.08248" lon="7.55878">
        <ele>377.95</ele>
        <time>2020-06-07T10:43:14.001Z</time>
      </trkpt>
      <trkpt lat="49.08236" lon="7.55888">
        <ele>376.06</ele>
        <time>2020-06-07T10:43:24.001Z</time>
      </trkpt>
      <trkpt lat="49.08227" lon="7.55898">
        <ele>376.72</ele>
        <time>2020-06-07T10:43:34.001Z</time>
      </trkpt>
      <trkpt lat="49.08227" lon="7.55901">
        <ele>376.78</ele>
        <time>2020-06-07T10:43:44.001Z</time>
      </trkpt>
      <trkpt lat="49.08228" lon="7.55899">
        <ele>376.78</ele>
        <time>2020-06-07T10:43:54.001Z</time>
      </trkpt>
      <trkpt lat="49.0823" lon="7.55908">
        <ele>378</ele>
        <time>2020-06-07T10:44:04.001Z</time>
      </trkpt>
      <trkpt lat="49.08227" lon="7.55918">
        <ele>381.96</ele>
        <time>2020-06-07T10:44:14.001Z</time>
      </trkpt>
      <trkpt lat="49.08226" lon="7.55922">
        <ele>385</ele>
        <time>2020-06-07T10:44:24.001Z</time>
      </trkpt>
      <trkpt lat="49.08225" lon="7.5592">
        <ele>386.19</ele>
        <time>2020-06-07T10:44:34.001Z</time>
      </trkpt>
      <trkpt lat="49.08225" lon="7.55918">
        <ele>386.81</ele>
        <time>2020-06-07T10:44:58.001Z</time>
      </trkpt>
      <trkpt lat="49.08224" lon="7.55913">
        <ele>387.07</ele>
        <time>2020-06-07T10:45:08.001Z</time>
      </trkpt>
      <trkpt lat="49.08223" lon="7.55912">
        <ele>387.2</ele>
        <time>2020-06-07T10:45:18.001Z</time>
      </trkpt>
      <trkpt lat="49.0822" lon="7.55918">
        <ele>388.71</ele>
        <time>2020-06-07T10:45:28.001Z</time>
      </trkpt>
      <trkpt lat="49.08222" lon="7.55915">
        <ele>391.42</ele>
        <time>2020-06-07T10:49:47.001Z</time>
      </trkpt>
      <trkpt lat="49.08204" lon="7.55862">
        <ele>387.59</ele>
        <time>2020-06-07T11:04:43.427Z</time>
      </trkpt>
      <trkpt lat="49.08217" lon="7.55905">
        <ele>377.09</ele>
        <time>2020-06-07T11:04:53Z</time>
      </trkpt>
      <trkpt lat="49.08215" lon="7.55904">
        <ele>385.26</ele>
        <time>2020-06-07T11:05:03Z</time>
      </trkpt>
      <trkpt lat="49.08215" lon="7.55905">
        <ele>385.35</ele>
        <time>2020-06-07T11:05:27Z</time>
      </trkpt>
      <trkpt lat="49.08214" lon="7.55907">
        <ele>385.31</ele>
        <time>2020-06-07T11:05:37Z</time>
      </trkpt>
      <trkpt lat="49.08214" lon="7.55908">
        <ele>385.77</ele>
        <time>2020-06-07T11:08:15Z</time>
      </trkpt>
      <trkpt lat="49.08218" lon="7.55907">
        <ele>385.99</ele>
        <time>2020-06-07T11:09:59Z</time>
      </trkpt>
      <trkpt lat="49.08217" lon="7.5591">
        <ele>385.28</ele>
        <time>2020-06-07T11:13:17Z</time>
      </trkpt>
      <trkpt lat="49.08217" lon="7.55914">
        <ele>384.89</ele>
        <time>2020-06-07T11:13:27Z</time>
      </trkpt>
      <trkpt lat="49.08218" lon="7.55922">
        <ele>385.63</ele>
        <time>2020-06-07T11:13:37Z</time>
      </trkpt>
      <trkpt lat="49.08216" lon="7.55932">
        <ele>382.09</ele>
        <time>2020-06-07T11:13:47Z</time>
      </trkpt>
      <trkpt lat="49.08214" lon="7.5594">
        <ele>379.5</ele>
        <time>2020-06-07T11:13:57Z</time>
      </trkpt>
      <trkpt lat="49.08212" lon="7.55948">
        <ele>378.23</ele>
        <time>2020-06-07T11:14:07Z</time>
      </trkpt>
      <trkpt lat="49.0821" lon="7.55963">
        <ele>376.84</ele>
        <time>2020-06-07T11:14:17Z</time>
      </trkpt>
      <trkpt lat="49.08208" lon="7.55971">
        <ele>378.35</ele>
        <time>2020-06-07T11:14:27Z</time>
      </trkpt>
      <trkpt lat="49.08205" lon="7.55977">
        <ele>378.43</ele>
        <time>2020-06-07T11:15:05Z</time>
      </trkpt>
      <trkpt lat="49.08203" lon="7.55973">
        <ele>376.72</ele>
        <time>2020-06-07T11:15:15Z</time>
      </trkpt>
      <trkpt lat="49.08202" lon="7.55967">
        <ele>375.65</ele>
        <time>2020-06-07T11:15:25Z</time>
      </trkpt>
      <trkpt lat="49.08199" lon="7.55953">
        <ele>373.39</ele>
        <time>2020-06-07T11:15:35Z</time>
      </trkpt>
      <trkpt lat="49.08205" lon="7.55925">
        <ele>370.54</ele>
        <time>2020-06-07T11:15:45Z</time>
      </trkpt>
      <trkpt lat="49.08212" lon="7.55911">
        <ele>372.07</ele>
        <time>2020-06-07T11:15:55Z</time>
      </trkpt>
      <trkpt lat="49.08216" lon="7.559">
        <ele>373.44</ele>
        <time>2020-06-07T11:16:05Z</time>
      </trkpt>
      <trkpt lat="49.08219" lon="7.55892">
        <ele>376.96</ele>
        <time>2020-06-07T11:16:15Z</time>
      </trkpt>
      <trkpt lat="49.08223" lon="7.55885">
        <ele>377.03</ele>
        <time>2020-06-07T11:16:25Z</time>
      </trkpt>
      <trkpt lat="49.0823" lon="7.55878">
        <ele>376.3</ele>
        <time>2020-06-07T11:16:35Z</time>
      </trkpt>
      <trkpt lat="49.08231" lon="7.55877">
        <ele>376.31</ele>
        <time>2020-06-07T11:16:45Z</time>
      </trkpt>
      <trkpt lat="49.08233" lon="7.55875">
        <ele>376.31</ele>
        <time>2020-06-07T11:16:55Z</time>
      </trkpt>
      <trkpt lat="49.08234" lon="7.55874">
        <ele>374.46</ele>
        <time>2020-06-07T11:17:28Z</time>
      </trkpt>
      <trkpt lat="49.08246" lon="7.55869">
        <ele>371</ele>
        <time>2020-06-07T11:17:38Z</time>
      </trkpt>
      <trkpt lat="49.08252" lon="7.55871">
        <ele>371.03</ele>
        <time>2020-06-07T11:17:48Z</time>
      </trkpt>
      <trkpt lat="49.08253" lon="7.55871">
        <ele>371.03</ele>
        <time>2020-06-07T11:17:58Z</time>
      </trkpt>
      <trkpt lat="49.08262" lon="7.55873">
        <ele>373.29</ele>
        <time>2020-06-07T11:18:08Z</time>
      </trkpt>
      <trkpt lat="49.0827" lon="7.55877">
        <ele>373.6</ele>
        <time>2020-06-07T11:18:18Z</time>
      </trkpt>
      <trkpt lat="49.08284" lon="7.55882">
        <ele>372.6</ele>
        <time>2020-06-07T11:18:28Z</time>
      </trkpt>
      <trkpt lat="49.08296" lon="7.55886">
        <ele>372.51</ele>
        <time>2020-06-07T11:18:38Z</time>
      </trkpt>
      <trkpt lat="49.08305" lon="7.55896">
        <ele>370.12</ele>
        <time>2020-06-07T11:18:48Z</time>
      </trkpt>
      <trkpt lat="49.08315" lon="7.55897">
        <ele>368.75</ele>
        <time>2020-06-07T11:18:58Z</time>
      </trkpt>
      <trkpt lat="49.0833" lon="7.55894">
        <ele>367.07</ele>
        <time>2020-06-07T11:19:08Z</time>
      </trkpt>
      <trkpt lat="49.08348" lon="7.55895">
        <ele>367.34</ele>
        <time>2020-06-07T11:19:18Z</time>
      </trkpt>
      <trkpt lat="49.08355" lon="7.55895">
        <ele>366.74</ele>
        <time>2020-06-07T11:19:28Z</time>
      </trkpt>
      <trkpt lat="49.08364" lon="7.55891">
        <ele>365.34</ele>
        <time>2020-06-07T11:19:38Z</time>
      </trkpt>
      <trkpt lat="49.08377" lon="7.55892">
        <ele>361.05</ele>
        <time>2020-06-07T11:19:48Z</time>
      </trkpt>
      <trkpt lat="49.08388" lon="7.55895">
        <ele>360.66</ele>
        <time>2020-06-07T11:19:58Z</time>
      </trkpt>
      <trkpt lat="49.08403" lon="7.55897">
        <ele>358.03</ele>
        <time>2020-06-07T11:20:08Z</time>
      </trkpt>
      <trkpt lat="49.08416" lon="7.55899">
        <ele>356.83</ele>
        <time>2020-06-07T11:20:18Z</time>
      </trkpt>
      <trkpt lat="49.0843" lon="7.559">
        <ele>356.77</ele>
        <time>2020-06-07T11:20:28Z</time>
      </trkpt>
      <trkpt lat="49.08443" lon="7.55903">
        <ele>355.29</ele>
        <time>2020-06-07T11:20:38Z</time>
      </trkpt>
      <trkpt lat="49.0846" lon="7.55907">
        <ele>353.27</ele>
        <time>2020-06-07T11:20:48Z</time>
      </trkpt>
      <trkpt lat="49.08476" lon="7.55907">
        <ele>351.15</ele>
        <time>2020-06-07T11:20:58Z</time>
      </trkpt>
      <trkpt lat="49.0849" lon="7.5591">
        <ele>346.99</ele>
        <time>2020-06-07T11:21:08Z</time>
      </trkpt>
      <trkpt lat="49.08503" lon="7.55917">
        <ele>344.64</ele>
        <time>2020-06-07T11:21:18Z</time>
      </trkpt>
      <trkpt lat="49.08514" lon="7.55923">
        <ele>340.74</ele>
        <time>2020-06-07T11:21:28Z</time>
      </trkpt>
      <trkpt lat="49.08524" lon="7.55928">
        <ele>340.08</ele>
        <time>2020-06-07T11:21:38Z</time>
      </trkpt>
      <trkpt lat="49.08535" lon="7.55935">
        <ele>339.34</ele>
        <time>2020-06-07T11:21:48Z</time>
      </trkpt>
      <trkpt lat="49.08546" lon="7.55942">
        <ele>336.75</ele>
        <time>2020-06-07T11:21:58Z</time>
      </trkpt>
      <trkpt lat="49.08557" lon="7.55948">
        <ele>331.38</ele>
        <time>2020-06-07T11:22:08Z</time>
      </trkpt>
      <trkpt lat="49.08569" lon="7.55949">
        <ele>333.73</ele>
        <time>2020-06-07T11:22:18Z</time>
      </trkpt>
      <trkpt lat="49.08584" lon="7.55948">
        <ele>335.38</ele>
        <time>2020-06-07T11:22:28Z</time>
      </trkpt>
      <trkpt lat="49.08598" lon="7.55945">
        <ele>336.99</ele>
        <time>2020-06-07T11:22:38Z</time>
      </trkpt>
      <trkpt lat="49.08612" lon="7.55943">
        <ele>337.58</ele>
        <time>2020-06-07T11:22:48Z</time>
      </trkpt>
      <trkpt lat="49.08623" lon="7.55944">
        <ele>338.67</ele>
        <time>2020-06-07T11:22:58Z</time>
      </trkpt>
      <trkpt lat="49.08621" lon="7.55941">
        <ele>339.6</ele>
        <time>2020-06-07T11:23:08Z</time>
      </trkpt>
      <trkpt lat="49.08619" lon="7.55939">
        <ele>339.6</ele>
        <time>2020-06-07T11:23:30Z</time>
      </trkpt>
      <trkpt lat="49.08622" lon="7.55933">
        <ele>341.62</ele>
        <time>2020-06-07T11:23:40Z</time>
      </trkpt>
      <trkpt lat="49.08631" lon="7.55931">
        <ele>339.34</ele>
        <time>2020-06-07T11:23:50Z</time>
      </trkpt>
      <trkpt lat="49.08644" lon="7.55928">
        <ele>340.73</ele>
        <time>2020-06-07T11:24:00Z</time>
      </trkpt>
      <trkpt lat="49.08656" lon="7.55925">
        <ele>341.21</ele>
        <time>2020-06-07T11:24:10Z</time>
      </trkpt>
      <trkpt lat="49.08676" lon="7.55919">
        <ele>342.28</ele>
        <time>2020-06-07T11:24:20Z</time>
      </trkpt>
      <trkpt lat="49.08693" lon="7.5592">
        <ele>337.12</ele>
        <time>2020-06-07T11:24:30Z</time>
      </trkpt>
      <trkpt lat="49.08706" lon="7.55926">
        <ele>334.06</ele>
        <time>2020-06-07T11:24:40Z</time>
      </trkpt>
      <trkpt lat="49.0872" lon="7.55925">
        <ele>333.85</ele>
        <time>2020-06-07T11:24:50Z</time>
      </trkpt>
      <trkpt lat="49.0873" lon="7.5592">
        <ele>336.27</ele>
        <time>2020-06-07T11:25:00Z</time>
      </trkpt>
      <trkpt lat="49.0874" lon="7.55914">
        <ele>338.33</ele>
        <time>2020-06-07T11:25:10Z</time>
      </trkpt>
      <trkpt lat="49.08749" lon="7.55906">
        <ele>337.35</ele>
        <time>2020-06-07T11:25:20Z</time>
      </trkpt>
      <trkpt lat="49.08759" lon="7.55898">
        <ele>335.73</ele>
        <time>2020-06-07T11:25:30Z</time>
      </trkpt>
      <trkpt lat="49.08771" lon="7.5589">
        <ele>335.31</ele>
        <time>2020-06-07T11:25:40Z</time>
      </trkpt>
      <trkpt lat="49.08787" lon="7.5588">
        <ele>331.98</ele>
        <time>2020-06-07T11:25:50Z</time>
      </trkpt>
      <trkpt lat="49.08802" lon="7.55873">
        <ele>328.99</ele>
        <time>2020-06-07T11:26:00Z</time>
      </trkpt>
      <trkpt lat="49.08816" lon="7.55869">
        <ele>330.68</ele>
        <time>2020-06-07T11:26:10Z</time>
      </trkpt>
      <trkpt lat="49.08829" lon="7.55868">
        <ele>330.26</ele>
        <time>2020-06-07T11:26:20Z</time>
      </trkpt>
      <trkpt lat="49.08842" lon="7.55869">
        <ele>332.76</ele>
        <time>2020-06-07T11:26:30Z</time>
      </trkpt>
      <trkpt lat="49.08856" lon="7.55867">
        <ele>334.47</ele>
        <time>2020-06-07T11:26:40Z</time>
      </trkpt>
      <trkpt lat="49.08868" lon="7.55865">
        <ele>333.88</ele>
        <time>2020-06-07T11:26:50Z</time>
      </trkpt>
      <trkpt lat="49.08883" lon="7.55864">
        <ele>332.42</ele>
        <time>2020-06-07T11:27:00Z</time>
      </trkpt>
      <trkpt lat="49.08897" lon="7.55865">
        <ele>328.13</ele>
        <time>2020-06-07T11:27:10Z</time>
      </trkpt>
      <trkpt lat="49.08906" lon="7.55866">
        <ele>328.56</ele>
        <time>2020-06-07T11:27:20Z</time>
      </trkpt>
      <trkpt lat="49.08919" lon="7.55865">
        <ele>329.03</ele>
        <time>2020-06-07T11:27:30Z</time>
      </trkpt>
      <trkpt lat="49.08931" lon="7.55861">
        <ele>328.24</ele>
        <time>2020-06-07T11:27:40Z</time>
      </trkpt>
      <trkpt lat="49.08945" lon="7.55858">
        <ele>330</ele>
        <time>2020-06-07T11:27:50Z</time>
      </trkpt>
      <trkpt lat="49.08952" lon="7.5585">
        <ele>328.89</ele>
        <time>2020-06-07T11:28:00Z</time>
      </trkpt>
      <trkpt lat="49.08949" lon="7.55839">
        <ele>325.86</ele>
        <time>2020-06-07T11:28:10Z</time>
      </trkpt>
      <trkpt lat="49.08945" lon="7.55833">
        <ele>322.35</ele>
        <time>2020-06-07T11:28:20Z</time>
      </trkpt>
      <trkpt lat="49.08944" lon="7.55836">
        <ele>322.21</ele>
        <time>2020-06-07T11:28:30Z</time>
      </trkpt>
      <trkpt lat="49.08945" lon="7.55841">
        <ele>322.41</ele>
        <time>2020-06-07T11:28:47Z</time>
      </trkpt>
      <trkpt lat="49.08946" lon="7.55845">
        <ele>321.48</ele>
        <time>2020-06-07T11:28:57Z</time>
      </trkpt>
      <trkpt lat="49.08947" lon="7.55847">
        <ele>320.86</ele>
        <time>2020-06-07T11:29:24Z</time>
      </trkpt>
      <trkpt lat="49.08952" lon="7.55859">
        <ele>318.37</ele>
        <time>2020-06-07T11:29:34Z</time>
      </trkpt>
      <trkpt lat="49.08964" lon="7.55863">
        <ele>314.84</ele>
        <time>2020-06-07T11:29:44Z</time>
      </trkpt>
      <trkpt lat="49.08975" lon="7.55857">
        <ele>315.92</ele>
        <time>2020-06-07T11:29:54Z</time>
      </trkpt>
      <trkpt lat="49.08988" lon="7.55845">
        <ele>319.44</ele>
        <time>2020-06-07T11:30:04Z</time>
      </trkpt>
      <trkpt lat="49.09003" lon="7.55831">
        <ele>324.18</ele>
        <time>2020-06-07T11:30:14Z</time>
      </trkpt>
      <trkpt lat="49.09016" lon="7.5582">
        <ele>326.36</ele>
        <time>2020-06-07T11:30:24Z</time>
      </trkpt>
      <trkpt lat="49.09029" lon="7.55812">
        <ele>326.16</ele>
        <time>2020-06-07T11:30:34Z</time>
      </trkpt>
      <trkpt lat="49.09041" lon="7.55804">
        <ele>325.17</ele>
        <time>2020-06-07T11:30:44Z</time>
      </trkpt>
      <trkpt lat="49.09053" lon="7.558">
        <ele>323.82</ele>
        <time>2020-06-07T11:30:54Z</time>
      </trkpt>
      <trkpt lat="49.09068" lon="7.55801">
        <ele>320.76</ele>
        <time>2020-06-07T11:31:04Z</time>
      </trkpt>
      <trkpt lat="49.09084" lon="7.55804">
        <ele>318.1</ele>
        <time>2020-06-07T11:31:14Z</time>
      </trkpt>
      <trkpt lat="49.091" lon="7.55805">
        <ele>317.99</ele>
        <time>2020-06-07T11:31:24Z</time>
      </trkpt>
      <trkpt lat="49.09112" lon="7.55805">
        <ele>315.12</ele>
        <time>2020-06-07T11:31:34Z</time>
      </trkpt>
      <trkpt lat="49.09122" lon="7.55803">
        <ele>315.19</ele>
        <time>2020-06-07T11:31:44Z</time>
      </trkpt>
      <trkpt lat="49.09137" lon="7.55801">
        <ele>314.75</ele>
        <time>2020-06-07T11:31:54Z</time>
      </trkpt>
      <trkpt lat="49.09148" lon="7.55794">
        <ele>316.8</ele>
        <time>2020-06-07T11:32:04Z</time>
      </trkpt>
      <trkpt lat="49.0916" lon="7.55787">
        <ele>318.98</ele>
        <time>2020-06-07T11:32:14Z</time>
      </trkpt>
      <trkpt lat="49.09173" lon="7.55781">
        <ele>320.79</ele>
        <time>2020-06-07T11:32:24Z</time>
      </trkpt>
      <trkpt lat="49.09184" lon="7.55774">
        <ele>321</ele>
        <time>2020-06-07T11:32:34Z</time>
      </trkpt>
      <trkpt lat="49.09197" lon="7.5577">
        <ele>322.61</ele>
        <time>2020-06-07T11:32:44Z</time>
      </trkpt>
      <trkpt lat="49.09209" lon="7.55767">
        <ele>321.61</ele>
        <time>2020-06-07T11:32:54Z</time>
      </trkpt>
      <trkpt lat="49.09224" lon="7.55768">
        <ele>318.66</ele>
        <time>2020-06-07T11:33:04Z</time>
      </trkpt>
      <trkpt lat="49.09236" lon="7.55771">
        <ele>317.71</ele>
        <time>2020-06-07T11:33:14Z</time>
      </trkpt>
      <trkpt lat="49.09247" lon="7.55775">
        <ele>316.08</ele>
        <time>2020-06-07T11:33:24Z</time>
      </trkpt>
      <trkpt lat="49.09259" lon="7.55781">
        <ele>311.18</ele>
        <time>2020-06-07T11:33:34Z</time>
      </trkpt>
      <trkpt lat="49.09269" lon="7.55794">
        <ele>305.2</ele>
        <time>2020-06-07T11:33:44Z</time>
      </trkpt>
      <trkpt lat="49.09283" lon="7.5581">
        <ele>300.64</ele>
        <time>2020-06-07T11:33:54Z</time>
      </trkpt>
      <trkpt lat="49.09294" lon="7.55822">
        <ele>298.65</ele>
        <time>2020-06-07T11:34:04Z</time>
      </trkpt>
      <trkpt lat="49.09306" lon="7.55833">
        <ele>297.58</ele>
        <time>2020-06-07T11:34:14Z</time>
      </trkpt>
      <trkpt lat="49.09314" lon="7.55841">
        <ele>295.53</ele>
        <time>2020-06-07T11:34:24Z</time>
      </trkpt>
      <trkpt lat="49.09323" lon="7.55853">
        <ele>294.73</ele>
        <time>2020-06-07T11:34:34Z</time>
      </trkpt>
      <trkpt lat="49.09333" lon="7.55869">
        <ele>296.17</ele>
        <time>2020-06-07T11:34:44Z</time>
      </trkpt>
      <trkpt lat="49.09343" lon="7.55882">
        <ele>296.49</ele>
        <time>2020-06-07T11:34:54Z</time>
      </trkpt>
      <trkpt lat="49.09352" lon="7.55898">
        <ele>298.69</ele>
        <time>2020-06-07T11:35:04Z</time>
      </trkpt>
      <trkpt lat="49.09359" lon="7.55913">
        <ele>300.94</ele>
        <time>2020-06-07T11:35:14Z</time>
      </trkpt>
      <trkpt lat="49.09365" lon="7.5593">
        <ele>304.5</ele>
        <time>2020-06-07T11:35:24Z</time>
      </trkpt>
      <trkpt lat="49.09372" lon="7.55947">
        <ele>307.59</ele>
        <time>2020-06-07T11:35:34Z</time>
      </trkpt>
      <trkpt lat="49.09378" lon="7.55963">
        <ele>305.16</ele>
        <time>2020-06-07T11:35:44Z</time>
      </trkpt>
      <trkpt lat="49.09385" lon="7.55983">
        <ele>302.64</ele>
        <time>2020-06-07T11:35:54Z</time>
      </trkpt>
      <trkpt lat="49.09393" lon="7.56005">
        <ele>300.53</ele>
        <time>2020-06-07T11:36:04Z</time>
      </trkpt>
      <trkpt lat="49.094" lon="7.56024">
        <ele>301.03</ele>
        <time>2020-06-07T11:36:14Z</time>
      </trkpt>
      <trkpt lat="49.09404" lon="7.56038">
        <ele>302.62</ele>
        <time>2020-06-07T11:36:24Z</time>
      </trkpt>
      <trkpt lat="49.09408" lon="7.56054">
        <ele>304.46</ele>
        <time>2020-06-07T11:36:34Z</time>
      </trkpt>
      <trkpt lat="49.09413" lon="7.56063">
        <ele>303.59</ele>
        <time>2020-06-07T11:36:44Z</time>
      </trkpt>
      <trkpt lat="49.09415" lon="7.56076">
        <ele>303.74</ele>
        <time>2020-06-07T11:36:54Z</time>
      </trkpt>
      <trkpt lat="49.09419" lon="7.56095">
        <ele>302.41</ele>
        <time>2020-06-07T11:37:04Z</time>
      </trkpt>
      <trkpt lat="49.09425" lon="7.56112">
        <ele>301.55</ele>
        <time>2020-06-07T11:37:14Z</time>
      </trkpt>
      <trkpt lat="49.09433" lon="7.56121">
        <ele>302.21</ele>
        <time>2020-06-07T11:37:24Z</time>
      </trkpt>
      <trkpt lat="49.09441" lon="7.56117">
        <ele>304.77</ele>
        <time>2020-06-07T11:37:34Z</time>
      </trkpt>
      <trkpt lat="49.0944" lon="7.56111">
        <ele>305.08</ele>
        <time>2020-06-07T11:37:44Z</time>
      </trkpt>
      <trkpt lat="49.09436" lon="7.56113">
        <ele>305.08</ele>
        <time>2020-06-07T11:38:33Z</time>
      </trkpt>
      <trkpt lat="49.09437" lon="7.56115">
        <ele>305.34</ele>
        <time>2020-06-07T11:39:49Z</time>
      </trkpt>
      <trkpt lat="49.09445" lon="7.56109">
        <ele>305.22</ele>
        <time>2020-06-07T11:39:59Z</time>
      </trkpt>
      <trkpt lat="49.09445" lon="7.56105">
        <ele>306.54</ele>
        <time>2020-06-07T11:40:09Z</time>
      </trkpt>
      <trkpt lat="49.09453" lon="7.56096">
        <ele>309.7</ele>
        <time>2020-06-07T11:40:19Z</time>
      </trkpt>
      <trkpt lat="49.09467" lon="7.56087">
        <ele>310.56</ele>
        <time>2020-06-07T11:40:29Z</time>
      </trkpt>
      <trkpt lat="49.09481" lon="7.56078">
        <ele>311.09</ele>
        <time>2020-06-07T11:40:39Z</time>
      </trkpt>
      <trkpt lat="49.09495" lon="7.56066">
        <ele>313.79</ele>
        <time>2020-06-07T11:40:49Z</time>
      </trkpt>
      <trkpt lat="49.09504" lon="7.56055">
        <ele>314.57</ele>
        <time>2020-06-07T11:40:59Z</time>
      </trkpt>
      <trkpt lat="49.09512" lon="7.56042">
        <ele>313.95</ele>
        <time>2020-06-07T11:41:09Z</time>
      </trkpt>
      <trkpt lat="49.0952" lon="7.56031">
        <ele>312.2</ele>
        <time>2020-06-07T11:41:19Z</time>
      </trkpt>
      <trkpt lat="49.0953" lon="7.56021">
        <ele>311.05</ele>
        <time>2020-06-07T11:41:29Z</time>
      </trkpt>
      <trkpt lat="49.09538" lon="7.56013">
        <ele>310.82</ele>
        <time>2020-06-07T11:41:39Z</time>
      </trkpt>
      <trkpt lat="49.09551" lon="7.56001">
        <ele>311.83</ele>
        <time>2020-06-07T11:41:49Z</time>
      </trkpt>
      <trkpt lat="49.09564" lon="7.55991">
        <ele>309.65</ele>
        <time>2020-06-07T11:41:59Z</time>
      </trkpt>
      <trkpt lat="49.0958" lon="7.55979">
        <ele>309.19</ele>
        <time>2020-06-07T11:42:09Z</time>
      </trkpt>
      <trkpt lat="49.09593" lon="7.55972">
        <ele>308.59</ele>
        <time>2020-06-07T11:42:19Z</time>
      </trkpt>
      <trkpt lat="49.09605" lon="7.55965">
        <ele>307.42</ele>
        <time>2020-06-07T11:42:29Z</time>
      </trkpt>
      <trkpt lat="49.09617" lon="7.55958">
        <ele>306.22</ele>
        <time>2020-06-07T11:42:39Z</time>
      </trkpt>
      <trkpt lat="49.09628" lon="7.55956">
        <ele>306.11</ele>
        <time>2020-06-07T11:42:49Z</time>
      </trkpt>
      <trkpt lat="49.0964" lon="7.55953">
        <ele>307.8</ele>
        <time>2020-06-07T11:42:59Z</time>
      </trkpt>
      <trkpt lat="49.09653" lon="7.5595">
        <ele>308.16</ele>
        <time>2020-06-07T11:43:09Z</time>
      </trkpt>
      <trkpt lat="49.09667" lon="7.55945">
        <ele>308.53</ele>
        <time>2020-06-07T11:43:19Z</time>
      </trkpt>
      <trkpt lat="49.09679" lon="7.55939">
        <ele>308</ele>
        <time>2020-06-07T11:43:29Z</time>
      </trkpt>
      <trkpt lat="49.09691" lon="7.55933">
        <ele>306.34</ele>
        <time>2020-06-07T11:43:39Z</time>
      </trkpt>
      <trkpt lat="49.09703" lon="7.55927">
        <ele>304.59</ele>
        <time>2020-06-07T11:43:49Z</time>
      </trkpt>
      <trkpt lat="49.09718" lon="7.5592">
        <ele>304.37</ele>
        <time>2020-06-07T11:43:59Z</time>
      </trkpt>
      <trkpt lat="49.09731" lon="7.55913">
        <ele>300.14</ele>
        <time>2020-06-07T11:44:09Z</time>
      </trkpt>
      <trkpt lat="49.09744" lon="7.55906">
        <ele>295.77</ele>
        <time>2020-06-07T11:44:19Z</time>
      </trkpt>
      <trkpt lat="49.09755" lon="7.55903">
        <ele>295.19</ele>
        <time>2020-06-07T11:44:29Z</time>
      </trkpt>
      <trkpt lat="49.0977" lon="7.55901">
        <ele>295.49</ele>
        <time>2020-06-07T11:44:39Z</time>
      </trkpt>
      <trkpt lat="49.09787" lon="7.55899">
        <ele>296.72</ele>
        <time>2020-06-07T11:44:49Z</time>
      </trkpt>
      <trkpt lat="49.09802" lon="7.55894">
        <ele>297.72</ele>
        <time>2020-06-07T11:44:59Z</time>
      </trkpt>
      <trkpt lat="49.09813" lon="7.55892">
        <ele>298.5</ele>
        <time>2020-06-07T11:45:09Z</time>
      </trkpt>
      <trkpt lat="49.09827" lon="7.55893">
        <ele>299.03</ele>
        <time>2020-06-07T11:45:19Z</time>
      </trkpt>
      <trkpt lat="49.0984" lon="7.55895">
        <ele>298.47</ele>
        <time>2020-06-07T11:45:29Z</time>
      </trkpt>
      <trkpt lat="49.09855" lon="7.55897">
        <ele>296.88</ele>
        <time>2020-06-07T11:45:39Z</time>
      </trkpt>
      <trkpt lat="49.09866" lon="7.55898">
        <ele>297.22</ele>
        <time>2020-06-07T11:45:49Z</time>
      </trkpt>
      <trkpt lat="49.09867" lon="7.55901">
        <ele>297.08</ele>
        <time>2020-06-07T11:45:59Z</time>
      </trkpt>
      <trkpt lat="49.09868" lon="7.55895">
        <ele>297.08</ele>
        <time>2020-06-07T11:46:57Z</time>
      </trkpt>
      <trkpt lat="49.09868" lon="7.55894">
        <ele>297.74</ele>
        <time>2020-06-07T11:47:08Z</time>
      </trkpt>
      <trkpt lat="49.09874" lon="7.55888">
        <ele>297.22</ele>
        <time>2020-06-07T11:47:18Z</time>
      </trkpt>
      <trkpt lat="49.0989" lon="7.55886">
        <ele>297.04</ele>
        <time>2020-06-07T11:47:28Z</time>
      </trkpt>
      <trkpt lat="49.09903" lon="7.55889">
        <ele>297.18</ele>
        <time>2020-06-07T11:47:38Z</time>
      </trkpt>
      <trkpt lat="49.09914" lon="7.55892">
        <ele>295.79</ele>
        <time>2020-06-07T11:47:48Z</time>
      </trkpt>
      <trkpt lat="49.09915" lon="7.55892">
        <ele>295.79</ele>
        <time>2020-06-07T11:47:58Z</time>
      </trkpt>
      <trkpt lat="49.09917" lon="7.55893">
        <ele>295.79</ele>
        <time>2020-06-07T11:48:08Z</time>
      </trkpt>
      <trkpt lat="49.0992" lon="7.55891">
        <ele>296.68</ele>
        <time>2020-06-07T11:48:18Z</time>
      </trkpt>
      <trkpt lat="49.0993" lon="7.55894">
        <ele>297.94</ele>
        <time>2020-06-07T11:48:28Z</time>
      </trkpt>
      <trkpt lat="49.09946" lon="7.55895">
        <ele>297.41</ele>
        <time>2020-06-07T11:48:38Z</time>
      </trkpt>
      <trkpt lat="49.09962" lon="7.55897">
        <ele>300.02</ele>
        <time>2020-06-07T11:48:48Z</time>
      </trkpt>
      <trkpt lat="49.09978" lon="7.559">
        <ele>302.08</ele>
        <time>2020-06-07T11:48:58Z</time>
      </trkpt>
      <trkpt lat="49.09989" lon="7.55903">
        <ele>300.73</ele>
        <time>2020-06-07T11:49:08Z</time>
      </trkpt>
      <trkpt lat="49.1" lon="7.55906">
        <ele>298.2</ele>
        <time>2020-06-07T11:49:18Z</time>
      </trkpt>
      <trkpt lat="49.10013" lon="7.55904">
        <ele>298.88</ele>
        <time>2020-06-07T11:49:28Z</time>
      </trkpt>
      <trkpt lat="49.10025" lon="7.55897">
        <ele>297.58</ele>
        <time>2020-06-07T11:49:38Z</time>
      </trkpt>
      <trkpt lat="49.10037" lon="7.55891">
        <ele>297.18</ele>
        <time>2020-06-07T11:49:48Z</time>
      </trkpt>
      <trkpt lat="49.10048" lon="7.55889">
        <ele>299.64</ele>
        <time>2020-06-07T11:49:58Z</time>
      </trkpt>
      <trkpt lat="49.10061" lon="7.55887">
        <ele>300.66</ele>
        <time>2020-06-07T11:50:08Z</time>
      </trkpt>
      <trkpt lat="49.10075" lon="7.55884">
        <ele>301.63</ele>
        <time>2020-06-07T11:50:18Z</time>
      </trkpt>
      <trkpt lat="49.10088" lon="7.55883">
        <ele>302.62</ele>
        <time>2020-06-07T11:50:28Z</time>
      </trkpt>
      <trkpt lat="49.10091" lon="7.55883">
        <ele>301.97</ele>
        <time>2020-06-07T11:50:38Z</time>
      </trkpt>
      <trkpt lat="49.10095" lon="7.55899">
        <ele>299.61</ele>
        <time>2020-06-07T11:50:48.001Z</time>
      </trkpt>
      <trkpt lat="49.10095" lon="7.55921">
        <ele>297.8</ele>
        <time>2020-06-07T11:50:58.001Z</time>
      </trkpt>
      <trkpt lat="49.10093" lon="7.55923">
        <ele>297.73</ele>
        <time>2020-06-07T11:51:08.001Z</time>
      </trkpt>
      <trkpt lat="49.10102" lon="7.55926">
        <ele>296.81</ele>
        <time>2020-06-07T11:52:34.001Z</time>
      </trkpt>
      <trkpt lat="49.101" lon="7.55933">
        <ele>297.97</ele>
        <time>2020-06-07T11:52:44.001Z</time>
      </trkpt>
      <trkpt lat="49.10098" lon="7.55953">
        <ele>296.14</ele>
        <time>2020-06-07T11:52:54.001Z</time>
      </trkpt>
      <trkpt lat="49.10094" lon="7.55968">
        <ele>293.94</ele>
        <time>2020-06-07T11:53:04.001Z</time>
      </trkpt>
      <trkpt lat="49.10093" lon="7.55971">
        <ele>293.94</ele>
        <time>2020-06-07T11:53:14.001Z</time>
      </trkpt>
      <trkpt lat="49.10093" lon="7.55975">
        <ele>293.99</ele>
        <time>2020-06-07T11:53:24.001Z</time>
      </trkpt>
      <trkpt lat="49.101" lon="7.55977">
        <ele>293.04</ele>
        <time>2020-06-07T11:53:34.001Z</time>
      </trkpt>
      <trkpt lat="49.10111" lon="7.55978">
        <ele>294.54</ele>
        <time>2020-06-07T11:53:44.001Z</time>
      </trkpt>
      <trkpt lat="49.10122" lon="7.55975">
        <ele>297.38</ele>
        <time>2020-06-07T11:53:54.001Z</time>
      </trkpt>
      <trkpt lat="49.10129" lon="7.55977">
        <ele>299.98</ele>
        <time>2020-06-07T11:54:04.001Z</time>
      </trkpt>
      <trkpt lat="49.1013" lon="7.55978">
        <ele>299.98</ele>
        <time>2020-06-07T11:54:14.001Z</time>
      </trkpt>
      <trkpt lat="49.10132" lon="7.55978">
        <ele>299.89</ele>
        <time>2020-06-07T11:55:03.001Z</time>
      </trkpt>
      <trkpt lat="49.10128" lon="7.55986">
        <ele>300.81</ele>
        <time>2020-06-07T11:55:13.001Z</time>
      </trkpt>
      <trkpt lat="49.10114" lon="7.55995">
        <ele>301.11</ele>
        <time>2020-06-07T11:55:23.001Z</time>
      </trkpt>
      <trkpt lat="49.10103" lon="7.55999">
        <ele>302.49</ele>
        <time>2020-06-07T11:55:33.001Z</time>
      </trkpt>
      <trkpt lat="49.10094" lon="7.55987">
        <ele>303.69</ele>
        <time>2020-06-07T11:55:43.001Z</time>
      </trkpt>
      <trkpt lat="49.10094" lon="7.55966">
        <ele>300.05</ele>
        <time>2020-06-07T11:55:53.001Z</time>
      </trkpt>
      <trkpt lat="49.10095" lon="7.55944">
        <ele>297.55</ele>
        <time>2020-06-07T11:56:03.001Z</time>
      </trkpt>
      <trkpt lat="49.10099" lon="7.55915">
        <ele>299.31</ele>
        <time>2020-06-07T11:56:13.001Z</time>
      </trkpt>
      <trkpt lat="49.10108" lon="7.55892">
        <ele>297.96</ele>
        <time>2020-06-07T11:56:23.001Z</time>
      </trkpt>
      <trkpt lat="49.10118" lon="7.55881">
        <ele>298.47</ele>
        <time>2020-06-07T11:56:33.001Z</time>
      </trkpt>
      <trkpt lat="49.10123" lon="7.55881">
        <ele>298.46</ele>
        <time>2020-06-07T11:56:43.001Z</time>
      </trkpt>
      <trkpt lat="49.10123" lon="7.55884">
        <ele>298.46</ele>
        <time>2020-06-07T11:56:53.001Z</time>
      </trkpt>
      <trkpt lat="49.10118" lon="7.5588">
        <ele>298.46</ele>
        <time>2020-06-07T11:57:33.001Z</time>
      </trkpt>
      <trkpt lat="49.10118" lon="7.55878">
        <ele>299.82</ele>
        <time>2020-06-07T11:58:37.001Z</time>
      </trkpt>
      <trkpt lat="49.1012" lon="7.55876">
        <ele>300.22</ele>
        <time>2020-06-07T11:58:47.001Z</time>
      </trkpt>
      <trkpt lat="49.10131" lon="7.55868">
        <ele>303.14</ele>
        <time>2020-06-07T11:58:57.001Z</time>
      </trkpt>
      <trkpt lat="49.10144" lon="7.5586">
        <ele>303.86</ele>
        <time>2020-06-07T11:59:07.001Z</time>
      </trkpt>
      <trkpt lat="49.10159" lon="7.55847">
        <ele>307.13</ele>
        <time>2020-06-07T11:59:17.001Z</time>
      </trkpt>
      <trkpt lat="49.1017" lon="7.55837">
        <ele>313</ele>
        <time>2020-06-07T11:59:27.001Z</time>
      </trkpt>
      <trkpt lat="49.10183" lon="7.55836">
        <ele>312.98</ele>
        <time>2020-06-07T11:59:37.001Z</time>
      </trkpt>
      <trkpt lat="49.10198" lon="7.55848">
        <ele>306.44</ele>
        <time>2020-06-07T11:59:47.001Z</time>
      </trkpt>
      <trkpt lat="49.10216" lon="7.55861">
        <ele>300.81</ele>
        <time>2020-06-07T11:59:57.001Z</time>
      </trkpt>
      <trkpt lat="49.10232" lon="7.55865">
        <ele>296.24</ele>
        <time>2020-06-07T12:00:07.001Z</time>
      </trkpt>
      <trkpt lat="49.10244" lon="7.55868">
        <ele>294.82</ele>
        <time>2020-06-07T12:00:17.001Z</time>
      </trkpt>
      <trkpt lat="49.10254" lon="7.55871">
        <ele>291.88</ele>
        <time>2020-06-07T12:00:27.001Z</time>
      </trkpt>
      <trkpt lat="49.10264" lon="7.55874">
        <ele>291.05</ele>
        <time>2020-06-07T12:00:37.001Z</time>
      </trkpt>
      <trkpt lat="49.10276" lon="7.55877">
        <ele>292.54</ele>
        <time>2020-06-07T12:00:47.001Z</time>
      </trkpt>
      <trkpt lat="49.10288" lon="7.55884">
        <ele>293.03</ele>
        <time>2020-06-07T12:00:57.001Z</time>
      </trkpt>
      <trkpt lat="49.10299" lon="7.55891">
        <ele>296.59</ele>
        <time>2020-06-07T12:01:07.001Z</time>
      </trkpt>
      <trkpt lat="49.1031" lon="7.55899">
        <ele>301.26</ele>
        <time>2020-06-07T12:01:17.001Z</time>
      </trkpt>
      <trkpt lat="49.10321" lon="7.55907">
        <ele>304.85</ele>
        <time>2020-06-07T12:01:27.001Z</time>
      </trkpt>
      <trkpt lat="49.1033" lon="7.55916">
        <ele>306.31</ele>
        <time>2020-06-07T12:01:37.001Z</time>
      </trkpt>
      <trkpt lat="49.1034" lon="7.55922">
        <ele>306.49</ele>
        <time>2020-06-07T12:01:47.001Z</time>
      </trkpt>
      <trkpt lat="49.10351" lon="7.55929">
        <ele>308.43</ele>
        <time>2020-06-07T12:01:57.001Z</time>
      </trkpt>
      <trkpt lat="49.10363" lon="7.55936">
        <ele>310.57</ele>
        <time>2020-06-07T12:02:07.001Z</time>
      </trkpt>
      <trkpt lat="49.10376" lon="7.55944">
        <ele>315.59</ele>
        <time>2020-06-07T12:02:17.001Z</time>
      </trkpt>
      <trkpt lat="49.10388" lon="7.55952">
        <ele>318.61</ele>
        <time>2020-06-07T12:02:27.001Z</time>
      </trkpt>
      <trkpt lat="49.104" lon="7.55961">
        <ele>317.36</ele>
        <time>2020-06-07T12:02:37.001Z</time>
      </trkpt>
      <trkpt lat="49.1041" lon="7.55969">
        <ele>317.51</ele>
        <time>2020-06-07T12:02:47.001Z</time>
      </trkpt>
      <trkpt lat="49.1042" lon="7.55975">
        <ele>315.76</ele>
        <time>2020-06-07T12:02:57.001Z</time>
      </trkpt>
      <trkpt lat="49.10434" lon="7.55981">
        <ele>313.16</ele>
        <time>2020-06-07T12:03:07.001Z</time>
      </trkpt>
      <trkpt lat="49.1045" lon="7.55989">
        <ele>311.27</ele>
        <time>2020-06-07T12:03:17.001Z</time>
      </trkpt>
      <trkpt lat="49.10467" lon="7.55994">
        <ele>308.76</ele>
        <time>2020-06-07T12:03:27.001Z</time>
      </trkpt>
      <trkpt lat="49.1048" lon="7.55996">
        <ele>306.51</ele>
        <time>2020-06-07T12:03:37.001Z</time>
      </trkpt>
      <trkpt lat="49.10492" lon="7.55996">
        <ele>307.11</ele>
        <time>2020-06-07T12:03:47.001Z</time>
      </trkpt>
      <trkpt lat="49.105" lon="7.5599">
        <ele>308.83</ele>
        <time>2020-06-07T12:03:57.001Z</time>
      </trkpt>
      <trkpt lat="49.10512" lon="7.55982">
        <ele>314.26</ele>
        <time>2020-06-07T12:04:07.001Z</time>
      </trkpt>
      <trkpt lat="49.10526" lon="7.55975">
        <ele>317.46</ele>
        <time>2020-06-07T12:04:17.001Z</time>
      </trkpt>
      <trkpt lat="49.10539" lon="7.55971">
        <ele>318.1</ele>
        <time>2020-06-07T12:04:27.001Z</time>
      </trkpt>
      <trkpt lat="49.10549" lon="7.55972">
        <ele>316.62</ele>
        <time>2020-06-07T12:04:37.001Z</time>
      </trkpt>
      <trkpt lat="49.1056" lon="7.55981">
        <ele>311.85</ele>
        <time>2020-06-07T12:04:47.001Z</time>
      </trkpt>
      <trkpt lat="49.1056" lon="7.55991">
        <ele>309.44</ele>
        <time>2020-06-07T12:04:57.001Z</time>
      </trkpt>
      <trkpt lat="49.10562" lon="7.5599">
        <ele>309.44</ele>
        <time>2020-06-07T12:05:07.001Z</time>
      </trkpt>
      <trkpt lat="49.1056" lon="7.55987">
        <ele>308.82</ele>
        <time>2020-06-07T12:05:57.001Z</time>
      </trkpt>
      <trkpt lat="49.10569" lon="7.55982">
        <ele>309.51</ele>
        <time>2020-06-07T12:06:07.001Z</time>
      </trkpt>
      <trkpt lat="49.10576" lon="7.55987">
        <ele>309.07</ele>
        <time>2020-06-07T12:06:17.001Z</time>
      </trkpt>
      <trkpt lat="49.10589" lon="7.56005">
        <ele>306.77</ele>
        <time>2020-06-07T12:06:27.001Z</time>
      </trkpt>
      <trkpt lat="49.106" lon="7.56026">
        <ele>303.47</ele>
        <time>2020-06-07T12:06:37.001Z</time>
      </trkpt>
      <trkpt lat="49.10609" lon="7.56043">
        <ele>300.23</ele>
        <time>2020-06-07T12:06:47.001Z</time>
      </trkpt>
      <trkpt lat="49.1062" lon="7.56053">
        <ele>296.95</ele>
        <time>2020-06-07T12:06:57.001Z</time>
      </trkpt>
      <trkpt lat="49.10628" lon="7.56051">
        <ele>294.56</ele>
        <time>2020-06-07T12:07:07.001Z</time>
      </trkpt>
      <trkpt lat="49.10627" lon="7.56049">
        <ele>294.3</ele>
        <time>2020-06-07T12:07:17.001Z</time>
      </trkpt>
      <trkpt lat="49.10625" lon="7.56049">
        <ele>294.28</ele>
        <time>2020-06-07T12:07:27.001Z</time>
      </trkpt>
      <trkpt lat="49.10624" lon="7.56048">
        <ele>294.28</ele>
        <time>2020-06-07T12:07:56.001Z</time>
      </trkpt>
      <trkpt lat="49.10625" lon="7.56051">
        <ele>294.04</ele>
        <time>2020-06-07T12:08:37.001Z</time>
      </trkpt>
      <trkpt lat="49.10627" lon="7.56068">
        <ele>293.77</ele>
        <time>2020-06-07T12:08:47.001Z</time>
      </trkpt>
      <trkpt lat="49.10632" lon="7.56073">
        <ele>294.76</ele>
        <time>2020-06-07T12:08:57.001Z</time>
      </trkpt>
      <trkpt lat="49.10634" lon="7.56075">
        <ele>294.77</ele>
        <time>2020-06-07T12:09:07.001Z</time>
      </trkpt>
      <trkpt lat="49.10635" lon="7.56075">
        <ele>294.71</ele>
        <time>2020-06-07T12:09:39.001Z</time>
      </trkpt>
      <trkpt lat="49.10639" lon="7.5608">
        <ele>294.84</ele>
        <time>2020-06-07T12:09:49.001Z</time>
      </trkpt>
      <trkpt lat="49.10642" lon="7.56083">
        <ele>294.64</ele>
        <time>2020-06-07T12:09:59.001Z</time>
      </trkpt>
      <trkpt lat="49.1066" lon="7.56094">
        <ele>294.7</ele>
        <time>2020-06-07T12:10:09.001Z</time>
      </trkpt>
      <trkpt lat="49.10668" lon="7.56095">
        <ele>294.28</ele>
        <time>2020-06-07T12:10:19.001Z</time>
      </trkpt>
      <trkpt lat="49.1067" lon="7.56094">
        <ele>294.28</ele>
        <time>2020-06-07T12:10:29.001Z</time>
      </trkpt>
      <trkpt lat="49.10671" lon="7.56094">
        <ele>294.28</ele>
        <time>2020-06-07T12:11:47.001Z</time>
      </trkpt>
      <trkpt lat="49.10671" lon="7.56093">
        <ele>293.72</ele>
        <time>2020-06-07T12:14:19.001Z</time>
      </trkpt>
      <trkpt lat="49.10675" lon="7.56085">
        <ele>294.61</ele>
        <time>2020-06-07T12:14:29.001Z</time>
      </trkpt>
      <trkpt lat="49.10681" lon="7.56066">
        <ele>296.09</ele>
        <time>2020-06-07T12:14:39.001Z</time>
      </trkpt>
      <trkpt lat="49.10686" lon="7.56053">
        <ele>296.86</ele>
        <time>2020-06-07T12:14:49.001Z</time>
      </trkpt>
      <trkpt lat="49.10687" lon="7.5605">
        <ele>296.81</ele>
        <time>2020-06-07T12:14:59.001Z</time>
      </trkpt>
      <trkpt lat="49.10689" lon="7.56042">
        <ele>297.83</ele>
        <time>2020-06-07T12:15:09.001Z</time>
      </trkpt>
      <trkpt lat="49.1069" lon="7.56027">
        <ele>297.1</ele>
        <time>2020-06-07T12:15:19.001Z</time>
      </trkpt>
      <trkpt lat="49.10688" lon="7.56011">
        <ele>296.14</ele>
        <time>2020-06-07T12:15:29.001Z</time>
      </trkpt>
      <trkpt lat="49.10685" lon="7.55991">
        <ele>294.18</ele>
        <time>2020-06-07T12:15:39.001Z</time>
      </trkpt>
      <trkpt lat="49.10681" lon="7.55975">
        <ele>295.91</ele>
        <time>2020-06-07T12:15:49.001Z</time>
      </trkpt>
      <trkpt lat="49.10677" lon="7.55958">
        <ele>296.1</ele>
        <time>2020-06-07T12:15:59.001Z</time>
      </trkpt>
      <trkpt lat="49.10675" lon="7.55941">
        <ele>295.08</ele>
        <time>2020-06-07T12:16:09.001Z</time>
      </trkpt>
      <trkpt lat="49.10673" lon="7.55921">
        <ele>295.63</ele>
        <time>2020-06-07T12:16:19.001Z</time>
      </trkpt>
      <trkpt lat="49.10672" lon="7.55903">
        <ele>294.73</ele>
        <time>2020-06-07T12:16:29.001Z</time>
      </trkpt>
      <trkpt lat="49.10671" lon="7.55883">
        <ele>293.82</ele>
        <time>2020-06-07T12:16:39.001Z</time>
      </trkpt>
      <trkpt lat="49.10671" lon="7.55865">
        <ele>293.41</ele>
        <time>2020-06-07T12:16:49.001Z</time>
      </trkpt>
      <trkpt lat="49.10671" lon="7.55847">
        <ele>294.08</ele>
        <time>2020-06-07T12:16:59.001Z</time>
      </trkpt>
      <trkpt lat="49.10671" lon="7.55829">
        <ele>294.77</ele>
        <time>2020-06-07T12:17:09.001Z</time>
      </trkpt>
      <trkpt lat="49.10671" lon="7.55807">
        <ele>296.1</ele>
        <time>2020-06-07T12:17:19.001Z</time>
      </trkpt>
      <trkpt lat="49.10673" lon="7.55784">
        <ele>296.7</ele>
        <time>2020-06-07T12:17:29.001Z</time>
      </trkpt>
      <trkpt lat="49.10673" lon="7.55764">
        <ele>296.2</ele>
        <time>2020-06-07T12:17:39.001Z</time>
      </trkpt>
      <trkpt lat="49.10673" lon="7.55743">
        <ele>298.04</ele>
        <time>2020-06-07T12:17:49.001Z</time>
      </trkpt>
      <trkpt lat="49.10677" lon="7.55728">
        <ele>301.19</ele>
        <time>2020-06-07T12:17:59.001Z</time>
      </trkpt>
      <trkpt lat="49.10676" lon="7.55725">
        <ele>301.19</ele>
        <time>2020-06-07T12:18:09.001Z</time>
      </trkpt>
      <trkpt lat="49.10675" lon="7.55727">
        <ele>300.87</ele>
        <time>2020-06-07T12:18:30.001Z</time>
      </trkpt>
      <trkpt lat="49.10674" lon="7.55719">
        <ele>300.44</ele>
        <time>2020-06-07T12:18:40.001Z</time>
      </trkpt>
      <trkpt lat="49.10673" lon="7.55703">
        <ele>301.54</ele>
        <time>2020-06-07T12:18:50.001Z</time>
      </trkpt>
      <trkpt lat="49.10671" lon="7.5569">
        <ele>300.25</ele>
        <time>2020-06-07T12:19:00.001Z</time>
      </trkpt>
      <trkpt lat="49.10669" lon="7.55662">
        <ele>299.68</ele>
        <time>2020-06-07T12:19:10.001Z</time>
      </trkpt>
      <trkpt lat="49.10665" lon="7.55623">
        <ele>299.82</ele>
        <time>2020-06-07T12:19:20.001Z</time>
      </trkpt>
      <trkpt lat="49.10665" lon="7.55608">
        <ele>299.42</ele>
        <time>2020-06-07T12:19:30.001Z</time>
      </trkpt>
      <trkpt lat="49.10665" lon="7.55595">
        <ele>300.8</ele>
        <time>2020-06-07T12:19:40.001Z</time>
      </trkpt>
      <trkpt lat="49.10666" lon="7.5558">
        <ele>299.14</ele>
        <time>2020-06-07T12:19:50.001Z</time>
      </trkpt>
      <trkpt lat="49.10666" lon="7.55559">
        <ele>296.28</ele>
        <time>2020-06-07T12:20:00.001Z</time>
      </trkpt>
      <trkpt lat="49.10667" lon="7.55538">
        <ele>294.85</ele>
        <time>2020-06-07T12:20:10.001Z</time>
      </trkpt>
      <trkpt lat="49.10668" lon="7.55521">
        <ele>295.3</ele>
        <time>2020-06-07T12:20:20.001Z</time>
      </trkpt>
      <trkpt lat="49.1067" lon="7.55502">
        <ele>294.04</ele>
        <time>2020-06-07T12:20:30.001Z</time>
      </trkpt>
      <trkpt lat="49.1067" lon="7.55482">
        <ele>296.31</ele>
        <time>2020-06-07T12:20:40.001Z</time>
      </trkpt>
      <trkpt lat="49.10671" lon="7.55458">
        <ele>297.77</ele>
        <time>2020-06-07T12:20:50.001Z</time>
      </trkpt>
      <trkpt lat="49.10673" lon="7.55439">
        <ele>296.98</ele>
        <time>2020-06-07T12:21:00.001Z</time>
      </trkpt>
      <trkpt lat="49.10676" lon="7.5542">
        <ele>297.75</ele>
        <time>2020-06-07T12:21:10.001Z</time>
      </trkpt>
      <trkpt lat="49.10682" lon="7.55402">
        <ele>298.42</ele>
        <time>2020-06-07T12:21:20.001Z</time>
      </trkpt>
      <trkpt lat="49.10689" lon="7.55385">
        <ele>299.73</ele>
        <time>2020-06-07T12:21:30.001Z</time>
      </trkpt>
      <trkpt lat="49.10696" lon="7.55367">
        <ele>302.07</ele>
        <time>2020-06-07T12:21:40.001Z</time>
      </trkpt>
      <trkpt lat="49.10705" lon="7.55352">
        <ele>304.59</ele>
        <time>2020-06-07T12:21:50.001Z</time>
      </trkpt>
      <trkpt lat="49.10714" lon="7.55335">
        <ele>306.25</ele>
        <time>2020-06-07T12:22:00.001Z</time>
      </trkpt>
      <trkpt lat="49.10724" lon="7.55323">
        <ele>310.66</ele>
        <time>2020-06-07T12:22:10.001Z</time>
      </trkpt>
      <trkpt lat="49.10735" lon="7.5531">
        <ele>312.18</ele>
        <time>2020-06-07T12:22:20.001Z</time>
      </trkpt>
      <trkpt lat="49.10744" lon="7.55297">
        <ele>313</ele>
        <time>2020-06-07T12:22:30.001Z</time>
      </trkpt>
      <trkpt lat="49.10753" lon="7.55281">
        <ele>320.93</ele>
        <time>2020-06-07T12:22:40.001Z</time>
      </trkpt>
      <trkpt lat="49.10762" lon="7.55263">
        <ele>322.53</ele>
        <time>2020-06-07T12:22:50.001Z</time>
      </trkpt>
      <trkpt lat="49.1077" lon="7.55254">
        <ele>323.63</ele>
        <time>2020-06-07T12:23:00.001Z</time>
      </trkpt>
      <trkpt lat="49.10771" lon="7.55254">
        <ele>323.96</ele>
        <time>2020-06-07T12:23:10.001Z</time>
      </trkpt>
      <trkpt lat="49.10769" lon="7.55252">
        <ele>323.96</ele>
        <time>2020-06-07T12:23:57.001Z</time>
      </trkpt>
      <trkpt lat="49.1077" lon="7.55251">
        <ele>322.07</ele>
        <time>2020-06-07T12:24:14.001Z</time>
      </trkpt>
      <trkpt lat="49.10775" lon="7.55247">
        <ele>316.54</ele>
        <time>2020-06-07T12:24:24.001Z</time>
      </trkpt>
      <trkpt lat="49.10775" lon="7.55246">
        <ele>315.53</ele>
        <time>2020-06-07T12:24:36.001Z</time>
      </trkpt>
      <trkpt lat="49.1078" lon="7.55236">
        <ele>313.64</ele>
        <time>2020-06-07T12:24:46.001Z</time>
      </trkpt>
      <trkpt lat="49.10783" lon="7.55225">
        <ele>313.41</ele>
        <time>2020-06-07T12:24:56.001Z</time>
      </trkpt>
      <trkpt lat="49.10788" lon="7.55211">
        <ele>312.94</ele>
        <time>2020-06-07T12:25:06.001Z</time>
      </trkpt>
      <trkpt lat="49.10795" lon="7.55197">
        <ele>312.14</ele>
        <time>2020-06-07T12:25:16Z</time>
      </trkpt>
      <trkpt lat="49.10801" lon="7.55189">
        <ele>310.03</ele>
        <time>2020-06-07T12:25:25.001Z</time>
      </trkpt>
      <trkpt lat="49.10806" lon="7.55171">
        <ele>310.34</ele>
        <time>2020-06-07T12:25:35.001Z</time>
      </trkpt>
      <trkpt lat="49.1081" lon="7.55152">
        <ele>309.08</ele>
        <time>2020-06-07T12:25:45.001Z</time>
      </trkpt>
      <trkpt lat="49.10812" lon="7.55134">
        <ele>308.43</ele>
        <time>2020-06-07T12:25:55.001Z</time>
      </trkpt>
      <trkpt lat="49.10813" lon="7.55129">
        <ele>308.07</ele>
        <time>2020-06-07T12:26:05.001Z</time>
      </trkpt>
      <trkpt lat="49.10815" lon="7.55127">
        <ele>309.29</ele>
        <time>2020-06-07T12:26:15.001Z</time>
      </trkpt>
      <trkpt lat="49.10817" lon="7.55126">
        <ele>309.29</ele>
        <time>2020-06-07T12:27:21.001Z</time>
      </trkpt>
      <trkpt lat="49.10817" lon="7.55126">
        <ele>309.49</ele>
        <time>2020-06-07T12:28:48.001Z</time>
      </trkpt>
      <trkpt lat="49.10825" lon="7.5511">
        <ele>306.76</ele>
        <time>2020-06-07T12:28:58.001Z</time>
      </trkpt>
      <trkpt lat="49.10825" lon="7.55096">
        <ele>309.69</ele>
        <time>2020-06-07T12:29:08.001Z</time>
      </trkpt>
      <trkpt lat="49.10828" lon="7.55074">
        <ele>312.76</ele>
        <time>2020-06-07T12:29:18.001Z</time>
      </trkpt>
      <trkpt lat="49.10832" lon="7.55055">
        <ele>318.91</ele>
        <time>2020-06-07T12:29:28.001Z</time>
      </trkpt>
      <trkpt lat="49.1084" lon="7.55037">
        <ele>321.29</ele>
        <time>2020-06-07T12:29:38.001Z</time>
      </trkpt>
      <trkpt lat="49.10849" lon="7.55023">
        <ele>320.01</ele>
        <time>2020-06-07T12:29:48.001Z</time>
      </trkpt>
      <trkpt lat="49.10855" lon="7.55013">
        <ele>321.02</ele>
        <time>2020-06-07T12:29:58.001Z</time>
      </trkpt>
      <trkpt lat="49.10862" lon="7.55003">
        <ele>322.5</ele>
        <time>2020-06-07T12:30:08.001Z</time>
      </trkpt>
      <trkpt lat="49.1087" lon="7.54997">
        <ele>322.76</ele>
        <time>2020-06-07T12:30:18.001Z</time>
      </trkpt>
      <trkpt lat="49.1088" lon="7.54996">
        <ele>321.69</ele>
        <time>2020-06-07T12:30:28.001Z</time>
      </trkpt>
      <trkpt lat="49.10893" lon="7.54993">
        <ele>321.48</ele>
        <time>2020-06-07T12:30:38.001Z</time>
      </trkpt>
      <trkpt lat="49.10904" lon="7.54985">
        <ele>323.11</ele>
        <time>2020-06-07T12:30:48.001Z</time>
      </trkpt>
      <trkpt lat="49.10916" lon="7.54974">
        <ele>324.96</ele>
        <time>2020-06-07T12:30:58.001Z</time>
      </trkpt>
      <trkpt lat="49.10924" lon="7.54963">
        <ele>326.55</ele>
        <time>2020-06-07T12:31:08.001Z</time>
      </trkpt>
      <trkpt lat="49.10931" lon="7.54951">
        <ele>326.36</ele>
        <time>2020-06-07T12:31:18.001Z</time>
      </trkpt>
      <trkpt lat="49.10935" lon="7.54938">
        <ele>327.97</ele>
        <time>2020-06-07T12:31:28.001Z</time>
      </trkpt>
      <trkpt lat="49.10936" lon="7.54923">
        <ele>329.47</ele>
        <time>2020-06-07T12:31:38.001Z</time>
      </trkpt>
      <trkpt lat="49.10936" lon="7.54913">
        <ele>328.64</ele>
        <time>2020-06-07T12:31:48.001Z</time>
      </trkpt>
      <trkpt lat="49.10934" lon="7.54898">
        <ele>327.03</ele>
        <time>2020-06-07T12:31:58.001Z</time>
      </trkpt>
      <trkpt lat="49.10932" lon="7.54883">
        <ele>327.93</ele>
        <time>2020-06-07T12:32:08.001Z</time>
      </trkpt>
      <trkpt lat="49.10931" lon="7.54867">
        <ele>328.03</ele>
        <time>2020-06-07T12:32:18.001Z</time>
      </trkpt>
      <trkpt lat="49.10931" lon="7.54846">
        <ele>328.1</ele>
        <time>2020-06-07T12:32:28.001Z</time>
      </trkpt>
      <trkpt lat="49.10934" lon="7.54825">
        <ele>328.88</ele>
        <time>2020-06-07T12:32:38.001Z</time>
      </trkpt>
      <trkpt lat="49.10938" lon="7.54809">
        <ele>331.65</ele>
        <time>2020-06-07T12:32:48.001Z</time>
      </trkpt>
      <trkpt lat="49.10941" lon="7.54792">
        <ele>333.51</ele>
        <time>2020-06-07T12:32:58.001Z</time>
      </trkpt>
      <trkpt lat="49.10943" lon="7.54773">
        <ele>335.75</ele>
        <time>2020-06-07T12:33:08.001Z</time>
      </trkpt>
      <trkpt lat="49.10948" lon="7.5476">
        <ele>337.53</ele>
        <time>2020-06-07T12:33:18.001Z</time>
      </trkpt>
      <trkpt lat="49.10956" lon="7.54747">
        <ele>338.66</ele>
        <time>2020-06-07T12:33:28.001Z</time>
      </trkpt>
      <trkpt lat="49.10967" lon="7.54737">
        <ele>340.85</ele>
        <time>2020-06-07T12:33:38.001Z</time>
      </trkpt>
      <trkpt lat="49.10971" lon="7.54733">
        <ele>341.21</ele>
        <time>2020-06-07T12:33:48.001Z</time>
      </trkpt>
      <trkpt lat="49.10971" lon="7.54734">
        <ele>342.39</ele>
        <time>2020-06-07T12:35:19.001Z</time>
      </trkpt>
      <trkpt lat="49.10977" lon="7.54747">
        <ele>342.66</ele>
        <time>2020-06-07T12:35:29.001Z</time>
      </trkpt>
      <trkpt lat="49.10988" lon="7.54769">
        <ele>340.78</ele>
        <time>2020-06-07T12:35:39.001Z</time>
      </trkpt>
      <trkpt lat="49.10995" lon="7.54786">
        <ele>340.93</ele>
        <time>2020-06-07T12:35:49.001Z</time>
      </trkpt>
      <trkpt lat="49.11" lon="7.54804">
        <ele>341.95</ele>
        <time>2020-06-07T12:35:59.001Z</time>
      </trkpt>
      <trkpt lat="49.11004" lon="7.54828">
        <ele>341.94</ele>
        <time>2020-06-07T12:36:09.001Z</time>
      </trkpt>
      <trkpt lat="49.11008" lon="7.54843">
        <ele>342.22</ele>
        <time>2020-06-07T12:36:19.001Z</time>
      </trkpt>
      <trkpt lat="49.11012" lon="7.54859">
        <ele>343.92</ele>
        <time>2020-06-07T12:36:29.001Z</time>
      </trkpt>
      <trkpt lat="49.11016" lon="7.54875">
        <ele>344.15</ele>
        <time>2020-06-07T12:36:39.001Z</time>
      </trkpt>
      <trkpt lat="49.11019" lon="7.5489">
        <ele>344.33</ele>
        <time>2020-06-07T12:36:49.001Z</time>
      </trkpt>
      <trkpt lat="49.11024" lon="7.54906">
        <ele>345.18</ele>
        <time>2020-06-07T12:36:59.001Z</time>
      </trkpt>
      <trkpt lat="49.1103" lon="7.54918">
        <ele>347.65</ele>
        <time>2020-06-07T12:37:09.001Z</time>
      </trkpt>
      <trkpt lat="49.1103" lon="7.54921">
        <ele>347.7</ele>
        <time>2020-06-07T12:37:19.001Z</time>
      </trkpt>
      <trkpt lat="49.11031" lon="7.5492">
        <ele>347.7</ele>
        <time>2020-06-07T12:37:29.001Z</time>
      </trkpt>
      <trkpt lat="49.11031" lon="7.54921">
        <ele>347.54</ele>
        <time>2020-06-07T12:38:00.001Z</time>
      </trkpt>
      <trkpt lat="49.11033" lon="7.54936">
        <ele>346.55</ele>
        <time>2020-06-07T12:38:10.001Z</time>
      </trkpt>
      <trkpt lat="49.11035" lon="7.54943">
        <ele>346.34</ele>
        <time>2020-06-07T12:38:20.001Z</time>
      </trkpt>
      <trkpt lat="49.11035" lon="7.54944">
        <ele>346.34</ele>
        <time>2020-06-07T12:38:30.001Z</time>
      </trkpt>
      <trkpt lat="49.11036" lon="7.54945">
        <ele>346.95</ele>
        <time>2020-06-07T12:38:44.001Z</time>
      </trkpt>
      <trkpt lat="49.11037" lon="7.54947">
        <ele>347.23</ele>
        <time>2020-06-07T12:38:54.001Z</time>
      </trkpt>
      <trkpt lat="49.11039" lon="7.5495">
        <ele>347.57</ele>
        <time>2020-06-07T12:39:04.001Z</time>
      </trkpt>
      <trkpt lat="49.1104" lon="7.54951">
        <ele>347.57</ele>
        <time>2020-06-07T12:39:14.001Z</time>
      </trkpt>
      <trkpt lat="49.11041" lon="7.54952">
        <ele>348.5</ele>
        <time>2020-06-07T12:39:35.001Z</time>
      </trkpt>
      <trkpt lat="49.11046" lon="7.54956">
        <ele>348.54</ele>
        <time>2020-06-07T12:39:45.001Z</time>
      </trkpt>
      <trkpt lat="49.11051" lon="7.54966">
        <ele>348.05</ele>
        <time>2020-06-07T12:39:55.001Z</time>
      </trkpt>
      <trkpt lat="49.11058" lon="7.54975">
        <ele>348.33</ele>
        <time>2020-06-07T12:40:05.001Z</time>
      </trkpt>
      <trkpt lat="49.11068" lon="7.54985">
        <ele>347.21</ele>
        <time>2020-06-07T12:40:15.001Z</time>
      </trkpt>
      <trkpt lat="49.11072" lon="7.54989">
        <ele>347.17</ele>
        <time>2020-06-07T12:40:25.001Z</time>
      </trkpt>
      <trkpt lat="49.11078" lon="7.54992">
        <ele>348.17</ele>
        <time>2020-06-07T12:40:35.001Z</time>
      </trkpt>
      <trkpt lat="49.11087" lon="7.55002">
        <ele>348.62</ele>
        <time>2020-06-07T12:40:45.001Z</time>
      </trkpt>
      <trkpt lat="49.11101" lon="7.5502">
        <ele>346.9</ele>
        <time>2020-06-07T12:40:55.001Z</time>
      </trkpt>
      <trkpt lat="49.11115" lon="7.55039">
        <ele>347.22</ele>
        <time>2020-06-07T12:41:05.001Z</time>
      </trkpt>
      <trkpt lat="49.11124" lon="7.55045">
        <ele>346.19</ele>
        <time>2020-06-07T12:41:15.001Z</time>
      </trkpt>
      <trkpt lat="49.11126" lon="7.55043">
        <ele>346.19</ele>
        <time>2020-06-07T12:41:25.001Z</time>
      </trkpt>
      <trkpt lat="49.11124" lon="7.55043">
        <ele>344.15</ele>
        <time>2020-06-07T12:41:35.001Z</time>
      </trkpt>
      <trkpt lat="49.11124" lon="7.55033">
        <ele>339.53</ele>
        <time>2020-06-07T12:41:45.001Z</time>
      </trkpt>
      <trkpt lat="49.11124" lon="7.55019">
        <ele>339.34</ele>
        <time>2020-06-07T12:41:55.001Z</time>
      </trkpt>
      <trkpt lat="49.11125" lon="7.55005">
        <ele>338.03</ele>
        <time>2020-06-07T12:42:05.001Z</time>
      </trkpt>
      <trkpt lat="49.11126" lon="7.54994">
        <ele>338.18</ele>
        <time>2020-06-07T12:42:15.001Z</time>
      </trkpt>
      <trkpt lat="49.1114" lon="7.5499">
        <ele>341.02</ele>
        <time>2020-06-07T12:42:25.001Z</time>
      </trkpt>
      <trkpt lat="49.11148" lon="7.54991">
        <ele>342.33</ele>
        <time>2020-06-07T12:42:35.001Z</time>
      </trkpt>
      <trkpt lat="49.11158" lon="7.54992">
        <ele>347.27</ele>
        <time>2020-06-07T12:42:45.001Z</time>
      </trkpt>
      <trkpt lat="49.11172" lon="7.54996">
        <ele>351.52</ele>
        <time>2020-06-07T12:42:55.001Z</time>
      </trkpt>
      <trkpt lat="49.11181" lon="7.55002">
        <ele>352.82</ele>
        <time>2020-06-07T12:43:05.001Z</time>
      </trkpt>
      <trkpt lat="49.11187" lon="7.55009">
        <ele>355.75</ele>
        <time>2020-06-07T12:43:15.001Z</time>
      </trkpt>
      <trkpt lat="49.11192" lon="7.55015">
        <ele>356.8</ele>
        <time>2020-06-07T12:43:25.001Z</time>
      </trkpt>
      <trkpt lat="49.11201" lon="7.55019">
        <ele>357.77</ele>
        <time>2020-06-07T12:43:35.001Z</time>
      </trkpt>
      <trkpt lat="49.11208" lon="7.55022">
        <ele>358.93</ele>
        <time>2020-06-07T12:43:45.001Z</time>
      </trkpt>
      <trkpt lat="49.11224" lon="7.55032">
        <ele>360.95</ele>
        <time>2020-06-07T12:43:55.001Z</time>
      </trkpt>
      <trkpt lat="49.11233" lon="7.55038">
        <ele>360.85</ele>
        <time>2020-06-07T12:44:05.001Z</time>
      </trkpt>
      <trkpt lat="49.11243" lon="7.55045">
        <ele>361.69</ele>
        <time>2020-06-07T12:44:15.001Z</time>
      </trkpt>
      <trkpt lat="49.11245" lon="7.55047">
        <ele>361.69</ele>
        <time>2020-06-07T12:44:25.001Z</time>
      </trkpt>
      <trkpt lat="49.11246" lon="7.55047">
        <ele>361.58</ele>
        <time>2020-06-07T12:45:31.001Z</time>
      </trkpt>
      <trkpt lat="49.11254" lon="7.55053">
        <ele>362.53</ele>
        <time>2020-06-07T12:45:41.001Z</time>
      </trkpt>
      <trkpt lat="49.11264" lon="7.55063">
        <ele>363.21</ele>
        <time>2020-06-07T12:45:51.001Z</time>
      </trkpt>
      <trkpt lat="49.11273" lon="7.55075">
        <ele>362.06</ele>
        <time>2020-06-07T12:46:01.001Z</time>
      </trkpt>
      <trkpt lat="49.11283" lon="7.55087">
        <ele>362.07</ele>
        <time>2020-06-07T12:46:11.001Z</time>
      </trkpt>
      <trkpt lat="49.11296" lon="7.55102">
        <ele>359.65</ele>
        <time>2020-06-07T12:46:21.001Z</time>
      </trkpt>
      <trkpt lat="49.11304" lon="7.55108">
        <ele>356.62</ele>
        <time>2020-06-07T12:46:31.001Z</time>
      </trkpt>
      <trkpt lat="49.11307" lon="7.55105">
        <ele>355.01</ele>
        <time>2020-06-07T12:46:41.001Z</time>
      </trkpt>
      <trkpt lat="49.11307" lon="7.55098">
        <ele>353.43</ele>
        <time>2020-06-07T12:46:51.001Z</time>
      </trkpt>
      <trkpt lat="49.11308" lon="7.55084">
        <ele>352.57</ele>
        <time>2020-06-07T12:47:01.001Z</time>
      </trkpt>
      <trkpt lat="49.11309" lon="7.55066">
        <ele>352.38</ele>
        <time>2020-06-07T12:47:11.001Z</time>
      </trkpt>
      <trkpt lat="49.1131" lon="7.55039">
        <ele>350.82</ele>
        <time>2020-06-07T12:47:21.001Z</time>
      </trkpt>
      <trkpt lat="49.11313" lon="7.55023">
        <ele>351.4</ele>
        <time>2020-06-07T12:47:31.001Z</time>
      </trkpt>
      <trkpt lat="49.11313" lon="7.55011">
        <ele>351.51</ele>
        <time>2020-06-07T12:47:41.001Z</time>
      </trkpt>
      <trkpt lat="49.11311" lon="7.55007">
        <ele>351.52</ele>
        <time>2020-06-07T12:47:51.001Z</time>
      </trkpt>
      <trkpt lat="49.11312" lon="7.55005">
        <ele>351.7</ele>
        <time>2020-06-07T12:48:19.001Z</time>
      </trkpt>
      <trkpt lat="49.11315" lon="7.54995">
        <ele>352.46</ele>
        <time>2020-06-07T12:48:29.001Z</time>
      </trkpt>
      <trkpt lat="49.11317" lon="7.54981">
        <ele>353.95</ele>
        <time>2020-06-07T12:48:39.001Z</time>
      </trkpt>
      <trkpt lat="49.11318" lon="7.54977">
        <ele>354.29</ele>
        <time>2020-06-07T12:48:49.001Z</time>
      </trkpt>
      <trkpt lat="49.11321" lon="7.54966">
        <ele>356.18</ele>
        <time>2020-06-07T12:48:59.001Z</time>
      </trkpt>
      <trkpt lat="49.11321" lon="7.54962">
        <ele>356.24</ele>
        <time>2020-06-07T12:49:09.001Z</time>
      </trkpt>
      <trkpt lat="49.11322" lon="7.54962">
        <ele>355.72</ele>
        <time>2020-06-07T12:49:50.001Z</time>
      </trkpt>
      <trkpt lat="49.11323" lon="7.54958">
        <ele>355.07</ele>
        <time>2020-06-07T12:50:00.001Z</time>
      </trkpt>
      <trkpt lat="49.11324" lon="7.54944">
        <ele>356.34</ele>
        <time>2020-06-07T12:50:10.001Z</time>
      </trkpt>
      <trkpt lat="49.11326" lon="7.54923">
        <ele>356.33</ele>
        <time>2020-06-07T12:50:20.001Z</time>
      </trkpt>
      <trkpt lat="49.11327" lon="7.54907">
        <ele>357.77</ele>
        <time>2020-06-07T12:50:30.001Z</time>
      </trkpt>
      <trkpt lat="49.11326" lon="7.54891">
        <ele>360.04</ele>
        <time>2020-06-07T12:50:40.001Z</time>
      </trkpt>
      <trkpt lat="49.11324" lon="7.54873">
        <ele>361.33</ele>
        <time>2020-06-07T12:50:50.001Z</time>
      </trkpt>
      <trkpt lat="49.1132" lon="7.54851">
        <ele>361.94</ele>
        <time>2020-06-07T12:51:00.001Z</time>
      </trkpt>
      <trkpt lat="49.11313" lon="7.54833">
        <ele>362.11</ele>
        <time>2020-06-07T12:51:10.001Z</time>
      </trkpt>
      <trkpt lat="49.11308" lon="7.5482">
        <ele>365.52</ele>
        <time>2020-06-07T12:51:20.001Z</time>
      </trkpt>
      <trkpt lat="49.11305" lon="7.54808">
        <ele>368.22</ele>
        <time>2020-06-07T12:51:30.001Z</time>
      </trkpt>
      <trkpt lat="49.113" lon="7.54793">
        <ele>369.22</ele>
        <time>2020-06-07T12:51:40.001Z</time>
      </trkpt>
      <trkpt lat="49.11296" lon="7.5478">
        <ele>370.63</ele>
        <time>2020-06-07T12:51:50.001Z</time>
      </trkpt>
      <trkpt lat="49.1129" lon="7.54766">
        <ele>372.13</ele>
        <time>2020-06-07T12:52:00.001Z</time>
      </trkpt>
      <trkpt lat="49.11285" lon="7.54752">
        <ele>374.13</ele>
        <time>2020-06-07T12:52:10.001Z</time>
      </trkpt>
      <trkpt lat="49.1128" lon="7.54737">
        <ele>375.6</ele>
        <time>2020-06-07T12:52:20.001Z</time>
      </trkpt>
      <trkpt lat="49.11275" lon="7.5472">
        <ele>376.89</ele>
        <time>2020-06-07T12:52:30.001Z</time>
      </trkpt>
      <trkpt lat="49.11269" lon="7.54707">
        <ele>379.19</ele>
        <time>2020-06-07T12:52:40.001Z</time>
      </trkpt>
      <trkpt lat="49.11264" lon="7.54694">
        <ele>379.38</ele>
        <time>2020-06-07T12:52:50.001Z</time>
      </trkpt>
      <trkpt lat="49.1126" lon="7.54679">
        <ele>377.37</ele>
        <time>2020-06-07T12:53:00.001Z</time>
      </trkpt>
      <trkpt lat="49.11255" lon="7.54661">
        <ele>377.48</ele>
        <time>2020-06-07T12:53:10.001Z</time>
      </trkpt>
      <trkpt lat="49.11251" lon="7.54648">
        <ele>379.67</ele>
        <time>2020-06-07T12:53:20.001Z</time>
      </trkpt>
      <trkpt lat="49.11248" lon="7.54638">
        <ele>381.17</ele>
        <time>2020-06-07T12:53:30.001Z</time>
      </trkpt>
      <trkpt lat="49.11244" lon="7.54623">
        <ele>381.28</ele>
        <time>2020-06-07T12:53:40.001Z</time>
      </trkpt>
      <trkpt lat="49.11239" lon="7.54602">
        <ele>383.83</ele>
        <time>2020-06-07T12:53:50.001Z</time>
      </trkpt>
      <trkpt lat="49.11235" lon="7.5458">
        <ele>383.79</ele>
        <time>2020-06-07T12:54:00.001Z</time>
      </trkpt>
      <trkpt lat="49.11231" lon="7.54565">
        <ele>384.83</ele>
        <time>2020-06-07T12:54:10.001Z</time>
      </trkpt>
      <trkpt lat="49.1123" lon="7.54562">
        <ele>384.83</ele>
        <time>2020-06-07T12:54:20.001Z</time>
      </trkpt>
      <trkpt lat="49.11232" lon="7.54566">
        <ele>384.83</ele>
        <time>2020-06-07T12:54:49.001Z</time>
      </trkpt>
      <trkpt lat="49.11232" lon="7.54565">
        <ele>383.86</ele>
        <time>2020-06-07T12:54:59.001Z</time>
      </trkpt>
      <trkpt lat="49.11231" lon="7.54563">
        <ele>383.86</ele>
        <time>2020-06-07T12:55:42.001Z</time>
      </trkpt>
      <trkpt lat="49.11227" lon="7.54552">
        <ele>384.98</ele>
        <time>2020-06-07T12:55:52.001Z</time>
      </trkpt>
      <trkpt lat="49.11225" lon="7.54541">
        <ele>386.43</ele>
        <time>2020-06-07T12:56:02Z</time>
      </trkpt>
      <trkpt lat="49.1122" lon="7.54514">
        <ele>388.34</ele>
        <time>2020-06-07T12:56:11.001Z</time>
      </trkpt>
      <trkpt lat="49.11218" lon="7.54494">
        <ele>388.21</ele>
        <time>2020-06-07T12:56:21.001Z</time>
      </trkpt>
      <trkpt lat="49.11219" lon="7.54491">
        <ele>388.39</ele>
        <time>2020-06-07T12:56:31.001Z</time>
      </trkpt>
      <trkpt lat="49.11219" lon="7.5449">
        <ele>389.02</ele>
        <time>2020-06-07T12:57:29.001Z</time>
      </trkpt>
      <trkpt lat="49.11217" lon="7.54482">
        <ele>390.07</ele>
        <time>2020-06-07T12:57:39.001Z</time>
      </trkpt>
      <trkpt lat="49.11214" lon="7.54467">
        <ele>391.98</ele>
        <time>2020-06-07T12:57:49.001Z</time>
      </trkpt>
      <trkpt lat="49.1121" lon="7.5444">
        <ele>393.3</ele>
        <time>2020-06-07T12:57:59.001Z</time>
      </trkpt>
      <trkpt lat="49.1121" lon="7.54424">
        <ele>392.96</ele>
        <time>2020-06-07T12:58:09.001Z</time>
      </trkpt>
      <trkpt lat="49.11213" lon="7.54413">
        <ele>394.79</ele>
        <time>2020-06-07T12:58:19.001Z</time>
      </trkpt>
      <trkpt lat="49.11219" lon="7.54403">
        <ele>396.38</ele>
        <time>2020-06-07T12:58:29.001Z</time>
      </trkpt>
      <trkpt lat="49.1123" lon="7.54393">
        <ele>398.09</ele>
        <time>2020-06-07T12:58:39.001Z</time>
      </trkpt>
      <trkpt lat="49.11243" lon="7.54383">
        <ele>397.13</ele>
        <time>2020-06-07T12:58:49.001Z</time>
      </trkpt>
      <trkpt lat="49.11248" lon="7.54382">
        <ele>397.5</ele>
        <time>2020-06-07T12:58:59.001Z</time>
      </trkpt>
      <trkpt lat="49.11258" lon="7.54385">
        <ele>397.04</ele>
        <time>2020-06-07T12:59:09.001Z</time>
      </trkpt>
      <trkpt lat="49.11266" lon="7.54386">
        <ele>395.72</ele>
        <time>2020-06-07T12:59:19.001Z</time>
      </trkpt>
      <trkpt lat="49.11278" lon="7.54388">
        <ele>393.36</ele>
        <time>2020-06-07T12:59:29.001Z</time>
      </trkpt>
      <trkpt lat="49.11295" lon="7.54393">
        <ele>390.25</ele>
        <time>2020-06-07T12:59:39.001Z</time>
      </trkpt>
      <trkpt lat="49.11304" lon="7.54395">
        <ele>385.52</ele>
        <time>2020-06-07T12:59:49.001Z</time>
      </trkpt>
      <trkpt lat="49.11313" lon="7.544">
        <ele>383.74</ele>
        <time>2020-06-07T12:59:59.001Z</time>
      </trkpt>
      <trkpt lat="49.11324" lon="7.54404">
        <ele>382.79</ele>
        <time>2020-06-07T13:00:09.001Z</time>
      </trkpt>
      <trkpt lat="49.11333" lon="7.54408">
        <ele>380.01</ele>
        <time>2020-06-07T13:00:19.001Z</time>
      </trkpt>
      <trkpt lat="49.11344" lon="7.54414">
        <ele>377.21</ele>
        <time>2020-06-07T13:00:29.001Z</time>
      </trkpt>
      <trkpt lat="49.11355" lon="7.5442">
        <ele>375.82</ele>
        <time>2020-06-07T13:00:39.001Z</time>
      </trkpt>
      <trkpt lat="49.11368" lon="7.54429">
        <ele>373.06</ele>
        <time>2020-06-07T13:00:49.001Z</time>
      </trkpt>
      <trkpt lat="49.11382" lon="7.54438">
        <ele>372.36</ele>
        <time>2020-06-07T13:00:59.001Z</time>
      </trkpt>
      <trkpt lat="49.11402" lon="7.54446">
        <ele>370.04</ele>
        <time>2020-06-07T13:01:09.001Z</time>
      </trkpt>
      <trkpt lat="49.11409" lon="7.54446">
        <ele>365.54</ele>
        <time>2020-06-07T13:01:19.001Z</time>
      </trkpt>
      <trkpt lat="49.11415" lon="7.54443">
        <ele>362.5</ele>
        <time>2020-06-07T13:01:29.001Z</time>
      </trkpt>
      <trkpt lat="49.11423" lon="7.54437">
        <ele>361.6</ele>
        <time>2020-06-07T13:01:39.001Z</time>
      </trkpt>
      <trkpt lat="49.11436" lon="7.54416">
        <ele>361.99</ele>
        <time>2020-06-07T13:01:49.001Z</time>
      </trkpt>
      <trkpt lat="49.1144" lon="7.54403">
        <ele>360.42</ele>
        <time>2020-06-07T13:01:59.001Z</time>
      </trkpt>
      <trkpt lat="49.11441" lon="7.54387">
        <ele>360.38</ele>
        <time>2020-06-07T13:02:09.001Z</time>
      </trkpt>
      <trkpt lat="49.1144" lon="7.54374">
        <ele>361.43</ele>
        <time>2020-06-07T13:02:19.001Z</time>
      </trkpt>
      <trkpt lat="49.11438" lon="7.54357">
        <ele>361.26</ele>
        <time>2020-06-07T13:02:29.001Z</time>
      </trkpt>
      <trkpt lat="49.11439" lon="7.54343">
        <ele>361.03</ele>
        <time>2020-06-07T13:02:39.001Z</time>
      </trkpt>
      <trkpt lat="49.11441" lon="7.54322">
        <ele>361.84</ele>
        <time>2020-06-07T13:02:49.001Z</time>
      </trkpt>
      <trkpt lat="49.11441" lon="7.54297">
        <ele>362.55</ele>
        <time>2020-06-07T13:02:59.001Z</time>
      </trkpt>
      <trkpt lat="49.11445" lon="7.54277">
        <ele>363.84</ele>
        <time>2020-06-07T13:03:09.001Z</time>
      </trkpt>
      <trkpt lat="49.1145" lon="7.54259">
        <ele>367.1</ele>
        <time>2020-06-07T13:03:19.001Z</time>
      </trkpt>
      <trkpt lat="49.11454" lon="7.54245">
        <ele>368.48</ele>
        <time>2020-06-07T13:03:29.001Z</time>
      </trkpt>
      <trkpt lat="49.11457" lon="7.54229">
        <ele>371.79</ele>
        <time>2020-06-07T13:03:39.001Z</time>
      </trkpt>
      <trkpt lat="49.11462" lon="7.54213">
        <ele>371.13</ele>
        <time>2020-06-07T13:03:49.001Z</time>
      </trkpt>
      <trkpt lat="49.11468" lon="7.54195">
        <ele>368.08</ele>
        <time>2020-06-07T13:03:59.001Z</time>
      </trkpt>
      <trkpt lat="49.11474" lon="7.54179">
        <ele>367.33</ele>
        <time>2020-06-07T13:04:09.001Z</time>
      </trkpt>
      <trkpt lat="49.11479" lon="7.54164">
        <ele>368.15</ele>
        <time>2020-06-07T13:04:19.001Z</time>
      </trkpt>
      <trkpt lat="49.11486" lon="7.54156">
        <ele>368.54</ele>
        <time>2020-06-07T13:04:29.001Z</time>
      </trkpt>
      <trkpt lat="49.11485" lon="7.54152">
        <ele>368.55</ele>
        <time>2020-06-07T13:04:39.001Z</time>
      </trkpt>
      <trkpt lat="49.11483" lon="7.54154">
        <ele>368.55</ele>
        <time>2020-06-07T13:04:49.001Z</time>
      </trkpt>
      <trkpt lat="49.11482" lon="7.54156">
        <ele>368.55</ele>
        <time>2020-06-07T13:04:59.001Z</time>
      </trkpt>
      <trkpt lat="49.11483" lon="7.54156">
        <ele>368.67</ele>
        <time>2020-06-07T13:05:47.001Z</time>
      </trkpt>
      <trkpt lat="49.11491" lon="7.54154">
        <ele>367.96</ele>
        <time>2020-06-07T13:05:57.001Z</time>
      </trkpt>
      <trkpt lat="49.11501" lon="7.5415">
        <ele>368.12</ele>
        <time>2020-06-07T13:06:07.001Z</time>
      </trkpt>
      <trkpt lat="49.11512" lon="7.54149">
        <ele>368.07</ele>
        <time>2020-06-07T13:06:17.001Z</time>
      </trkpt>
      <trkpt lat="49.11515" lon="7.54149">
        <ele>368.06</ele>
        <time>2020-06-07T13:06:27.001Z</time>
      </trkpt>
      <trkpt lat="49.11521" lon="7.54153">
        <ele>367.18</ele>
        <time>2020-06-07T13:06:37.001Z</time>
      </trkpt>
      <trkpt lat="49.11524" lon="7.54155">
        <ele>367.18</ele>
        <time>2020-06-07T13:06:47.001Z</time>
      </trkpt>
      <trkpt lat="49.11529" lon="7.54159">
        <ele>367.15</ele>
        <time>2020-06-07T13:06:57.001Z</time>
      </trkpt>
      <trkpt lat="49.11542" lon="7.5417">
        <ele>366.25</ele>
        <time>2020-06-07T13:07:07.001Z</time>
      </trkpt>
      <trkpt lat="49.1156" lon="7.54187">
        <ele>365.57</ele>
        <time>2020-06-07T13:07:17.001Z</time>
      </trkpt>
      <trkpt lat="49.11568" lon="7.54194">
        <ele>365.56</ele>
        <time>2020-06-07T13:07:27.001Z</time>
      </trkpt>
      <trkpt lat="49.1157" lon="7.54196">
        <ele>365.56</ele>
        <time>2020-06-07T13:07:37.001Z</time>
      </trkpt>
      <trkpt lat="49.11571" lon="7.54197">
        <ele>365.73</ele>
        <time>2020-06-07T13:09:21.001Z</time>
      </trkpt>
      <trkpt lat="49.11579" lon="7.54208">
        <ele>365.87</ele>
        <time>2020-06-07T13:09:31.001Z</time>
      </trkpt>
      <trkpt lat="49.11581" lon="7.54209">
        <ele>365.87</ele>
        <time>2020-06-07T13:09:41.001Z</time>
      </trkpt>
      <trkpt lat="49.11581" lon="7.54209">
        <ele>365.63</ele>
        <time>2020-06-07T13:10:06.001Z</time>
      </trkpt>
      <trkpt lat="49.11592" lon="7.54209">
        <ele>364.69</ele>
        <time>2020-06-07T13:10:16Z</time>
      </trkpt>
      <trkpt lat="49.11598" lon="7.54215">
        <ele>364.1</ele>
        <time>2020-06-07T13:10:25.001Z</time>
      </trkpt>
      <trkpt lat="49.11602" lon="7.54223">
        <ele>363.92</ele>
        <time>2020-06-07T13:10:35.001Z</time>
      </trkpt>
      <trkpt lat="49.11603" lon="7.54224">
        <ele>363.92</ele>
        <time>2020-06-07T13:10:45.001Z</time>
      </trkpt>
      <trkpt lat="49.11603" lon="7.54228">
        <ele>364.14</ele>
        <time>2020-06-07T13:10:55.001Z</time>
      </trkpt>
      <trkpt lat="49.11603" lon="7.54229">
        <ele>364.14</ele>
        <time>2020-06-07T13:11:05.001Z</time>
      </trkpt>
      <trkpt lat="49.11603" lon="7.54231">
        <ele>364.17</ele>
        <time>2020-06-07T13:11:40.001Z</time>
      </trkpt>
      <trkpt lat="49.11603" lon="7.54236">
        <ele>364.54</ele>
        <time>2020-06-07T13:11:50.001Z</time>
      </trkpt>
      <trkpt lat="49.11604" lon="7.54238">
        <ele>364.54</ele>
        <time>2020-06-07T13:12:21.001Z</time>
      </trkpt>
      <trkpt lat="49.11602" lon="7.54241">
        <ele>365.77</ele>
        <time>2020-06-07T13:12:31.001Z</time>
      </trkpt>
      <trkpt lat="49.116" lon="7.54243">
        <ele>365.77</ele>
        <time>2020-06-07T13:12:41.001Z</time>
      </trkpt>
      <trkpt lat="49.11601" lon="7.54244">
        <ele>365.16</ele>
        <time>2020-06-07T13:13:37.001Z</time>
      </trkpt>
      <trkpt lat="49.11605" lon="7.5425">
        <ele>365.03</ele>
        <time>2020-06-07T13:13:47.001Z</time>
      </trkpt>
      <trkpt lat="49.11608" lon="7.54253">
        <ele>363.99</ele>
        <time>2020-06-07T13:13:57.001Z</time>
      </trkpt>
      <trkpt lat="49.11609" lon="7.54253">
        <ele>364.11</ele>
        <time>2020-06-07T13:14:07.001Z</time>
      </trkpt>
      <trkpt lat="49.11612" lon="7.54257">
        <ele>363.99</ele>
        <time>2020-06-07T13:14:17.001Z</time>
      </trkpt>
      <trkpt lat="49.11616" lon="7.54259">
        <ele>363.58</ele>
        <time>2020-06-07T13:14:27.001Z</time>
      </trkpt>
      <trkpt lat="49.11617" lon="7.54259">
        <ele>363.58</ele>
        <time>2020-06-07T13:14:40.001Z</time>
      </trkpt>
      <trkpt lat="49.11624" lon="7.54262">
        <ele>363.24</ele>
        <time>2020-06-07T13:14:50.001Z</time>
      </trkpt>
      <trkpt lat="49.11636" lon="7.54275">
        <ele>362.47</ele>
        <time>2020-06-07T13:15:00.001Z</time>
      </trkpt>
      <trkpt lat="49.11652" lon="7.54292">
        <ele>362.54</ele>
        <time>2020-06-07T13:15:10.001Z</time>
      </trkpt>
      <trkpt lat="49.11658" lon="7.54301">
        <ele>364.23</ele>
        <time>2020-06-07T13:15:20.001Z</time>
      </trkpt>
      <trkpt lat="49.11659" lon="7.54302">
        <ele>364.23</ele>
        <time>2020-06-07T13:15:30.001Z</time>
      </trkpt>
      <trkpt lat="49.1166" lon="7.54303">
        <ele>364.23</ele>
        <time>2020-06-07T13:16:00.001Z</time>
      </trkpt>
      <trkpt lat="49.1166" lon="7.54305">
        <ele>364.17</ele>
        <time>2020-06-07T13:16:24.001Z</time>
      </trkpt>
      <trkpt lat="49.11673" lon="7.54324">
        <ele>364.35</ele>
        <time>2020-06-07T13:16:34.001Z</time>
      </trkpt>
      <trkpt lat="49.11675" lon="7.54331">
        <ele>364.15</ele>
        <time>2020-06-07T13:16:44.001Z</time>
      </trkpt>
      <trkpt lat="49.11676" lon="7.54334">
        <ele>364.16</ele>
        <time>2020-06-07T13:16:54.001Z</time>
      </trkpt>
      <trkpt lat="49.11676" lon="7.54335">
        <ele>364.92</ele>
        <time>2020-06-07T13:18:10.001Z</time>
      </trkpt>
      <trkpt lat="49.11677" lon="7.54336">
        <ele>364.89</ele>
        <time>2020-06-07T13:18:29.001Z</time>
      </trkpt>
      <trkpt lat="49.11683" lon="7.5435">
        <ele>364.14</ele>
        <time>2020-06-07T13:18:39.001Z</time>
      </trkpt>
      <trkpt lat="49.11691" lon="7.54359">
        <ele>363.28</ele>
        <time>2020-06-07T13:18:49.001Z</time>
      </trkpt>
      <trkpt lat="49.11692" lon="7.54362">
        <ele>363.27</ele>
        <time>2020-06-07T13:18:59.001Z</time>
      </trkpt>
      <trkpt lat="49.11693" lon="7.54362">
        <ele>364.08</ele>
        <time>2020-06-07T13:19:28.001Z</time>
      </trkpt>
      <trkpt lat="49.11699" lon="7.54368">
        <ele>364.1</ele>
        <time>2020-06-07T13:19:38.001Z</time>
      </trkpt>
      <trkpt lat="49.11702" lon="7.5439">
        <ele>364.24</ele>
        <time>2020-06-07T13:19:48.001Z</time>
      </trkpt>
      <trkpt lat="49.11709" lon="7.54411">
        <ele>365.79</ele>
        <time>2020-06-07T13:19:58.001Z</time>
      </trkpt>
      <trkpt lat="49.11712" lon="7.54425">
        <ele>368.02</ele>
        <time>2020-06-07T13:20:08.001Z</time>
      </trkpt>
      <trkpt lat="49.11718" lon="7.54442">
        <ele>367.68</ele>
        <time>2020-06-07T13:20:18.001Z</time>
      </trkpt>
      <trkpt lat="49.11724" lon="7.54457">
        <ele>368.18</ele>
        <time>2020-06-07T13:20:28.001Z</time>
      </trkpt>
      <trkpt lat="49.11723" lon="7.54464">
        <ele>367.99</ele>
        <time>2020-06-07T13:20:38.001Z</time>
      </trkpt>
      <trkpt lat="49.11723" lon="7.5447">
        <ele>368.01</ele>
        <time>2020-06-07T13:20:48.001Z</time>
      </trkpt>
      <trkpt lat="49.11726" lon="7.54476">
        <ele>367.86</ele>
        <time>2020-06-07T13:20:58.001Z</time>
      </trkpt>
      <trkpt lat="49.11727" lon="7.54468">
        <ele>367.82</ele>
        <time>2020-06-07T13:21:08.001Z</time>
      </trkpt>
      <trkpt lat="49.11724" lon="7.54465">
        <ele>367.8</ele>
        <time>2020-06-07T13:21:17.002Z</time>
      </trkpt>
      <trkpt lat="49.11723" lon="7.54467">
        <ele>367.8</ele>
        <time>2020-06-07T13:21:27.001Z</time>
      </trkpt>
      <trkpt lat="49.11725" lon="7.54483">
        <ele>364.56</ele>
        <time>2020-06-07T13:21:37.001Z</time>
      </trkpt>
      <trkpt lat="49.11725" lon="7.54489">
        <ele>364.56</ele>
        <time>2020-06-07T13:21:47.001Z</time>
      </trkpt>
      <trkpt lat="49.11724" lon="7.54491">
        <ele>364.56</ele>
        <time>2020-06-07T13:22:39.001Z</time>
      </trkpt>
      <trkpt lat="49.11724" lon="7.54493">
        <ele>364.4</ele>
        <time>2020-06-07T13:24:57.001Z</time>
      </trkpt>
      <trkpt lat="49.11725" lon="7.54498">
        <ele>363.02</ele>
        <time>2020-06-07T13:25:07.001Z</time>
      </trkpt>
      <trkpt lat="49.11726" lon="7.54502">
        <ele>362.24</ele>
        <time>2020-06-07T13:25:17.001Z</time>
      </trkpt>
      <trkpt lat="49.11726" lon="7.54503">
        <ele>362.24</ele>
        <time>2020-06-07T13:25:29.001Z</time>
      </trkpt>
      <trkpt lat="49.11726" lon="7.54504">
        <ele>363.49</ele>
        <time>2020-06-07T13:26:34.001Z</time>
      </trkpt>
      <trkpt lat="49.11725" lon="7.5452">
        <ele>365.34</ele>
        <time>2020-06-07T13:26:44.001Z</time>
      </trkpt>
      <trkpt lat="49.11725" lon="7.54523">
        <ele>365.34</ele>
        <time>2020-06-07T13:26:54.001Z</time>
      </trkpt>
      <trkpt lat="49.11725" lon="7.54525">
        <ele>364.49</ele>
        <time>2020-06-07T13:27:08.001Z</time>
      </trkpt>
      <trkpt lat="49.11722" lon="7.54552">
        <ele>361.97</ele>
        <time>2020-06-07T13:27:18.001Z</time>
      </trkpt>
      <trkpt lat="49.1172" lon="7.54567">
        <ele>359.74</ele>
        <time>2020-06-07T13:27:28.001Z</time>
      </trkpt>
      <trkpt lat="49.11716" lon="7.54591">
        <ele>355.97</ele>
        <time>2020-06-07T13:27:38.001Z</time>
      </trkpt>
      <trkpt lat="49.11713" lon="7.54611">
        <ele>353.01</ele>
        <time>2020-06-07T13:27:48.001Z</time>
      </trkpt>
      <trkpt lat="49.11711" lon="7.54622">
        <ele>351.24</ele>
        <time>2020-06-07T13:27:58.001Z</time>
      </trkpt>
      <trkpt lat="49.11708" lon="7.54638">
        <ele>348.47</ele>
        <time>2020-06-07T13:28:08.001Z</time>
      </trkpt>
      <trkpt lat="49.11707" lon="7.54651">
        <ele>347.03</ele>
        <time>2020-06-07T13:28:18.001Z</time>
      </trkpt>
      <trkpt lat="49.11706" lon="7.54652">
        <ele>347.03</ele>
        <time>2020-06-07T13:28:28.001Z</time>
      </trkpt>
      <trkpt lat="49.11708" lon="7.54646">
        <ele>347.03</ele>
        <time>2020-06-07T13:29:27.001Z</time>
      </trkpt>
      <trkpt lat="49.11708" lon="7.54648">
        <ele>345.66</ele>
        <time>2020-06-07T13:29:43.001Z</time>
      </trkpt>
      <trkpt lat="49.11707" lon="7.5465">
        <ele>345.56</ele>
        <time>2020-06-07T13:29:53.001Z</time>
      </trkpt>
      <trkpt lat="49.11709" lon="7.54666">
        <ele>343.82</ele>
        <time>2020-06-07T13:30:03.001Z</time>
      </trkpt>
      <trkpt lat="49.11707" lon="7.54683">
        <ele>339.21</ele>
        <time>2020-06-07T13:30:13.001Z</time>
      </trkpt>
      <trkpt lat="49.11706" lon="7.547">
        <ele>336.72</ele>
        <time>2020-06-07T13:30:23.001Z</time>
      </trkpt>
      <trkpt lat="49.1171" lon="7.54728">
        <ele>335.18</ele>
        <time>2020-06-07T13:30:33.001Z</time>
      </trkpt>
      <trkpt lat="49.11711" lon="7.54744">
        <ele>333.68</ele>
        <time>2020-06-07T13:30:43.001Z</time>
      </trkpt>
      <trkpt lat="49.11712" lon="7.54757">
        <ele>331.54</ele>
        <time>2020-06-07T13:30:53.001Z</time>
      </trkpt>
      <trkpt lat="49.11713" lon="7.54771">
        <ele>332.25</ele>
        <time>2020-06-07T13:31:03.001Z</time>
      </trkpt>
      <trkpt lat="49.11716" lon="7.5478">
        <ele>332.45</ele>
        <time>2020-06-07T13:31:13.001Z</time>
      </trkpt>
      <trkpt lat="49.11711" lon="7.54786">
        <ele>330.68</ele>
        <time>2020-06-07T13:31:23.001Z</time>
      </trkpt>
      <trkpt lat="49.117" lon="7.54799">
        <ele>327.8</ele>
        <time>2020-06-07T13:31:33.001Z</time>
      </trkpt>
      <trkpt lat="49.1169" lon="7.5482">
        <ele>325.37</ele>
        <time>2020-06-07T13:31:43.001Z</time>
      </trkpt>
      <trkpt lat="49.11686" lon="7.54838">
        <ele>323.28</ele>
        <time>2020-06-07T13:31:53.001Z</time>
      </trkpt>
      <trkpt lat="49.11688" lon="7.54836">
        <ele>323.28</ele>
        <time>2020-06-07T13:32:03.001Z</time>
      </trkpt>
      <trkpt lat="49.11688" lon="7.54834">
        <ele>323.28</ele>
        <time>2020-06-07T13:32:13.001Z</time>
      </trkpt>
      <trkpt lat="49.11684" lon="7.54839">
        <ele>322.16</ele>
        <time>2020-06-07T13:32:23.001Z</time>
      </trkpt>
      <trkpt lat="49.11681" lon="7.54845">
        <ele>321.31</ele>
        <time>2020-06-07T13:32:33.001Z</time>
      </trkpt>
      <trkpt lat="49.1168" lon="7.54854">
        <ele>319.06</ele>
        <time>2020-06-07T13:32:43.001Z</time>
      </trkpt>
      <trkpt lat="49.1168" lon="7.54858">
        <ele>319.06</ele>
        <time>2020-06-07T13:32:55.001Z</time>
      </trkpt>
      <trkpt lat="49.11679" lon="7.54863">
        <ele>317.87</ele>
        <time>2020-06-07T13:33:05.001Z</time>
      </trkpt>
      <trkpt lat="49.11679" lon="7.54865">
        <ele>316.74</ele>
        <time>2020-06-07T13:34:28.001Z</time>
      </trkpt>
      <trkpt lat="49.11681" lon="7.54871">
        <ele>312.68</ele>
        <time>2020-06-07T13:34:38.001Z</time>
      </trkpt>
      <trkpt lat="49.11678" lon="7.54882">
        <ele>311.32</ele>
        <time>2020-06-07T13:34:48.001Z</time>
      </trkpt>
      <trkpt lat="49.11676" lon="7.54898">
        <ele>309.94</ele>
        <time>2020-06-07T13:34:58.001Z</time>
      </trkpt>
      <trkpt lat="49.11676" lon="7.54903">
        <ele>307.53</ele>
        <time>2020-06-07T13:35:08.001Z</time>
      </trkpt>
      <trkpt lat="49.11671" lon="7.54924">
        <ele>305.14</ele>
        <time>2020-06-07T13:35:18.001Z</time>
      </trkpt>
      <trkpt lat="49.11663" lon="7.54945">
        <ele>302.07</ele>
        <time>2020-06-07T13:35:28.001Z</time>
      </trkpt>
      <trkpt lat="49.11662" lon="7.54948">
        <ele>302.07</ele>
        <time>2020-06-07T13:35:38.001Z</time>
      </trkpt>
      <trkpt lat="49.11659" lon="7.54949">
        <ele>300.41</ele>
        <time>2020-06-07T13:35:48.001Z</time>
      </trkpt>
      <trkpt lat="49.11646" lon="7.5496">
        <ele>293.93</ele>
        <time>2020-06-07T13:35:58.001Z</time>
      </trkpt>
      <trkpt lat="49.11641" lon="7.54972">
        <ele>292.5</ele>
        <time>2020-06-07T13:36:08.001Z</time>
      </trkpt>
      <trkpt lat="49.11638" lon="7.54975">
        <ele>295.03</ele>
        <time>2020-06-07T13:36:18.001Z</time>
      </trkpt>
      <trkpt lat="49.11635" lon="7.54978">
        <ele>294.76</ele>
        <time>2020-06-07T13:36:28.001Z</time>
      </trkpt>
      <trkpt lat="49.11637" lon="7.54974">
        <ele>294.56</ele>
        <time>2020-06-07T13:36:38.001Z</time>
      </trkpt>
      <trkpt lat="49.11638" lon="7.54971">
        <ele>294.57</ele>
        <time>2020-06-07T13:36:48.001Z</time>
      </trkpt>
      <trkpt lat="49.11638" lon="7.54969">
        <ele>294.63</ele>
        <time>2020-06-07T13:36:58.001Z</time>
      </trkpt>
      <trkpt lat="49.11639" lon="7.54957">
        <ele>294.19</ele>
        <time>2020-06-07T13:37:08.001Z</time>
      </trkpt>
      <trkpt lat="49.11639" lon="7.54955">
        <ele>294.3</ele>
        <time>2020-06-07T13:37:28.001Z</time>
      </trkpt>
      <trkpt lat="49.11647" lon="7.54946">
        <ele>293.23</ele>
        <time>2020-06-07T13:37:38.001Z</time>
      </trkpt>
      <trkpt lat="49.11654" lon="7.54934">
        <ele>292.6</ele>
        <time>2020-06-07T13:37:48.001Z</time>
      </trkpt>
      <trkpt lat="49.1166" lon="7.54922">
        <ele>292.24</ele>
        <time>2020-06-07T13:37:58.001Z</time>
      </trkpt>
      <trkpt lat="49.11664" lon="7.54919">
        <ele>291.73</ele>
        <time>2020-06-07T13:38:08.001Z</time>
      </trkpt>
      <trkpt lat="49.11675" lon="7.54911">
        <ele>290.28</ele>
        <time>2020-06-07T13:38:18.001Z</time>
      </trkpt>
      <trkpt lat="49.11682" lon="7.54911">
        <ele>289.46</ele>
        <time>2020-06-07T13:38:28.001Z</time>
      </trkpt>
      <trkpt lat="49.1168" lon="7.54909">
        <ele>288.43</ele>
        <time>2020-06-07T13:39:13.001Z</time>
      </trkpt>
      <trkpt lat="49.11687" lon="7.54898">
        <ele>288.6</ele>
        <time>2020-06-07T13:39:23.001Z</time>
      </trkpt>
      <trkpt lat="49.11693" lon="7.54886">
        <ele>289.23</ele>
        <time>2020-06-07T13:39:33.001Z</time>
      </trkpt>
      <trkpt lat="49.11704" lon="7.54869">
        <ele>289.15</ele>
        <time>2020-06-07T13:39:43.001Z</time>
      </trkpt>
      <trkpt lat="49.11718" lon="7.54852">
        <ele>289.29</ele>
        <time>2020-06-07T13:39:53.001Z</time>
      </trkpt>
      <trkpt lat="49.11728" lon="7.54841">
        <ele>289.97</ele>
        <time>2020-06-07T13:40:03.001Z</time>
      </trkpt>
      <trkpt lat="49.11738" lon="7.54831">
        <ele>289.45</ele>
        <time>2020-06-07T13:40:13.001Z</time>
      </trkpt>
      <trkpt lat="49.11745" lon="7.54821">
        <ele>291.12</ele>
        <time>2020-06-07T13:40:23.001Z</time>
      </trkpt>
      <trkpt lat="49.11753" lon="7.54811">
        <ele>292.35</ele>
        <time>2020-06-07T13:40:33.001Z</time>
      </trkpt>
      <trkpt lat="49.11762" lon="7.54798">
        <ele>293.45</ele>
        <time>2020-06-07T13:40:43.001Z</time>
      </trkpt>
      <trkpt lat="49.11769" lon="7.54786">
        <ele>295.47</ele>
        <time>2020-06-07T13:40:53.001Z</time>
      </trkpt>
      <trkpt lat="49.11776" lon="7.54775">
        <ele>296.32</ele>
        <time>2020-06-07T13:41:03.001Z</time>
      </trkpt>
      <trkpt lat="49.11785" lon="7.54761">
        <ele>298.26</ele>
        <time>2020-06-07T13:41:13.001Z</time>
      </trkpt>
      <trkpt lat="49.11795" lon="7.54745">
        <ele>298.8</ele>
        <time>2020-06-07T13:41:23.001Z</time>
      </trkpt>
      <trkpt lat="49.11801" lon="7.54744">
        <ele>298.59</ele>
        <time>2020-06-07T13:41:33.001Z</time>
      </trkpt>
      <trkpt lat="49.1181" lon="7.54719">
        <ele>299.81</ele>
        <time>2020-06-07T13:41:43.001Z</time>
      </trkpt>
      <trkpt lat="49.11813" lon="7.54699">
        <ele>299.09</ele>
        <time>2020-06-07T13:41:53.001Z</time>
      </trkpt>
      <trkpt lat="49.11816" lon="7.54684">
        <ele>298.17</ele>
        <time>2020-06-07T13:42:03.001Z</time>
      </trkpt>
      <trkpt lat="49.11821" lon="7.54671">
        <ele>298.05</ele>
        <time>2020-06-07T13:42:13.001Z</time>
      </trkpt>
      <trkpt lat="49.11828" lon="7.54652">
        <ele>299.44</ele>
        <time>2020-06-07T13:42:23.001Z</time>
      </trkpt>
      <trkpt lat="49.11835" lon="7.54633">
        <ele>300.6</ele>
        <time>2020-06-07T13:42:33.001Z</time>
      </trkpt>
      <trkpt lat="49.11842" lon="7.54619">
        <ele>300.62</ele>
        <time>2020-06-07T13:42:43.001Z</time>
      </trkpt>
      <trkpt lat="49.11849" lon="7.54603">
        <ele>301.94</ele>
        <time>2020-06-07T13:42:53.001Z</time>
      </trkpt>
      <trkpt lat="49.11855" lon="7.54588">
        <ele>303.17</ele>
        <time>2020-06-07T13:43:03.001Z</time>
      </trkpt>
      <trkpt lat="49.1186" lon="7.54574">
        <ele>303.37</ele>
        <time>2020-06-07T13:43:13.001Z</time>
      </trkpt>
      <trkpt lat="49.11866" lon="7.54559">
        <ele>301.5</ele>
        <time>2020-06-07T13:43:23.001Z</time>
      </trkpt>
      <trkpt lat="49.1187" lon="7.54545">
        <ele>302.35</ele>
        <time>2020-06-07T13:43:33.001Z</time>
      </trkpt>
      <trkpt lat="49.11879" lon="7.54527">
        <ele>301.38</ele>
        <time>2020-06-07T13:43:43.001Z</time>
      </trkpt>
      <trkpt lat="49.11888" lon="7.5451">
        <ele>299.73</ele>
        <time>2020-06-07T13:43:53.001Z</time>
      </trkpt>
      <trkpt lat="49.11899" lon="7.54494">
        <ele>300.41</ele>
        <time>2020-06-07T13:44:03.001Z</time>
      </trkpt>
      <trkpt lat="49.1191" lon="7.54483">
        <ele>300.51</ele>
        <time>2020-06-07T13:44:13.001Z</time>
      </trkpt>
      <trkpt lat="49.1192" lon="7.54473">
        <ele>300.61</ele>
        <time>2020-06-07T13:44:23.001Z</time>
      </trkpt>
      <trkpt lat="49.11926" lon="7.54461">
        <ele>301.94</ele>
        <time>2020-06-07T13:44:33.001Z</time>
      </trkpt>
      <trkpt lat="49.11935" lon="7.54445">
        <ele>303.52</ele>
        <time>2020-06-07T13:44:43.001Z</time>
      </trkpt>
      <trkpt lat="49.11944" lon="7.54433">
        <ele>305.4</ele>
        <time>2020-06-07T13:44:53.001Z</time>
      </trkpt>
      <trkpt lat="49.11955" lon="7.54418">
        <ele>303.79</ele>
        <time>2020-06-07T13:45:03.001Z</time>
      </trkpt>
      <trkpt lat="49.11966" lon="7.54407">
        <ele>303.5</ele>
        <time>2020-06-07T13:45:13.001Z</time>
      </trkpt>
      <trkpt lat="49.11977" lon="7.54398">
        <ele>302.39</ele>
        <time>2020-06-07T13:45:23.001Z</time>
      </trkpt>
      <trkpt lat="49.11983" lon="7.54398">
        <ele>300.97</ele>
        <time>2020-06-07T13:45:33.001Z</time>
      </trkpt>
      <trkpt lat="49.11981" lon="7.54395">
        <ele>300.75</ele>
        <time>2020-06-07T13:45:43.001Z</time>
      </trkpt>
      <trkpt lat="49.11978" lon="7.54397">
        <ele>299.17</ele>
        <time>2020-06-07T13:46:14.001Z</time>
      </trkpt>
      <trkpt lat="49.11987" lon="7.5441">
        <ele>294.74</ele>
        <time>2020-06-07T13:46:24.001Z</time>
      </trkpt>
      <trkpt lat="49.11991" lon="7.54429">
        <ele>291.97</ele>
        <time>2020-06-07T13:46:34.001Z</time>
      </trkpt>
      <trkpt lat="49.11992" lon="7.54435">
        <ele>290.66</ele>
        <time>2020-06-07T13:46:44.001Z</time>
      </trkpt>
      <trkpt lat="49.11993" lon="7.54438">
        <ele>288.36</ele>
        <time>2020-06-07T13:46:56.001Z</time>
      </trkpt>
      <trkpt lat="49.11996" lon="7.54442">
        <ele>285.17</ele>
        <time>2020-06-07T13:47:06.001Z</time>
      </trkpt>
      <trkpt lat="49.11997" lon="7.54443">
        <ele>285.15</ele>
        <time>2020-06-07T13:47:19.001Z</time>
      </trkpt>
      <trkpt lat="49.11997" lon="7.54447">
        <ele>284.84</ele>
        <time>2020-06-07T13:47:29.001Z</time>
      </trkpt>
      <trkpt lat="49.11998" lon="7.54446">
        <ele>284.73</ele>
        <time>2020-06-07T13:47:41.001Z</time>
      </trkpt>
      <trkpt lat="49.11995" lon="7.54433">
        <ele>284.75</ele>
        <time>2020-06-07T13:47:51.001Z</time>
      </trkpt>
      <trkpt lat="49.1199" lon="7.54417">
        <ele>288.12</ele>
        <time>2020-06-07T13:48:01.001Z</time>
      </trkpt>
      <trkpt lat="49.1199" lon="7.54405">
        <ele>288.23</ele>
        <time>2020-06-07T13:48:11.001Z</time>
      </trkpt>
      <trkpt lat="49.11992" lon="7.544">
        <ele>287.33</ele>
        <time>2020-06-07T13:48:21.001Z</time>
      </trkpt>
      <trkpt lat="49.11998" lon="7.54394">
        <ele>289.75</ele>
        <time>2020-06-07T13:48:31.001Z</time>
      </trkpt>
      <trkpt lat="49.12002" lon="7.54391">
        <ele>290.02</ele>
        <time>2020-06-07T13:48:41.001Z</time>
      </trkpt>
      <trkpt lat="49.12004" lon="7.5439">
        <ele>290.02</ele>
        <time>2020-06-07T13:49:06.001Z</time>
      </trkpt>
      <trkpt lat="49.12007" lon="7.54375">
        <ele>286.52</ele>
        <time>2020-06-07T13:49:16Z</time>
      </trkpt>
      <trkpt lat="49.12008" lon="7.54358">
        <ele>282.95</ele>
        <time>2020-06-07T13:49:25.001Z</time>
      </trkpt>
      <trkpt lat="49.12008" lon="7.54349">
        <ele>280.45</ele>
        <time>2020-06-07T13:49:35.001Z</time>
      </trkpt>
      <trkpt lat="49.12009" lon="7.54336">
        <ele>282.34</ele>
        <time>2020-06-07T13:49:45.001Z</time>
      </trkpt>
      <trkpt lat="49.12008" lon="7.54315">
        <ele>286.15</ele>
        <time>2020-06-07T13:49:55.001Z</time>
      </trkpt>
      <trkpt lat="49.12004" lon="7.54296">
        <ele>289.84</ele>
        <time>2020-06-07T13:50:05.001Z</time>
      </trkpt>
      <trkpt lat="49.11999" lon="7.54282">
        <ele>293.04</ele>
        <time>2020-06-07T13:50:15.001Z</time>
      </trkpt>
      <trkpt lat="49.11993" lon="7.54269">
        <ele>290.79</ele>
        <time>2020-06-07T13:50:25.001Z</time>
      </trkpt>
      <trkpt lat="49.11984" lon="7.54255">
        <ele>284.92</ele>
        <time>2020-06-07T13:50:35.001Z</time>
      </trkpt>
      <trkpt lat="49.11977" lon="7.54239">
        <ele>283.04</ele>
        <time>2020-06-07T13:50:45.001Z</time>
      </trkpt>
      <trkpt lat="49.11969" lon="7.54226">
        <ele>282.08</ele>
        <time>2020-06-07T13:50:55.001Z</time>
      </trkpt>
      <trkpt lat="49.11961" lon="7.54215">
        <ele>281.74</ele>
        <time>2020-06-07T13:51:05.001Z</time>
      </trkpt>
      <trkpt lat="49.11953" lon="7.54201">
        <ele>282.12</ele>
        <time>2020-06-07T13:51:15.001Z</time>
      </trkpt>
      <trkpt lat="49.11947" lon="7.54188">
        <ele>283.28</ele>
        <time>2020-06-07T13:51:25.001Z</time>
      </trkpt>
      <trkpt lat="49.11944" lon="7.54193">
        <ele>283.29</ele>
        <time>2020-06-07T13:51:35.001Z</time>
      </trkpt>
      <trkpt lat="49.11941" lon="7.5418">
        <ele>280.23</ele>
        <time>2020-06-07T13:51:45.001Z</time>
      </trkpt>
      <trkpt lat="49.11932" lon="7.54161">
        <ele>280.25</ele>
        <time>2020-06-07T13:51:55.001Z</time>
      </trkpt>
      <trkpt lat="49.11925" lon="7.54146">
        <ele>281.83</ele>
        <time>2020-06-07T13:52:05.001Z</time>
      </trkpt>
      <trkpt lat="49.11917" lon="7.54132">
        <ele>283.23</ele>
        <time>2020-06-07T13:52:15.001Z</time>
      </trkpt>
      <trkpt lat="49.1191" lon="7.54116">
        <ele>284.36</ele>
        <time>2020-06-07T13:52:25.001Z</time>
      </trkpt>
      <trkpt lat="49.11899" lon="7.54099">
        <ele>283.92</ele>
        <time>2020-06-07T13:52:35.001Z</time>
      </trkpt>
      <trkpt lat="49.11889" lon="7.54087">
        <ele>281.73</ele>
        <time>2020-06-07T13:52:45.001Z</time>
      </trkpt>
      <trkpt lat="49.11878" lon="7.54082">
        <ele>281.15</ele>
        <time>2020-06-07T13:52:55.001Z</time>
      </trkpt>
      <trkpt lat="49.11865" lon="7.54074">
        <ele>280.48</ele>
        <time>2020-06-07T13:53:05.001Z</time>
      </trkpt>
      <trkpt lat="49.11856" lon="7.54062">
        <ele>279.13</ele>
        <time>2020-06-07T13:53:15.001Z</time>
      </trkpt>
      <trkpt lat="49.11849" lon="7.5405">
        <ele>278.61</ele>
        <time>2020-06-07T13:53:25.001Z</time>
      </trkpt>
      <trkpt lat="49.11843" lon="7.5404">
        <ele>278.38</ele>
        <time>2020-06-07T13:53:35.001Z</time>
      </trkpt>
      <trkpt lat="49.1184" lon="7.54037">
        <ele>278.43</ele>
        <time>2020-06-07T13:53:45.001Z</time>
      </trkpt>
      <trkpt lat="49.11839" lon="7.54039">
        <ele>278.43</ele>
        <time>2020-06-07T13:53:55.001Z</time>
      </trkpt>
      <trkpt lat="49.1184" lon="7.54041">
        <ele>278.43</ele>
        <time>2020-06-07T13:54:05.001Z</time>
      </trkpt>
      <trkpt lat="49.1184" lon="7.54044">
        <ele>278.43</ele>
        <time>2020-06-07T13:54:28.001Z</time>
      </trkpt>
      <trkpt lat="49.11838" lon="7.54041">
        <ele>279.25</ele>
        <time>2020-06-07T13:54:38.001Z</time>
      </trkpt>
      <trkpt lat="49.11837" lon="7.54035">
        <ele>279.84</ele>
        <time>2020-06-07T13:54:48.001Z</time>
      </trkpt>
      <trkpt lat="49.11834" lon="7.54009">
        <ele>282.53</ele>
        <time>2020-06-07T13:54:58.001Z</time>
      </trkpt>
      <trkpt lat="49.11829" lon="7.53989">
        <ele>287.04</ele>
        <time>2020-06-07T13:55:08.001Z</time>
      </trkpt>
      <trkpt lat="49.11826" lon="7.53977">
        <ele>292.9</ele>
        <time>2020-06-07T13:55:18.001Z</time>
      </trkpt>
      <trkpt lat="49.11825" lon="7.53974">
        <ele>292.91</ele>
        <time>2020-06-07T13:55:28.001Z</time>
      </trkpt>
      <trkpt lat="49.11824" lon="7.53973">
        <ele>292.91</ele>
        <time>2020-06-07T13:55:39.001Z</time>
      </trkpt>
      <trkpt lat="49.11822" lon="7.53973">
        <ele>292.77</ele>
        <time>2020-06-07T13:55:49.001Z</time>
      </trkpt>
      <trkpt lat="49.11814" lon="7.53974">
        <ele>292.51</ele>
        <time>2020-06-07T13:55:59.001Z</time>
      </trkpt>
      <trkpt lat="49.11802" lon="7.53976">
        <ele>292.67</ele>
        <time>2020-06-07T13:56:09.001Z</time>
      </trkpt>
      <trkpt lat="49.11774" lon="7.53977">
        <ele>292.91</ele>
        <time>2020-06-07T13:56:19.001Z</time>
      </trkpt>
      <trkpt lat="49.11762" lon="7.53977">
        <ele>291.82</ele>
        <time>2020-06-07T13:56:29.001Z</time>
      </trkpt>
      <trkpt lat="49.11751" lon="7.53973">
        <ele>289.72</ele>
        <time>2020-06-07T13:56:39.001Z</time>
      </trkpt>
      <trkpt lat="49.11736" lon="7.53968">
        <ele>288.34</ele>
        <time>2020-06-07T13:56:49.001Z</time>
      </trkpt>
      <trkpt lat="49.11724" lon="7.53972">
        <ele>288.93</ele>
        <time>2020-06-07T13:56:59.001Z</time>
      </trkpt>
      <trkpt lat="49.11719" lon="7.53976">
        <ele>289.12</ele>
        <time>2020-06-07T13:57:09.001Z</time>
      </trkpt>
      <trkpt lat="49.11721" lon="7.5398">
        <ele>289.12</ele>
        <time>2020-06-07T13:57:19.001Z</time>
      </trkpt>
      <trkpt lat="49.11722" lon="7.5398">
        <ele>291.13</ele>
        <time>2020-06-07T13:57:29.001Z</time>
      </trkpt>
      <trkpt lat="49.11725" lon="7.53979">
        <ele>291.13</ele>
        <time>2020-06-07T13:57:47.001Z</time>
      </trkpt>
      <trkpt lat="49.11726" lon="7.53978">
        <ele>293.55</ele>
        <time>2020-06-07T13:57:57.001Z</time>
      </trkpt>
      <trkpt lat="49.11729" lon="7.53978">
        <ele>293.55</ele>
        <time>2020-06-07T13:58:49.001Z</time>
      </trkpt>
      <trkpt lat="49.1173" lon="7.53977">
        <ele>293.77</ele>
        <time>2020-06-07T14:02:15.001Z</time>
      </trkpt>
      <trkpt lat="49.11727" lon="7.53988">
        <ele>297.24</ele>
        <time>2020-06-07T14:08:28.001Z</time>
      </trkpt>
      <trkpt lat="49.11723" lon="7.53993">
        <ele>292.07</ele>
        <time>2020-06-07T14:08:38.001Z</time>
      </trkpt>
      <trkpt lat="49.1171" lon="7.53989">
        <ele>286.94</ele>
        <time>2020-06-07T14:08:48.001Z</time>
      </trkpt>
      <trkpt lat="49.11695" lon="7.53981">
        <ele>285.72</ele>
        <time>2020-06-07T14:08:58.001Z</time>
      </trkpt>
      <trkpt lat="49.11686" lon="7.53975">
        <ele>286.77</ele>
        <time>2020-06-07T14:09:08.001Z</time>
      </trkpt>
      <trkpt lat="49.11679" lon="7.53967">
        <ele>287.46</ele>
        <time>2020-06-07T14:09:18.001Z</time>
      </trkpt>
      <trkpt lat="49.11671" lon="7.53957">
        <ele>289.13</ele>
        <time>2020-06-07T14:09:28.001Z</time>
      </trkpt>
      <trkpt lat="49.11659" lon="7.53945">
        <ele>290.87</ele>
        <time>2020-06-07T14:09:38.001Z</time>
      </trkpt>
      <trkpt lat="49.11647" lon="7.53934">
        <ele>292</ele>
        <time>2020-06-07T14:09:48.001Z</time>
      </trkpt>
      <trkpt lat="49.11637" lon="7.53924">
        <ele>292.16</ele>
        <time>2020-06-07T14:09:58.001Z</time>
      </trkpt>
      <trkpt lat="49.11628" lon="7.53914">
        <ele>295.87</ele>
        <time>2020-06-07T14:10:08.001Z</time>
      </trkpt>
      <trkpt lat="49.11619" lon="7.53903">
        <ele>299.33</ele>
        <time>2020-06-07T14:10:18.001Z</time>
      </trkpt>
      <trkpt lat="49.11612" lon="7.53894">
        <ele>303.13</ele>
        <time>2020-06-07T14:10:28.001Z</time>
      </trkpt>
      <trkpt lat="49.11603" lon="7.53882">
        <ele>306.56</ele>
        <time>2020-06-07T14:10:38.001Z</time>
      </trkpt>
      <trkpt lat="49.11593" lon="7.53866">
        <ele>305.94</ele>
        <time>2020-06-07T14:10:48.001Z</time>
      </trkpt>
      <trkpt lat="49.11583" lon="7.53852">
        <ele>305.58</ele>
        <time>2020-06-07T14:10:58.001Z</time>
      </trkpt>
      <trkpt lat="49.11574" lon="7.5384">
        <ele>305.35</ele>
        <time>2020-06-07T14:11:08.001Z</time>
      </trkpt>
      <trkpt lat="49.11563" lon="7.53829">
        <ele>304.05</ele>
        <time>2020-06-07T14:11:18.001Z</time>
      </trkpt>
      <trkpt lat="49.11554" lon="7.53817">
        <ele>301.83</ele>
        <time>2020-06-07T14:11:28.001Z</time>
      </trkpt>
      <trkpt lat="49.11544" lon="7.53806">
        <ele>300.63</ele>
        <time>2020-06-07T14:11:38.001Z</time>
      </trkpt>
      <trkpt lat="49.11534" lon="7.53795">
        <ele>299.66</ele>
        <time>2020-06-07T14:11:48.001Z</time>
      </trkpt>
      <trkpt lat="49.11524" lon="7.53787">
        <ele>297.66</ele>
        <time>2020-06-07T14:11:58.001Z</time>
      </trkpt>
      <trkpt lat="49.11514" lon="7.53778">
        <ele>298.83</ele>
        <time>2020-06-07T14:12:08.001Z</time>
      </trkpt>
      <trkpt lat="49.11505" lon="7.53768">
        <ele>299.42</ele>
        <time>2020-06-07T14:12:18.001Z</time>
      </trkpt>
      <trkpt lat="49.11496" lon="7.5376">
        <ele>299.47</ele>
        <time>2020-06-07T14:12:28.001Z</time>
      </trkpt>
      <trkpt lat="49.11485" lon="7.53751">
        <ele>300.85</ele>
        <time>2020-06-07T14:12:38.001Z</time>
      </trkpt>
      <trkpt lat="49.11476" lon="7.53739">
        <ele>302.12</ele>
        <time>2020-06-07T14:12:48.001Z</time>
      </trkpt>
      <trkpt lat="49.11469" lon="7.53729">
        <ele>304.24</ele>
        <time>2020-06-07T14:12:58.001Z</time>
      </trkpt>
      <trkpt lat="49.11465" lon="7.53725">
        <ele>304.28</ele>
        <time>2020-06-07T14:13:08.001Z</time>
      </trkpt>
      <trkpt lat="49.11465" lon="7.53725">
        <ele>304.28</ele>
        <time>2020-06-07T14:13:20.001Z</time>
      </trkpt>
      <trkpt lat="49.1146" lon="7.53718">
        <ele>301.44</ele>
        <time>2020-06-07T14:13:30.001Z</time>
      </trkpt>
      <trkpt lat="49.11443" lon="7.53707">
        <ele>298.18</ele>
        <time>2020-06-07T14:13:40.001Z</time>
      </trkpt>
      <trkpt lat="49.11429" lon="7.53699">
        <ele>302.08</ele>
        <time>2020-06-07T14:13:50.001Z</time>
      </trkpt>
      <trkpt lat="49.11422" lon="7.53695">
        <ele>304.42</ele>
        <time>2020-06-07T14:14:00.001Z</time>
      </trkpt>
      <trkpt lat="49.11416" lon="7.53692">
        <ele>306.39</ele>
        <time>2020-06-07T14:14:10.001Z</time>
      </trkpt>
      <trkpt lat="49.11413" lon="7.53692">
        <ele>306.43</ele>
        <time>2020-06-07T14:14:20.001Z</time>
      </trkpt>
      <trkpt lat="49.11412" lon="7.53691">
        <ele>306.43</ele>
        <time>2020-06-07T14:14:38.001Z</time>
      </trkpt>
      <trkpt lat="49.11411" lon="7.53691">
        <ele>307.24</ele>
        <time>2020-06-07T14:15:23.001Z</time>
      </trkpt>
      <trkpt lat="49.11405" lon="7.53688">
        <ele>308.51</ele>
        <time>2020-06-07T14:15:33.001Z</time>
      </trkpt>
      <trkpt lat="49.11392" lon="7.53685">
        <ele>308.52</ele>
        <time>2020-06-07T14:15:43.001Z</time>
      </trkpt>
      <trkpt lat="49.11386" lon="7.53683">
        <ele>308.6</ele>
        <time>2020-06-07T14:15:53.001Z</time>
      </trkpt>
      <trkpt lat="49.11382" lon="7.53681">
        <ele>309.07</ele>
        <time>2020-06-07T14:16:03.001Z</time>
      </trkpt>
      <trkpt lat="49.11377" lon="7.53679">
        <ele>309.44</ele>
        <time>2020-06-07T14:16:13.001Z</time>
      </trkpt>
      <trkpt lat="49.11355" lon="7.53664">
        <ele>311.22</ele>
        <time>2020-06-07T14:16:23.001Z</time>
      </trkpt>
      <trkpt lat="49.1134" lon="7.53655">
        <ele>311.59</ele>
        <time>2020-06-07T14:16:33.001Z</time>
      </trkpt>
      <trkpt lat="49.11328" lon="7.53647">
        <ele>310.28</ele>
        <time>2020-06-07T14:16:43.001Z</time>
      </trkpt>
      <trkpt lat="49.11325" lon="7.53645">
        <ele>310.27</ele>
        <time>2020-06-07T14:16:53.001Z</time>
      </trkpt>
      <trkpt lat="49.11314" lon="7.53639">
        <ele>311.39</ele>
        <time>2020-06-07T14:17:03.001Z</time>
      </trkpt>
      <trkpt lat="49.11299" lon="7.53631">
        <ele>312.05</ele>
        <time>2020-06-07T14:17:13.001Z</time>
      </trkpt>
      <trkpt lat="49.11292" lon="7.53626">
        <ele>311.8</ele>
        <time>2020-06-07T14:17:23.001Z</time>
      </trkpt>
      <trkpt lat="49.11276" lon="7.53617">
        <ele>311.91</ele>
        <time>2020-06-07T14:17:33.001Z</time>
      </trkpt>
      <trkpt lat="49.11272" lon="7.53615">
        <ele>312.15</ele>
        <time>2020-06-07T14:17:43.001Z</time>
      </trkpt>
      <trkpt lat="49.11272" lon="7.53613">
        <ele>313.3</ele>
        <time>2020-06-07T14:17:53.001Z</time>
      </trkpt>
      <trkpt lat="49.11273" lon="7.53611">
        <ele>313.3</ele>
        <time>2020-06-07T14:18:03.001Z</time>
      </trkpt>
      <trkpt lat="49.11272" lon="7.5361">
        <ele>313.24</ele>
        <time>2020-06-07T14:18:24.001Z</time>
      </trkpt>
      <trkpt lat="49.11271" lon="7.53606">
        <ele>313.52</ele>
        <time>2020-06-07T14:18:34.001Z</time>
      </trkpt>
      <trkpt lat="49.1127" lon="7.53606">
        <ele>315.32</ele>
        <time>2020-06-07T14:19:09.001Z</time>
      </trkpt>
      <trkpt lat="49.11265" lon="7.53607">
        <ele>316.23</ele>
        <time>2020-06-07T14:19:19.001Z</time>
      </trkpt>
      <trkpt lat="49.11264" lon="7.53607">
        <ele>316.84</ele>
        <time>2020-06-07T14:19:37.001Z</time>
      </trkpt>
      <trkpt lat="49.11241" lon="7.53602">
        <ele>318.8</ele>
        <time>2020-06-07T14:19:47.001Z</time>
      </trkpt>
      <trkpt lat="49.11233" lon="7.536">
        <ele>319.43</ele>
        <time>2020-06-07T14:19:57.001Z</time>
      </trkpt>
      <trkpt lat="49.11215" lon="7.53595">
        <ele>322.12</ele>
        <time>2020-06-07T14:20:07.001Z</time>
      </trkpt>
      <trkpt lat="49.11201" lon="7.5359">
        <ele>324.3</ele>
        <time>2020-06-07T14:20:17.001Z</time>
      </trkpt>
      <trkpt lat="49.11189" lon="7.53584">
        <ele>325.13</ele>
        <time>2020-06-07T14:20:27.001Z</time>
      </trkpt>
      <trkpt lat="49.11176" lon="7.53579">
        <ele>325.05</ele>
        <time>2020-06-07T14:20:37.001Z</time>
      </trkpt>
      <trkpt lat="49.11163" lon="7.53573">
        <ele>329.04</ele>
        <time>2020-06-07T14:20:47.001Z</time>
      </trkpt>
      <trkpt lat="49.11148" lon="7.5357">
        <ele>331.97</ele>
        <time>2020-06-07T14:20:57.001Z</time>
      </trkpt>
      <trkpt lat="49.11132" lon="7.53568">
        <ele>331.8</ele>
        <time>2020-06-07T14:21:07.001Z</time>
      </trkpt>
      <trkpt lat="49.11121" lon="7.53566">
        <ele>331.23</ele>
        <time>2020-06-07T14:21:17.001Z</time>
      </trkpt>
      <trkpt lat="49.11107" lon="7.53565">
        <ele>329.2</ele>
        <time>2020-06-07T14:21:27.001Z</time>
      </trkpt>
      <trkpt lat="49.11091" lon="7.53564">
        <ele>326.71</ele>
        <time>2020-06-07T14:21:37.001Z</time>
      </trkpt>
      <trkpt lat="49.11082" lon="7.53563">
        <ele>325.35</ele>
        <time>2020-06-07T14:21:47.001Z</time>
      </trkpt>
      <trkpt lat="49.1107" lon="7.53563">
        <ele>325.03</ele>
        <time>2020-06-07T14:21:57.001Z</time>
      </trkpt>
      <trkpt lat="49.11058" lon="7.53563">
        <ele>322.64</ele>
        <time>2020-06-07T14:22:07.001Z</time>
      </trkpt>
      <trkpt lat="49.11049" lon="7.53565">
        <ele>320.59</ele>
        <time>2020-06-07T14:22:17.001Z</time>
      </trkpt>
      <trkpt lat="49.11044" lon="7.53566">
        <ele>320.59</ele>
        <time>2020-06-07T14:22:27.001Z</time>
      </trkpt>
      <trkpt lat="49.11043" lon="7.53568">
        <ele>320.59</ele>
        <time>2020-06-07T14:22:37.001Z</time>
      </trkpt>
      <trkpt lat="49.11037" lon="7.5357">
        <ele>322.9</ele>
        <time>2020-06-07T14:22:47.001Z</time>
      </trkpt>
      <trkpt lat="49.11027" lon="7.53575">
        <ele>325.47</ele>
        <time>2020-06-07T14:22:57.001Z</time>
      </trkpt>
      <trkpt lat="49.11008" lon="7.53582">
        <ele>326.97</ele>
        <time>2020-06-07T14:23:07.001Z</time>
      </trkpt>
      <trkpt lat="49.10992" lon="7.53587">
        <ele>325.92</ele>
        <time>2020-06-07T14:23:17.001Z</time>
      </trkpt>
      <trkpt lat="49.10985" lon="7.5359">
        <ele>326.79</ele>
        <time>2020-06-07T14:23:27.001Z</time>
      </trkpt>
      <trkpt lat="49.10968" lon="7.53596">
        <ele>326.84</ele>
        <time>2020-06-07T14:23:37.001Z</time>
      </trkpt>
      <trkpt lat="49.10957" lon="7.53596">
        <ele>329.98</ele>
        <time>2020-06-07T14:23:47.001Z</time>
      </trkpt>
      <trkpt lat="49.10949" lon="7.53593">
        <ele>330.03</ele>
        <time>2020-06-07T14:23:57.001Z</time>
      </trkpt>
      <trkpt lat="49.10941" lon="7.53589">
        <ele>331.01</ele>
        <time>2020-06-07T14:24:07.001Z</time>
      </trkpt>
      <trkpt lat="49.1093" lon="7.53586">
        <ele>330.83</ele>
        <time>2020-06-07T14:24:17.001Z</time>
      </trkpt>
      <trkpt lat="49.10918" lon="7.53582">
        <ele>330.32</ele>
        <time>2020-06-07T14:24:27.001Z</time>
      </trkpt>
      <trkpt lat="49.10914" lon="7.53581">
        <ele>330.32</ele>
        <time>2020-06-07T14:24:37.001Z</time>
      </trkpt>
      <trkpt lat="49.10906" lon="7.5358">
        <ele>331.12</ele>
        <time>2020-06-07T14:24:47.001Z</time>
      </trkpt>
      <trkpt lat="49.10898" lon="7.53582">
        <ele>331.78</ele>
        <time>2020-06-07T14:24:57.001Z</time>
      </trkpt>
      <trkpt lat="49.10889" lon="7.53581">
        <ele>331.71</ele>
        <time>2020-06-07T14:25:07.001Z</time>
      </trkpt>
      <trkpt lat="49.10875" lon="7.5358">
        <ele>332.19</ele>
        <time>2020-06-07T14:25:17.001Z</time>
      </trkpt>
      <trkpt lat="49.10862" lon="7.53577">
        <ele>332.09</ele>
        <time>2020-06-07T14:25:27.001Z</time>
      </trkpt>
      <trkpt lat="49.10853" lon="7.53575">
        <ele>331.53</ele>
        <time>2020-06-07T14:25:37.001Z</time>
      </trkpt>
      <trkpt lat="49.10837" lon="7.53569">
        <ele>330.97</ele>
        <time>2020-06-07T14:25:47.001Z</time>
      </trkpt>
      <trkpt lat="49.10821" lon="7.5356">
        <ele>331.49</ele>
        <time>2020-06-07T14:25:57.001Z</time>
      </trkpt>
      <trkpt lat="49.10812" lon="7.53553">
        <ele>331.74</ele>
        <time>2020-06-07T14:26:07.001Z</time>
      </trkpt>
      <trkpt lat="49.10797" lon="7.53538">
        <ele>330.97</ele>
        <time>2020-06-07T14:26:17.001Z</time>
      </trkpt>
      <trkpt lat="49.10782" lon="7.53524">
        <ele>330.08</ele>
        <time>2020-06-07T14:26:27.001Z</time>
      </trkpt>
      <trkpt lat="49.10772" lon="7.53516">
        <ele>332.72</ele>
        <time>2020-06-07T14:26:37.001Z</time>
      </trkpt>
      <trkpt lat="49.10764" lon="7.53508">
        <ele>336.11</ele>
        <time>2020-06-07T14:26:47.001Z</time>
      </trkpt>
      <trkpt lat="49.10755" lon="7.53497">
        <ele>336.7</ele>
        <time>2020-06-07T14:26:57.001Z</time>
      </trkpt>
      <trkpt lat="49.10748" lon="7.53485">
        <ele>335.26</ele>
        <time>2020-06-07T14:27:07.001Z</time>
      </trkpt>
      <trkpt lat="49.10741" lon="7.53473">
        <ele>334.14</ele>
        <time>2020-06-07T14:27:17.001Z</time>
      </trkpt>
      <trkpt lat="49.10734" lon="7.53466">
        <ele>332.93</ele>
        <time>2020-06-07T14:27:27.001Z</time>
      </trkpt>
      <trkpt lat="49.10725" lon="7.53459">
        <ele>331.39</ele>
        <time>2020-06-07T14:27:37.001Z</time>
      </trkpt>
      <trkpt lat="49.10713" lon="7.53451">
        <ele>328.82</ele>
        <time>2020-06-07T14:27:47.001Z</time>
      </trkpt>
      <trkpt lat="49.10703" lon="7.53444">
        <ele>328.45</ele>
        <time>2020-06-07T14:27:57.001Z</time>
      </trkpt>
      <trkpt lat="49.10692" lon="7.53437">
        <ele>329.3</ele>
        <time>2020-06-07T14:28:07.001Z</time>
      </trkpt>
      <trkpt lat="49.10684" lon="7.53424">
        <ele>324.75</ele>
        <time>2020-06-07T14:28:17.001Z</time>
      </trkpt>
      <trkpt lat="49.10678" lon="7.53417">
        <ele>324.51</ele>
        <time>2020-06-07T14:28:27.001Z</time>
      </trkpt>
      <trkpt lat="49.10675" lon="7.53417">
        <ele>322.74</ele>
        <time>2020-06-07T14:28:42.001Z</time>
      </trkpt>
      <trkpt lat="49.10672" lon="7.53406">
        <ele>322.58</ele>
        <time>2020-06-07T14:28:52.001Z</time>
      </trkpt>
      <trkpt lat="49.10668" lon="7.53388">
        <ele>321.27</ele>
        <time>2020-06-07T14:29:02Z</time>
      </trkpt>
      <trkpt lat="49.10665" lon="7.53381">
        <ele>321.23</ele>
        <time>2020-06-07T14:29:11.001Z</time>
      </trkpt>
      <trkpt lat="49.10662" lon="7.53377">
        <ele>321.76</ele>
        <time>2020-06-07T14:29:21.001Z</time>
      </trkpt>
      <trkpt lat="49.1066" lon="7.53376">
        <ele>321.76</ele>
        <time>2020-06-07T14:29:31.001Z</time>
      </trkpt>
      <trkpt lat="49.10661" lon="7.53373">
        <ele>321.4</ele>
        <time>2020-06-07T14:29:43.001Z</time>
      </trkpt>
      <trkpt lat="49.10658" lon="7.5337">
        <ele>322.15</ele>
        <time>2020-06-07T14:29:53.001Z</time>
      </trkpt>
      <trkpt lat="49.10649" lon="7.53365">
        <ele>323.32</ele>
        <time>2020-06-07T14:30:03.001Z</time>
      </trkpt>
      <trkpt lat="49.10643" lon="7.53362">
        <ele>324.09</ele>
        <time>2020-06-07T14:30:13.001Z</time>
      </trkpt>
      <trkpt lat="49.10636" lon="7.53355">
        <ele>325.65</ele>
        <time>2020-06-07T14:30:23.001Z</time>
      </trkpt>
      <trkpt lat="49.10625" lon="7.53349">
        <ele>325.03</ele>
        <time>2020-06-07T14:30:33.001Z</time>
      </trkpt>
      <trkpt lat="49.10617" lon="7.53347">
        <ele>325.01</ele>
        <time>2020-06-07T14:30:43.001Z</time>
      </trkpt>
      <trkpt lat="49.10612" lon="7.53346">
        <ele>325.02</ele>
        <time>2020-06-07T14:30:53.001Z</time>
      </trkpt>
      <trkpt lat="49.10611" lon="7.53346">
        <ele>325.02</ele>
        <time>2020-06-07T14:31:03.001Z</time>
      </trkpt>
      <trkpt lat="49.10611" lon="7.53343">
        <ele>324.88</ele>
        <time>2020-06-07T14:31:24.001Z</time>
      </trkpt>
      <trkpt lat="49.10608" lon="7.53318">
        <ele>328.64</ele>
        <time>2020-06-07T14:31:34.001Z</time>
      </trkpt>
      <trkpt lat="49.10605" lon="7.53298">
        <ele>331.47</ele>
        <time>2020-06-07T14:31:44.001Z</time>
      </trkpt>
      <trkpt lat="49.10607" lon="7.53285">
        <ele>332.83</ele>
        <time>2020-06-07T14:31:54.001Z</time>
      </trkpt>
      <trkpt lat="49.10609" lon="7.53278">
        <ele>332.09</ele>
        <time>2020-06-07T14:32:04.001Z</time>
      </trkpt>
      <trkpt lat="49.10609" lon="7.53277">
        <ele>332.09</ele>
        <time>2020-06-07T14:32:14.001Z</time>
      </trkpt>
      <trkpt lat="49.1061" lon="7.53275">
        <ele>331.2</ele>
        <time>2020-06-07T14:32:35.001Z</time>
      </trkpt>
      <trkpt lat="49.10609" lon="7.53273">
        <ele>331.11</ele>
        <time>2020-06-07T14:32:45.001Z</time>
      </trkpt>
      <trkpt lat="49.10608" lon="7.53273">
        <ele>331.44</ele>
        <time>2020-06-07T14:33:02Z</time>
      </trkpt>
      <trkpt lat="49.106" lon="7.53272">
        <ele>332.29</ele>
        <time>2020-06-07T14:33:11.001Z</time>
      </trkpt>
      <trkpt lat="49.10593" lon="7.53268">
        <ele>332.16</ele>
        <time>2020-06-07T14:33:21.001Z</time>
      </trkpt>
      <trkpt lat="49.10586" lon="7.53264">
        <ele>332.18</ele>
        <time>2020-06-07T14:33:31.001Z</time>
      </trkpt>
      <trkpt lat="49.10581" lon="7.53261">
        <ele>333.05</ele>
        <time>2020-06-07T14:33:41.001Z</time>
      </trkpt>
      <trkpt lat="49.10576" lon="7.53259">
        <ele>333.02</ele>
        <time>2020-06-07T14:33:51.001Z</time>
      </trkpt>
      <trkpt lat="49.1056" lon="7.53255">
        <ele>334.69</ele>
        <time>2020-06-07T14:34:01.001Z</time>
      </trkpt>
      <trkpt lat="49.10547" lon="7.53248">
        <ele>335.84</ele>
        <time>2020-06-07T14:34:11.001Z</time>
      </trkpt>
      <trkpt lat="49.1054" lon="7.53239">
        <ele>336.63</ele>
        <time>2020-06-07T14:34:21.001Z</time>
      </trkpt>
      <trkpt lat="49.10537" lon="7.53235">
        <ele>336.63</ele>
        <time>2020-06-07T14:34:31.001Z</time>
      </trkpt>
      <trkpt lat="49.10537" lon="7.53233">
        <ele>336.79</ele>
        <time>2020-06-07T14:34:53.001Z</time>
      </trkpt>
      <trkpt lat="49.10531" lon="7.53228">
        <ele>336.36</ele>
        <time>2020-06-07T14:35:03.001Z</time>
      </trkpt>
      <trkpt lat="49.10521" lon="7.5322">
        <ele>336.51</ele>
        <time>2020-06-07T14:35:13.001Z</time>
      </trkpt>
      <trkpt lat="49.10504" lon="7.53201">
        <ele>337.23</ele>
        <time>2020-06-07T14:35:23.001Z</time>
      </trkpt>
      <trkpt lat="49.10496" lon="7.53188">
        <ele>338.23</ele>
        <time>2020-06-07T14:35:33.001Z</time>
      </trkpt>
      <trkpt lat="49.10488" lon="7.53179">
        <ele>338.69</ele>
        <time>2020-06-07T14:35:43.001Z</time>
      </trkpt>
      <trkpt lat="49.10482" lon="7.53173">
        <ele>338.43</ele>
        <time>2020-06-07T14:35:53.001Z</time>
      </trkpt>
      <trkpt lat="49.10474" lon="7.53168">
        <ele>340.94</ele>
        <time>2020-06-07T14:36:03.001Z</time>
      </trkpt>
      <trkpt lat="49.10461" lon="7.53161">
        <ele>341.27</ele>
        <time>2020-06-07T14:36:13.001Z</time>
      </trkpt>
      <trkpt lat="49.10449" lon="7.53156">
        <ele>342.3</ele>
        <time>2020-06-07T14:36:23.001Z</time>
      </trkpt>
      <trkpt lat="49.10441" lon="7.53149">
        <ele>342.9</ele>
        <time>2020-06-07T14:36:33.001Z</time>
      </trkpt>
      <trkpt lat="49.10435" lon="7.53142">
        <ele>344.08</ele>
        <time>2020-06-07T14:36:43.001Z</time>
      </trkpt>
      <trkpt lat="49.10429" lon="7.53138">
        <ele>344.47</ele>
        <time>2020-06-07T14:36:53.001Z</time>
      </trkpt>
      <trkpt lat="49.10416" lon="7.53128">
        <ele>345.77</ele>
        <time>2020-06-07T14:37:03.001Z</time>
      </trkpt>
      <trkpt lat="49.10402" lon="7.53121">
        <ele>346.13</ele>
        <time>2020-06-07T14:37:13.001Z</time>
      </trkpt>
      <trkpt lat="49.10388" lon="7.53117">
        <ele>344.22</ele>
        <time>2020-06-07T14:37:23.001Z</time>
      </trkpt>
      <trkpt lat="49.10379" lon="7.53116">
        <ele>344.42</ele>
        <time>2020-06-07T14:37:33.001Z</time>
      </trkpt>
      <trkpt lat="49.10372" lon="7.53115">
        <ele>345.53</ele>
        <time>2020-06-07T14:37:43.001Z</time>
      </trkpt>
      <trkpt lat="49.10362" lon="7.53118">
        <ele>343.27</ele>
        <time>2020-06-07T14:37:53.001Z</time>
      </trkpt>
      <trkpt lat="49.10355" lon="7.53121">
        <ele>344.01</ele>
        <time>2020-06-07T14:38:03.001Z</time>
      </trkpt>
      <trkpt lat="49.10354" lon="7.53122">
        <ele>344.06</ele>
        <time>2020-06-07T14:38:13.001Z</time>
      </trkpt>
      <trkpt lat="49.10349" lon="7.5312">
        <ele>343.92</ele>
        <time>2020-06-07T14:38:23.001Z</time>
      </trkpt>
      <trkpt lat="49.10337" lon="7.53115">
        <ele>344.73</ele>
        <time>2020-06-07T14:38:33.001Z</time>
      </trkpt>
      <trkpt lat="49.10329" lon="7.53112">
        <ele>345.55</ele>
        <time>2020-06-07T14:38:43.001Z</time>
      </trkpt>
      <trkpt lat="49.10312" lon="7.53108">
        <ele>342.4</ele>
        <time>2020-06-07T14:38:53.001Z</time>
      </trkpt>
      <trkpt lat="49.10308" lon="7.53107">
        <ele>342.33</ele>
        <time>2020-06-07T14:39:06.001Z</time>
      </trkpt>
      <trkpt lat="49.10307" lon="7.53107">
        <ele>342.33</ele>
        <time>2020-06-07T14:39:16Z</time>
      </trkpt>
      <trkpt lat="49.10308" lon="7.53106">
        <ele>341.34</ele>
        <time>2020-06-07T14:39:45.001Z</time>
      </trkpt>
      <trkpt lat="49.10316" lon="7.53107">
        <ele>339.29</ele>
        <time>2020-06-07T14:39:55.001Z</time>
      </trkpt>
      <trkpt lat="49.10315" lon="7.53104">
        <ele>339.79</ele>
        <time>2020-06-07T14:40:05.001Z</time>
      </trkpt>
      <trkpt lat="49.10303" lon="7.53111">
        <ele>338.8</ele>
        <time>2020-06-07T14:40:15.001Z</time>
      </trkpt>
      <trkpt lat="49.10296" lon="7.53108">
        <ele>339.11</ele>
        <time>2020-06-07T14:40:25.001Z</time>
      </trkpt>
      <trkpt lat="49.10295" lon="7.53102">
        <ele>338.37</ele>
        <time>2020-06-07T14:40:35.001Z</time>
      </trkpt>
      <trkpt lat="49.10291" lon="7.53093">
        <ele>337.74</ele>
        <time>2020-06-07T14:40:45.001Z</time>
      </trkpt>
      <trkpt lat="49.10285" lon="7.53082">
        <ele>338.09</ele>
        <time>2020-06-07T14:40:55.001Z</time>
      </trkpt>
      <trkpt lat="49.10278" lon="7.53067">
        <ele>339.89</ele>
        <time>2020-06-07T14:41:05.001Z</time>
      </trkpt>
      <trkpt lat="49.1027" lon="7.53053">
        <ele>339.65</ele>
        <time>2020-06-07T14:41:15.001Z</time>
      </trkpt>
      <trkpt lat="49.10262" lon="7.53037">
        <ele>341.09</ele>
        <time>2020-06-07T14:41:25.001Z</time>
      </trkpt>
      <trkpt lat="49.10254" lon="7.53026">
        <ele>340.54</ele>
        <time>2020-06-07T14:41:35.001Z</time>
      </trkpt>
      <trkpt lat="49.1025" lon="7.53014">
        <ele>338.62</ele>
        <time>2020-06-07T14:41:45.001Z</time>
      </trkpt>
      <trkpt lat="49.10245" lon="7.53003">
        <ele>338.31</ele>
        <time>2020-06-07T14:41:55.001Z</time>
      </trkpt>
      <trkpt lat="49.10239" lon="7.5299">
        <ele>337.68</ele>
        <time>2020-06-07T14:42:05.001Z</time>
      </trkpt>
      <trkpt lat="49.10237" lon="7.52975">
        <ele>337.69</ele>
        <time>2020-06-07T14:42:15.001Z</time>
      </trkpt>
      <trkpt lat="49.10238" lon="7.52961">
        <ele>337.67</ele>
        <time>2020-06-07T14:42:25.001Z</time>
      </trkpt>
      <trkpt lat="49.10238" lon="7.52948">
        <ele>338.6</ele>
        <time>2020-06-07T14:42:35.001Z</time>
      </trkpt>
      <trkpt lat="49.10243" lon="7.52942">
        <ele>339.81</ele>
        <time>2020-06-07T14:42:45.001Z</time>
      </trkpt>
      <trkpt lat="49.1025" lon="7.52927">
        <ele>345.54</ele>
        <time>2020-06-07T14:42:55.001Z</time>
      </trkpt>
      <trkpt lat="49.10255" lon="7.5291">
        <ele>352.4</ele>
        <time>2020-06-07T14:43:05.001Z</time>
      </trkpt>
      <trkpt lat="49.10261" lon="7.52896">
        <ele>354.04</ele>
        <time>2020-06-07T14:43:15.001Z</time>
      </trkpt>
      <trkpt lat="49.10267" lon="7.52885">
        <ele>356.64</ele>
        <time>2020-06-07T14:43:25.001Z</time>
      </trkpt>
      <trkpt lat="49.10276" lon="7.52877">
        <ele>359.52</ele>
        <time>2020-06-07T14:43:35.001Z</time>
      </trkpt>
      <trkpt lat="49.10282" lon="7.52867">
        <ele>360.39</ele>
        <time>2020-06-07T14:43:45.001Z</time>
      </trkpt>
      <trkpt lat="49.1029" lon="7.52858">
        <ele>361.66</ele>
        <time>2020-06-07T14:43:55.001Z</time>
      </trkpt>
      <trkpt lat="49.103" lon="7.52855">
        <ele>362.52</ele>
        <time>2020-06-07T14:44:05.001Z</time>
      </trkpt>
      <trkpt lat="49.10313" lon="7.5285">
        <ele>364.78</ele>
        <time>2020-06-07T14:44:15.001Z</time>
      </trkpt>
      <trkpt lat="49.10318" lon="7.52845">
        <ele>366.21</ele>
        <time>2020-06-07T14:44:25.001Z</time>
      </trkpt>
      <trkpt lat="49.10318" lon="7.52847">
        <ele>367.78</ele>
        <time>2020-06-07T14:44:40.001Z</time>
      </trkpt>
      <trkpt lat="49.1032" lon="7.52848">
        <ele>368.81</ele>
        <time>2020-06-07T14:44:55.001Z</time>
      </trkpt>
      <trkpt lat="49.10326" lon="7.52848">
        <ele>371.52</ele>
        <time>2020-06-07T14:45:05.001Z</time>
      </trkpt>
      <trkpt lat="49.10333" lon="7.52844">
        <ele>373.93</ele>
        <time>2020-06-07T14:45:15.001Z</time>
      </trkpt>
      <trkpt lat="49.1034" lon="7.52842">
        <ele>374.06</ele>
        <time>2020-06-07T14:45:25.001Z</time>
      </trkpt>
      <trkpt lat="49.10351" lon="7.52835">
        <ele>373.7</ele>
        <time>2020-06-07T14:45:35.001Z</time>
      </trkpt>
      <trkpt lat="49.10362" lon="7.52824">
        <ele>374.23</ele>
        <time>2020-06-07T14:45:45.001Z</time>
      </trkpt>
      <trkpt lat="49.1037" lon="7.52812">
        <ele>375.9</ele>
        <time>2020-06-07T14:45:55.001Z</time>
      </trkpt>
      <trkpt lat="49.10372" lon="7.52804">
        <ele>377.06</ele>
        <time>2020-06-07T14:46:05.001Z</time>
      </trkpt>
      <trkpt lat="49.10374" lon="7.52793">
        <ele>376.94</ele>
        <time>2020-06-07T14:46:15.001Z</time>
      </trkpt>
      <trkpt lat="49.10375" lon="7.52785">
        <ele>377.65</ele>
        <time>2020-06-07T14:46:25.001Z</time>
      </trkpt>
      <trkpt lat="49.10378" lon="7.52774">
        <ele>378.94</ele>
        <time>2020-06-07T14:46:35.001Z</time>
      </trkpt>
      <trkpt lat="49.10378" lon="7.52768">
        <ele>379.21</ele>
        <time>2020-06-07T14:46:45.001Z</time>
      </trkpt>
      <trkpt lat="49.10377" lon="7.52769">
        <ele>379.21</ele>
        <time>2020-06-07T14:46:55.001Z</time>
      </trkpt>
      <trkpt lat="49.10377" lon="7.52772">
        <ele>379.21</ele>
        <time>2020-06-07T14:47:19.001Z</time>
      </trkpt>
      <trkpt lat="49.10378" lon="7.52772">
        <ele>379.84</ele>
        <time>2020-06-07T14:48:01.001Z</time>
      </trkpt>
      <trkpt lat="49.10378" lon="7.52773">
        <ele>379.84</ele>
        <time>2020-06-07T14:48:15.001Z</time>
      </trkpt>
      <trkpt lat="49.10378" lon="7.52775">
        <ele>380.61</ele>
        <time>2020-06-07T14:48:25.001Z</time>
      </trkpt>
      <trkpt lat="49.10378" lon="7.52778">
        <ele>381.51</ele>
        <time>2020-06-07T14:48:35.001Z</time>
      </trkpt>
      <trkpt lat="49.10378" lon="7.5278">
        <ele>381.51</ele>
        <time>2020-06-07T14:49:10.001Z</time>
      </trkpt>
      <trkpt lat="49.10374" lon="7.52772">
        <ele>381.28</ele>
        <time>2020-06-07T14:49:20.001Z</time>
      </trkpt>
      <trkpt lat="49.10371" lon="7.5276">
        <ele>380.89</ele>
        <time>2020-06-07T14:49:30.001Z</time>
      </trkpt>
      <trkpt lat="49.10371" lon="7.52753">
        <ele>380.26</ele>
        <time>2020-06-07T14:49:40.001Z</time>
      </trkpt>
      <trkpt lat="49.10369" lon="7.52751">
        <ele>379.93</ele>
        <time>2020-06-07T14:50:17.001Z</time>
      </trkpt>
      <trkpt lat="49.10368" lon="7.52753">
        <ele>380.06</ele>
        <time>2020-06-07T14:50:27.001Z</time>
      </trkpt>
      <trkpt lat="49.10369" lon="7.52753">
        <ele>381.32</ele>
        <time>2020-06-07T14:51:07.001Z</time>
      </trkpt>
      <trkpt lat="49.10368" lon="7.5275">
        <ele>382.01</ele>
        <time>2020-06-07T14:54:31.001Z</time>
      </trkpt>
      <trkpt lat="49.10369" lon="7.52754">
        <ele>383.3</ele>
        <time>2020-06-07T14:54:41.001Z</time>
      </trkpt>
      <trkpt lat="49.10369" lon="7.52757">
        <ele>383.3</ele>
        <time>2020-06-07T14:54:51.001Z</time>
      </trkpt>
      <trkpt lat="49.10373" lon="7.5277">
        <ele>383.96</ele>
        <time>2020-06-07T14:55:01.001Z</time>
      </trkpt>
      <trkpt lat="49.10372" lon="7.5278">
        <ele>384.05</ele>
        <time>2020-06-07T14:55:11.001Z</time>
      </trkpt>
      <trkpt lat="49.10368" lon="7.52796">
        <ele>382.65</ele>
        <time>2020-06-07T14:55:21.001Z</time>
      </trkpt>
      <trkpt lat="49.10366" lon="7.528">
        <ele>382.65</ele>
        <time>2020-06-07T14:55:31.001Z</time>
      </trkpt>
      <trkpt lat="49.10366" lon="7.52799">
        <ele>383.65</ele>
        <time>2020-06-07T14:55:56.001Z</time>
      </trkpt>
      <trkpt lat="49.10366" lon="7.52797">
        <ele>382.16</ele>
        <time>2020-06-07T14:56:29.001Z</time>
      </trkpt>
      <trkpt lat="49.10367" lon="7.52788">
        <ele>380.67</ele>
        <time>2020-06-07T14:56:39.001Z</time>
      </trkpt>
      <trkpt lat="49.10373" lon="7.52778">
        <ele>382.3</ele>
        <time>2020-06-07T14:56:49.001Z</time>
      </trkpt>
      <trkpt lat="49.10376" lon="7.52774">
        <ele>382.3</ele>
        <time>2020-06-07T14:56:59.001Z</time>
      </trkpt>
      <trkpt lat="49.10377" lon="7.52773">
        <ele>382.3</ele>
        <time>2020-06-07T14:57:09.001Z</time>
      </trkpt>
      <trkpt lat="49.10376" lon="7.52774">
        <ele>382.68</ele>
        <time>2020-06-07T14:57:40.001Z</time>
      </trkpt>
      <trkpt lat="49.10377" lon="7.52773">
        <ele>383.91</ele>
        <time>2020-06-07T14:57:54.001Z</time>
      </trkpt>
      <trkpt lat="49.10384" lon="7.52781">
        <ele>387.06</ele>
        <time>2020-06-07T14:58:04.001Z</time>
      </trkpt>
      <trkpt lat="49.10389" lon="7.52793">
        <ele>385.71</ele>
        <time>2020-06-07T14:58:14.001Z</time>
      </trkpt>
      <trkpt lat="49.10391" lon="7.52801">
        <ele>385.95</ele>
        <time>2020-06-07T14:58:24.001Z</time>
      </trkpt>
      <trkpt lat="49.1039" lon="7.5281">
        <ele>384.35</ele>
        <time>2020-06-07T14:58:34.001Z</time>
      </trkpt>
      <trkpt lat="49.10386" lon="7.52826">
        <ele>377.8</ele>
        <time>2020-06-07T14:58:44.001Z</time>
      </trkpt>
      <trkpt lat="49.10382" lon="7.52837">
        <ele>373.95</ele>
        <time>2020-06-07T14:58:54.001Z</time>
      </trkpt>
      <trkpt lat="49.1038" lon="7.5284">
        <ele>373.95</ele>
        <time>2020-06-07T14:59:04.001Z</time>
      </trkpt>
      <trkpt lat="49.1037" lon="7.52848">
        <ele>369.52</ele>
        <time>2020-06-07T14:59:14.001Z</time>
      </trkpt>
      <trkpt lat="49.10346" lon="7.52862">
        <ele>365.32</ele>
        <time>2020-06-07T14:59:24.001Z</time>
      </trkpt>
      <trkpt lat="49.10338" lon="7.52865">
        <ele>363.08</ele>
        <time>2020-06-07T14:59:34.001Z</time>
      </trkpt>
      <trkpt lat="49.10326" lon="7.52865">
        <ele>359.55</ele>
        <time>2020-06-07T14:59:44.001Z</time>
      </trkpt>
      <trkpt lat="49.10316" lon="7.52867">
        <ele>356.71</ele>
        <time>2020-06-07T14:59:54.001Z</time>
      </trkpt>
      <trkpt lat="49.10313" lon="7.52868">
        <ele>356.66</ele>
        <time>2020-06-07T15:00:04.001Z</time>
      </trkpt>
      <trkpt lat="49.10312" lon="7.52868">
        <ele>356.66</ele>
        <time>2020-06-07T15:01:05.001Z</time>
      </trkpt>
      <trkpt lat="49.1031" lon="7.5287">
        <ele>356.44</ele>
        <time>2020-06-07T15:01:20.001Z</time>
      </trkpt>
      <trkpt lat="49.10293" lon="7.52883">
        <ele>354.58</ele>
        <time>2020-06-07T15:01:30.001Z</time>
      </trkpt>
      <trkpt lat="49.10283" lon="7.52891">
        <ele>354.01</ele>
        <time>2020-06-07T15:01:40.001Z</time>
      </trkpt>
      <trkpt lat="49.10279" lon="7.52896">
        <ele>354.13</ele>
        <time>2020-06-07T15:01:50.001Z</time>
      </trkpt>
      <trkpt lat="49.10271" lon="7.52905">
        <ele>353.42</ele>
        <time>2020-06-07T15:02:00.001Z</time>
      </trkpt>
      <trkpt lat="49.10257" lon="7.52924">
        <ele>352.04</ele>
        <time>2020-06-07T15:02:10.001Z</time>
      </trkpt>
      <trkpt lat="49.10247" lon="7.52933">
        <ele>350.24</ele>
        <time>2020-06-07T15:02:20.001Z</time>
      </trkpt>
      <trkpt lat="49.10233" lon="7.52939">
        <ele>349.7</ele>
        <time>2020-06-07T15:02:30.001Z</time>
      </trkpt>
      <trkpt lat="49.10232" lon="7.5294">
        <ele>349.7</ele>
        <time>2020-06-07T15:02:40.001Z</time>
      </trkpt>
      <trkpt lat="49.10228" lon="7.52941">
        <ele>349.7</ele>
        <time>2020-06-07T15:02:58.001Z</time>
      </trkpt>
      <trkpt lat="49.10227" lon="7.52942">
        <ele>348.1</ele>
        <time>2020-06-07T15:04:02Z</time>
      </trkpt>
      <trkpt lat="49.10225" lon="7.52942">
        <ele>347.95</ele>
        <time>2020-06-07T15:04:11.001Z</time>
      </trkpt>
      <trkpt lat="49.10224" lon="7.52943">
        <ele>348.58</ele>
        <time>2020-06-07T15:04:25.001Z</time>
      </trkpt>
      <trkpt lat="49.10213" lon="7.52937">
        <ele>346.33</ele>
        <time>2020-06-07T15:04:35.001Z</time>
      </trkpt>
      <trkpt lat="49.10204" lon="7.52924">
        <ele>346.67</ele>
        <time>2020-06-07T15:04:45.001Z</time>
      </trkpt>
      <trkpt lat="49.10194" lon="7.5291">
        <ele>345.52</ele>
        <time>2020-06-07T15:04:55.001Z</time>
      </trkpt>
      <trkpt lat="49.10183" lon="7.52899">
        <ele>346.34</ele>
        <time>2020-06-07T15:05:05.001Z</time>
      </trkpt>
      <trkpt lat="49.10173" lon="7.5289">
        <ele>347.27</ele>
        <time>2020-06-07T15:05:15.001Z</time>
      </trkpt>
      <trkpt lat="49.10163" lon="7.52878">
        <ele>345.88</ele>
        <time>2020-06-07T15:05:25.001Z</time>
      </trkpt>
      <trkpt lat="49.10156" lon="7.52861">
        <ele>346.39</ele>
        <time>2020-06-07T15:05:35.001Z</time>
      </trkpt>
      <trkpt lat="49.10148" lon="7.52842">
        <ele>348.57</ele>
        <time>2020-06-07T15:05:45.001Z</time>
      </trkpt>
      <trkpt lat="49.1014" lon="7.52821">
        <ele>351.98</ele>
        <time>2020-06-07T15:05:55.001Z</time>
      </trkpt>
      <trkpt lat="49.10135" lon="7.52801">
        <ele>351.8</ele>
        <time>2020-06-07T15:06:05.001Z</time>
      </trkpt>
      <trkpt lat="49.10133" lon="7.52785">
        <ele>349.86</ele>
        <time>2020-06-07T15:06:15.001Z</time>
      </trkpt>
      <trkpt lat="49.10135" lon="7.52776">
        <ele>346.62</ele>
        <time>2020-06-07T15:06:25.001Z</time>
      </trkpt>
      <trkpt lat="49.10133" lon="7.52757">
        <ele>349.68</ele>
        <time>2020-06-07T15:06:35.001Z</time>
      </trkpt>
      <trkpt lat="49.10126" lon="7.52748">
        <ele>352.54</ele>
        <time>2020-06-07T15:06:45.001Z</time>
      </trkpt>
      <trkpt lat="49.10116" lon="7.52739">
        <ele>351.32</ele>
        <time>2020-06-07T15:06:55.001Z</time>
      </trkpt>
      <trkpt lat="49.10107" lon="7.52728">
        <ele>350.88</ele>
        <time>2020-06-07T15:07:05.001Z</time>
      </trkpt>
      <trkpt lat="49.10103" lon="7.52712">
        <ele>350.14</ele>
        <time>2020-06-07T15:07:15.001Z</time>
      </trkpt>
      <trkpt lat="49.10096" lon="7.52683">
        <ele>347.76</ele>
        <time>2020-06-07T15:07:25.001Z</time>
      </trkpt>
      <trkpt lat="49.10091" lon="7.52661">
        <ele>346.35</ele>
        <time>2020-06-07T15:07:35.001Z</time>
      </trkpt>
      <trkpt lat="49.10089" lon="7.52648">
        <ele>345.57</ele>
        <time>2020-06-07T15:07:45.001Z</time>
      </trkpt>
      <trkpt lat="49.10084" lon="7.52626">
        <ele>345.37</ele>
        <time>2020-06-07T15:07:55.001Z</time>
      </trkpt>
      <trkpt lat="49.1008" lon="7.52609">
        <ele>345.48</ele>
        <time>2020-06-07T15:08:05.001Z</time>
      </trkpt>
      <trkpt lat="49.10075" lon="7.52587">
        <ele>346.11</ele>
        <time>2020-06-07T15:08:15.001Z</time>
      </trkpt>
      <trkpt lat="49.1007" lon="7.5256">
        <ele>343.94</ele>
        <time>2020-06-07T15:08:25.001Z</time>
      </trkpt>
      <trkpt lat="49.10067" lon="7.52545">
        <ele>345.09</ele>
        <time>2020-06-07T15:08:35.001Z</time>
      </trkpt>
      <trkpt lat="49.10064" lon="7.52538">
        <ele>345.56</ele>
        <time>2020-06-07T15:08:45.001Z</time>
      </trkpt>
      <trkpt lat="49.10059" lon="7.52521">
        <ele>345.11</ele>
        <time>2020-06-07T15:08:55.001Z</time>
      </trkpt>
      <trkpt lat="49.10055" lon="7.52503">
        <ele>342.34</ele>
        <time>2020-06-07T15:09:05.001Z</time>
      </trkpt>
      <trkpt lat="49.10052" lon="7.52487">
        <ele>341.65</ele>
        <time>2020-06-07T15:09:15.001Z</time>
      </trkpt>
      <trkpt lat="49.10049" lon="7.52469">
        <ele>340.73</ele>
        <time>2020-06-07T15:09:25.001Z</time>
      </trkpt>
      <trkpt lat="49.10046" lon="7.52452">
        <ele>340.66</ele>
        <time>2020-06-07T15:09:35.001Z</time>
      </trkpt>
      <trkpt lat="49.10043" lon="7.52437">
        <ele>341.15</ele>
        <time>2020-06-07T15:09:45.001Z</time>
      </trkpt>
      <trkpt lat="49.10042" lon="7.52419">
        <ele>341.39</ele>
        <time>2020-06-07T15:09:55.001Z</time>
      </trkpt>
      <trkpt lat="49.10039" lon="7.52398">
        <ele>342.41</ele>
        <time>2020-06-07T15:10:05.001Z</time>
      </trkpt>
      <trkpt lat="49.10037" lon="7.52378">
        <ele>342.95</ele>
        <time>2020-06-07T15:10:15.001Z</time>
      </trkpt>
      <trkpt lat="49.10034" lon="7.52355">
        <ele>342.27</ele>
        <time>2020-06-07T15:10:25.001Z</time>
      </trkpt>
      <trkpt lat="49.1003" lon="7.52335">
        <ele>340.51</ele>
        <time>2020-06-07T15:10:35.001Z</time>
      </trkpt>
      <trkpt lat="49.10027" lon="7.52316">
        <ele>339.53</ele>
        <time>2020-06-07T15:10:45.001Z</time>
      </trkpt>
      <trkpt lat="49.10025" lon="7.52295">
        <ele>337.23</ele>
        <time>2020-06-07T15:10:55.001Z</time>
      </trkpt>
      <trkpt lat="49.10025" lon="7.52271">
        <ele>335.07</ele>
        <time>2020-06-07T15:11:05.001Z</time>
      </trkpt>
      <trkpt lat="49.10025" lon="7.5225">
        <ele>333.53</ele>
        <time>2020-06-07T15:11:15.001Z</time>
      </trkpt>
      <trkpt lat="49.10025" lon="7.5223">
        <ele>332.52</ele>
        <time>2020-06-07T15:11:25.001Z</time>
      </trkpt>
      <trkpt lat="49.10024" lon="7.52212">
        <ele>330.24</ele>
        <time>2020-06-07T15:11:35.001Z</time>
      </trkpt>
      <trkpt lat="49.10023" lon="7.5219">
        <ele>327.45</ele>
        <time>2020-06-07T15:11:45.001Z</time>
      </trkpt>
      <trkpt lat="49.10023" lon="7.52172">
        <ele>329.46</ele>
        <time>2020-06-07T15:11:55.001Z</time>
      </trkpt>
      <trkpt lat="49.10021" lon="7.52153">
        <ele>335.78</ele>
        <time>2020-06-07T15:12:05.001Z</time>
      </trkpt>
      <trkpt lat="49.10019" lon="7.52132">
        <ele>338.62</ele>
        <time>2020-06-07T15:12:15.001Z</time>
      </trkpt>
      <trkpt lat="49.10017" lon="7.52112">
        <ele>341.44</ele>
        <time>2020-06-07T15:12:25.001Z</time>
      </trkpt>
      <trkpt lat="49.10014" lon="7.52092">
        <ele>346.4</ele>
        <time>2020-06-07T15:12:35.001Z</time>
      </trkpt>
      <trkpt lat="49.10013" lon="7.52071">
        <ele>354.91</ele>
        <time>2020-06-07T15:12:45.001Z</time>
      </trkpt>
      <trkpt lat="49.10014" lon="7.52059">
        <ele>357.07</ele>
        <time>2020-06-07T15:12:55.001Z</time>
      </trkpt>
      <trkpt lat="49.10008" lon="7.52062">
        <ele>356.5</ele>
        <time>2020-06-07T15:13:27.001Z</time>
      </trkpt>
      <trkpt lat="49.10003" lon="7.52062">
        <ele>355.96</ele>
        <time>2020-06-07T15:13:37.001Z</time>
      </trkpt>
      <trkpt lat="49.10004" lon="7.52065">
        <ele>355.96</ele>
        <time>2020-06-07T15:14:16Z</time>
      </trkpt>
      <trkpt lat="49.10005" lon="7.52063">
        <ele>348.6</ele>
        <time>2020-06-07T15:14:42.001Z</time>
      </trkpt>
      <trkpt lat="49.10006" lon="7.52055">
        <ele>339.52</ele>
        <time>2020-06-07T15:14:52.001Z</time>
      </trkpt>
      <trkpt lat="49.10008" lon="7.52042">
        <ele>332.15</ele>
        <time>2020-06-07T15:15:02Z</time>
      </trkpt>
      <trkpt lat="49.10011" lon="7.52021">
        <ele>326.45</ele>
        <time>2020-06-07T15:15:11.001Z</time>
      </trkpt>
      <trkpt lat="49.10013" lon="7.51999">
        <ele>322.65</ele>
        <time>2020-06-07T15:15:21.001Z</time>
      </trkpt>
      <trkpt lat="49.1001" lon="7.51988">
        <ele>322.39</ele>
        <time>2020-06-07T15:15:31.001Z</time>
      </trkpt>
      <trkpt lat="49.10009" lon="7.51979">
        <ele>322.07</ele>
        <time>2020-06-07T15:15:41.001Z</time>
      </trkpt>
      <trkpt lat="49.10008" lon="7.51963">
        <ele>323.09</ele>
        <time>2020-06-07T15:15:51.001Z</time>
      </trkpt>
      <trkpt lat="49.10006" lon="7.51933">
        <ele>322.13</ele>
        <time>2020-06-07T15:16:01.001Z</time>
      </trkpt>
      <trkpt lat="49.10006" lon="7.51915">
        <ele>320.07</ele>
        <time>2020-06-07T15:16:11.001Z</time>
      </trkpt>
      <trkpt lat="49.10006" lon="7.51896">
        <ele>318.26</ele>
        <time>2020-06-07T15:16:21.001Z</time>
      </trkpt>
      <trkpt lat="49.10004" lon="7.51877">
        <ele>317.81</ele>
        <time>2020-06-07T15:16:31.001Z</time>
      </trkpt>
      <trkpt lat="49.10002" lon="7.51859">
        <ele>318.28</ele>
        <time>2020-06-07T15:16:41.001Z</time>
      </trkpt>
      <trkpt lat="49.1" lon="7.51839">
        <ele>317.46</ele>
        <time>2020-06-07T15:16:51.001Z</time>
      </trkpt>
      <trkpt lat="49.09998" lon="7.51823">
        <ele>315.31</ele>
        <time>2020-06-07T15:17:01.001Z</time>
      </trkpt>
      <trkpt lat="49.09997" lon="7.51803">
        <ele>314.72</ele>
        <time>2020-06-07T15:17:11.001Z</time>
      </trkpt>
      <trkpt lat="49.09994" lon="7.51784">
        <ele>313.98</ele>
        <time>2020-06-07T15:17:21.001Z</time>
      </trkpt>
      <trkpt lat="49.09992" lon="7.51767">
        <ele>314.21</ele>
        <time>2020-06-07T15:17:31.001Z</time>
      </trkpt>
      <trkpt lat="49.0999" lon="7.51756">
        <ele>315.97</ele>
        <time>2020-06-07T15:17:41.001Z</time>
      </trkpt>
      <trkpt lat="49.09989" lon="7.51747">
        <ele>315.62</ele>
        <time>2020-06-07T15:17:51.001Z</time>
      </trkpt>
      <trkpt lat="49.09989" lon="7.51733">
        <ele>315.77</ele>
        <time>2020-06-07T15:18:01.001Z</time>
      </trkpt>
      <trkpt lat="49.09991" lon="7.51718">
        <ele>315.24</ele>
        <time>2020-06-07T15:18:11.001Z</time>
      </trkpt>
      <trkpt lat="49.09991" lon="7.51698">
        <ele>313.94</ele>
        <time>2020-06-07T15:18:21.001Z</time>
      </trkpt>
      <trkpt lat="49.09993" lon="7.51683">
        <ele>314.07</ele>
        <time>2020-06-07T15:18:31.001Z</time>
      </trkpt>
      <trkpt lat="49.09997" lon="7.51663">
        <ele>314.62</ele>
        <time>2020-06-07T15:18:41.001Z</time>
      </trkpt>
      <trkpt lat="49.10004" lon="7.51642">
        <ele>314.21</ele>
        <time>2020-06-07T15:18:51.001Z</time>
      </trkpt>
      <trkpt lat="49.10012" lon="7.51635">
        <ele>313.8</ele>
        <time>2020-06-07T15:19:01.001Z</time>
      </trkpt>
      <trkpt lat="49.10014" lon="7.51624">
        <ele>314.87</ele>
        <time>2020-06-07T15:19:11.001Z</time>
      </trkpt>
      <trkpt lat="49.10011" lon="7.51625">
        <ele>315</ele>
        <time>2020-06-07T15:19:21.001Z</time>
      </trkpt>
      <trkpt lat="49.10011" lon="7.51625">
        <ele>315</ele>
        <time>2020-06-07T15:20:05.001Z</time>
      </trkpt>
    </trkseg>
  </trk>
</gpx>